﻿<?xml version="1.0" encoding="utf-8"?><gpx creator="Garmin Desktop App" version="1.1" xsi:schemaLocation="http://www.topografix.com/GPX/1/1 http://www.topografix.com/GPX/1/1/gpx.xsd http://www.garmin.com/xmlschemas/WaypointExtension/v1 http://www8.garmin.com/xmlschemas/WaypointExtensionv1.xsd http://www.garmin.com/xmlschemas/TrackPointExtension/v1 http://www.garmin.com/xmlschemas/TrackPointExtensionv1.xsd http://www.garmin.com/xmlschemas/GpxExtensions/v3 http://www8.garmin.com/xmlschemas/GpxExtensionsv3.xsd http://www.garmin.com/xmlschemas/ActivityExtension/v1 http://www8.garmin.com/xmlschemas/ActivityExtensionv1.xsd http://www.garmin.com/xmlschemas/AdventuresExtensions/v1 http://www8.garmin.com/xmlschemas/AdventuresExtensionv1.xsd http://www.garmin.com/xmlschemas/PressureExtension/v1 http://www.garmin.com/xmlschemas/PressureExtensionv1.xsd http://www.garmin.com/xmlschemas/TripExtensions/v1 http://www.garmin.com/xmlschemas/TripExtensionsv1.xsd http://www.garmin.com/xmlschemas/TripMetaDataExtensions/v1 http://www.garmin.com/xmlschemas/TripMetaDataExtensionsv1.xsd http://www.garmin.com/xmlschemas/ViaPointTransportationModeExtensions/v1 http://www.garmin.com/xmlschemas/ViaPointTransportationModeExtensionsv1.xsd http://www.garmin.com/xmlschemas/CreationTimeExtension/v1 http://www.garmin.com/xmlschemas/CreationTimeExtensionsv1.xsd http://www.garmin.com/xmlschemas/AccelerationExtension/v1 http://www.garmin.com/xmlschemas/AccelerationExtensionv1.xsd http://www.garmin.com/xmlschemas/PowerExtension/v1 http://www.garmin.com/xmlschemas/PowerExtensionv1.xsd http://www.garmin.com/xmlschemas/VideoExtension/v1 http://www.garmin.com/xmlschemas/VideoExtensionv1.xsd" xmlns="http://www.topografix.com/GPX/1/1" xmlns:xsi="http://www.w3.org/2001/XMLSchema-instance" xmlns:wptx1="http://www.garmin.com/xmlschemas/WaypointExtension/v1" xmlns:gpxtrx="http://www.garmin.com/xmlschemas/GpxExtensions/v3" xmlns:gpxtpx="http://www.garmin.com/xmlschemas/TrackPointExtension/v1" xmlns:gpxx="http://www.garmin.com/xmlschemas/GpxExtensions/v3" xmlns:trp="http://www.garmin.com/xmlschemas/TripExtensions/v1" xmlns:adv="http://www.garmin.com/xmlschemas/AdventuresExtensions/v1" xmlns:prs="http://www.garmin.com/xmlschemas/PressureExtension/v1" xmlns:tmd="http://www.garmin.com/xmlschemas/TripMetaDataExtensions/v1" xmlns:vptm="http://www.garmin.com/xmlschemas/ViaPointTransportationModeExtensions/v1" xmlns:ctx="http://www.garmin.com/xmlschemas/CreationTimeExtension/v1" xmlns:gpxacc="http://www.garmin.com/xmlschemas/AccelerationExtension/v1" xmlns:gpxpx="http://www.garmin.com/xmlschemas/PowerExtension/v1" xmlns:vidx1="http://www.garmin.com/xmlschemas/VideoExtension/v1">

  <metadata>
    <link href="http://www.garmin.com">
      <text>Garmin International</text>
    </link>
    <time>2026-03-02T14:33:14Z</time>
    <bounds maxlat="52.265416150912642" maxlon="8.039780538529158" minlat="52.235347079113126" minlon="7.789508476853371" />
  </metadata>

  <trk>
    <name>20260302Laggenbeck</name>
    <extensions>
      <gpxx:TrackExtension>
        <gpxx:DisplayColor>DarkGray</gpxx:DisplayColor>
      </gpxx:TrackExtension>
    </extensions>
    <trkseg>
      <trkpt lat="52.264090469107032" lon="8.036367176100612">
        <ele>65.6796875</ele>
        <time>2026-03-02T08:56:55Z</time>
      </trkpt>
      <trkpt lat="52.264255341142416" lon="8.036266090348363">
        <ele>65.42578125</ele>
        <time>2026-03-02T09:13:38Z</time>
      </trkpt>
      <trkpt lat="52.264349972829223" lon="8.036572113633156">
        <ele>65.09375</ele>
        <time>2026-03-02T09:13:46Z</time>
      </trkpt>
      <trkpt lat="52.264447789639235" lon="8.036878556013107">
        <ele>65.00390625</ele>
        <time>2026-03-02T09:13:50Z</time>
      </trkpt>
      <trkpt lat="52.264521215111017" lon="8.037165720015764">
        <ele>64.9765625</ele>
        <time>2026-03-02T09:13:54Z</time>
      </trkpt>
      <trkpt lat="52.26453697308898" lon="8.037616917863488">
        <ele>65.15234375</ele>
        <time>2026-03-02T09:13:58Z</time>
      </trkpt>
      <trkpt lat="52.264508390799165" lon="8.037986475974321">
        <ele>65.12109375</ele>
        <time>2026-03-02T09:14:02Z</time>
      </trkpt>
      <trkpt lat="52.264466397464275" lon="8.038349077105522">
        <ele>65.00390625</ele>
        <time>2026-03-02T09:14:06Z</time>
      </trkpt>
      <trkpt lat="52.264441922307014" lon="8.038708828389645">
        <ele>65.00390625</ele>
        <time>2026-03-02T09:14:10Z</time>
      </trkpt>
      <trkpt lat="52.264361791312695" lon="8.039141921326518">
        <ele>65.2734375</ele>
        <time>2026-03-02T09:14:16Z</time>
      </trkpt>
      <trkpt lat="52.264269338920712" lon="8.03949823603034">
        <ele>65.58203125</ele>
        <time>2026-03-02T09:14:22Z</time>
      </trkpt>
      <trkpt lat="52.264081332832575" lon="8.039475437253714">
        <ele>65.2890625</ele>
        <time>2026-03-02T09:14:26Z</time>
      </trkpt>
      <trkpt lat="52.263885112479329" lon="8.039443083107472">
        <ele>65.3984375</ele>
        <time>2026-03-02T09:14:30Z</time>
      </trkpt>
      <trkpt lat="52.263691071420908" lon="8.039419697597623">
        <ele>65.7421875</ele>
        <time>2026-03-02T09:14:34Z</time>
      </trkpt>
      <trkpt lat="52.263477500528097" lon="8.039367562159896">
        <ele>66.10546875</ele>
        <time>2026-03-02T09:14:38Z</time>
      </trkpt>
      <trkpt lat="52.263276418671012" lon="8.039321964606643">
        <ele>66.5390625</ele>
        <time>2026-03-02T09:14:42Z</time>
      </trkpt>
      <trkpt lat="52.26301004178822" lon="8.039291203022003">
        <ele>67.1171875</ele>
        <time>2026-03-02T09:14:48Z</time>
      </trkpt>
      <trkpt lat="52.262776270508766" lon="8.039262536913157">
        <ele>67.62109375</ele>
        <time>2026-03-02T09:14:54Z</time>
      </trkpt>
      <trkpt lat="52.262562867254019" lon="8.03937510587275">
        <ele>68.03125</ele>
        <time>2026-03-02T09:15:00Z</time>
      </trkpt>
      <trkpt lat="52.262309398502111" lon="8.039454566314817">
        <ele>68.125</ele>
        <time>2026-03-02T09:15:06Z</time>
      </trkpt>
      <trkpt lat="52.262109909206629" lon="8.039521705359221">
        <ele>68.1171875</ele>
        <time>2026-03-02T09:15:10Z</time>
      </trkpt>
      <trkpt lat="52.261920142918825" lon="8.039602339267731">
        <ele>68.59375</ele>
        <time>2026-03-02T09:15:14Z</time>
      </trkpt>
      <trkpt lat="52.261726185679436" lon="8.039671825245023">
        <ele>69.1640625</ele>
        <time>2026-03-02T09:15:18Z</time>
      </trkpt>
      <trkpt lat="52.261566761881113" lon="8.039430510252714">
        <ele>71.2109375</ele>
        <time>2026-03-02T09:15:22Z</time>
      </trkpt>
      <trkpt lat="52.261511692777276" lon="8.039115769788623">
        <ele>72.70703125</ele>
        <time>2026-03-02T09:15:26Z</time>
      </trkpt>
      <trkpt lat="52.261522589251399" lon="8.038789965212345">
        <ele>73.5</ele>
        <time>2026-03-02T09:15:30Z</time>
      </trkpt>
      <trkpt lat="52.261502891778946" lon="8.03848285228014">
        <ele>74.05859375</ele>
        <time>2026-03-02T09:15:34Z</time>
      </trkpt>
      <trkpt lat="52.261424269527197" lon="8.038055039942265">
        <ele>74.32421875</ele>
        <time>2026-03-02T09:15:40Z</time>
      </trkpt>
      <trkpt lat="52.261385880410671" lon="8.037739712744951">
        <ele>73.12109375</ele>
        <time>2026-03-02T09:15:44Z</time>
      </trkpt>
      <trkpt lat="52.261343467980623" lon="8.037443161010742">
        <ele>73.15625</ele>
        <time>2026-03-02T09:15:48Z</time>
      </trkpt>
      <trkpt lat="52.261305497959256" lon="8.03715624846518">
        <ele>73.203125</ele>
        <time>2026-03-02T09:15:52Z</time>
      </trkpt>
      <trkpt lat="52.261274484917521" lon="8.036850895732641">
        <ele>72.66796875</ele>
        <time>2026-03-02T09:15:56Z</time>
      </trkpt>
      <trkpt lat="52.26123777218163" lon="8.036523498594761">
        <ele>71.77734375</ele>
        <time>2026-03-02T09:16:00Z</time>
      </trkpt>
      <trkpt lat="52.261193012818694" lon="8.036235412582755">
        <ele>70.9609375</ele>
        <time>2026-03-02T09:16:04Z</time>
      </trkpt>
      <trkpt lat="52.261149929836392" lon="8.035929389297962">
        <ele>70.37109375</ele>
        <time>2026-03-02T09:16:08Z</time>
      </trkpt>
      <trkpt lat="52.261100895702839" lon="8.035622276365757">
        <ele>70.125</ele>
        <time>2026-03-02T09:16:12Z</time>
      </trkpt>
      <trkpt lat="52.261054459959269" lon="8.035302003845573">
        <ele>70</ele>
        <time>2026-03-02T09:16:16Z</time>
      </trkpt>
      <trkpt lat="52.260973826050758" lon="8.035012744367123">
        <ele>70</ele>
        <time>2026-03-02T09:16:20Z</time>
      </trkpt>
      <trkpt lat="52.260904591530561" lon="8.034722562879324">
        <ele>69.71484375</ele>
        <time>2026-03-02T09:16:24Z</time>
      </trkpt>
      <trkpt lat="52.260802164673805" lon="8.034483846276999">
        <ele>69.1640625</ele>
        <time>2026-03-02T09:16:28Z</time>
      </trkpt>
      <trkpt lat="52.26062161847949" lon="8.034496251493692">
        <ele>69.36328125</ele>
        <time>2026-03-02T09:16:32Z</time>
      </trkpt>
      <trkpt lat="52.260412992909551" lon="8.034502370283008">
        <ele>69.828125</ele>
        <time>2026-03-02T09:16:36Z</time>
      </trkpt>
      <trkpt lat="52.260149801149964" lon="8.034498179331422">
        <ele>70.38671875</ele>
        <time>2026-03-02T09:16:42Z</time>
      </trkpt>
      <trkpt lat="52.259889962151647" lon="8.034507147967815">
        <ele>70.96875</ele>
        <time>2026-03-02T09:16:48Z</time>
      </trkpt>
      <trkpt lat="52.25970983505249" lon="8.034491138532758">
        <ele>71.32421875</ele>
        <time>2026-03-02T09:16:52Z</time>
      </trkpt>
      <trkpt lat="52.259452342987061" lon="8.034497844055295">
        <ele>71.89453125</ele>
        <time>2026-03-02T09:16:58Z</time>
      </trkpt>
      <trkpt lat="52.259194431826472" lon="8.03451762534678">
        <ele>72.49609375</ele>
        <time>2026-03-02T09:17:04Z</time>
      </trkpt>
      <trkpt lat="52.258934676647186" lon="8.034533131867647">
        <ele>73.08984375</ele>
        <time>2026-03-02T09:17:10Z</time>
      </trkpt>
      <trkpt lat="52.258688667789102" lon="8.034536652266979">
        <ele>73.62890625</ele>
        <time>2026-03-02T09:17:16Z</time>
      </trkpt>
      <trkpt lat="52.258454477414489" lon="8.034532461315393">
        <ele>74.125</ele>
        <time>2026-03-02T09:17:22Z</time>
      </trkpt>
      <trkpt lat="52.258231183513999" lon="8.034553751349449">
        <ele>74.65625</ele>
        <time>2026-03-02T09:17:28Z</time>
      </trkpt>
      <trkpt lat="52.258015433326364" lon="8.034576885402203">
        <ele>75.171875</ele>
        <time>2026-03-02T09:17:34Z</time>
      </trkpt>
      <trkpt lat="52.257804712280631" lon="8.034574957564473">
        <ele>75.98828125</ele>
        <time>2026-03-02T09:17:40Z</time>
      </trkpt>
      <trkpt lat="52.257569180801511" lon="8.034571437165141">
        <ele>77</ele>
        <time>2026-03-02T09:17:46Z</time>
      </trkpt>
      <trkpt lat="52.257350413128734" lon="8.03456942550838">
        <ele>77.59375</ele>
        <time>2026-03-02T09:17:52Z</time>
      </trkpt>
      <trkpt lat="52.257123850286007" lon="8.034587614238262">
        <ele>78.12109375</ele>
        <time>2026-03-02T09:17:58Z</time>
      </trkpt>
      <trkpt lat="52.256889659911394" lon="8.034589374437928">
        <ele>78.6328125</ele>
        <time>2026-03-02T09:18:04Z</time>
      </trkpt>
      <trkpt lat="52.256658403202891" lon="8.034593649208546">
        <ele>79.140625</ele>
        <time>2026-03-02T09:18:10Z</time>
      </trkpt>
      <trkpt lat="52.256425805389881" lon="8.034605635330081">
        <ele>80.015625</ele>
        <time>2026-03-02T09:18:16Z</time>
      </trkpt>
      <trkpt lat="52.256208378821611" lon="8.034613514319062">
        <ele>80.97265625</ele>
        <time>2026-03-02T09:18:22Z</time>
      </trkpt>
      <trkpt lat="52.255980977788568" lon="8.034613346680999">
        <ele>81.54296875</ele>
        <time>2026-03-02T09:18:28Z</time>
      </trkpt>
      <trkpt lat="52.255744021385908" lon="8.034614687785506">
        <ele>81.8828125</ele>
        <time>2026-03-02T09:18:34Z</time>
      </trkpt>
      <trkpt lat="52.255501113831997" lon="8.034630194306374">
        <ele>82.2578125</ele>
        <time>2026-03-02T09:18:40Z</time>
      </trkpt>
      <trkpt lat="52.255278239026666" lon="8.034642515704036">
        <ele>82.6640625</ele>
        <time>2026-03-02T09:18:46Z</time>
      </trkpt>
      <trkpt lat="52.255081431940198" lon="8.034656932577491">
        <ele>83.37109375</ele>
        <time>2026-03-02T09:18:52Z</time>
      </trkpt>
      <trkpt lat="52.254877919331193" lon="8.034662799909711">
        <ele>84.27734375</ele>
        <time>2026-03-02T09:18:58Z</time>
      </trkpt>
      <trkpt lat="52.254656134173274" lon="8.034676965326071">
        <ele>85.04296875</ele>
        <time>2026-03-02T09:19:04Z</time>
      </trkpt>
      <trkpt lat="52.254424458369613" lon="8.034668164327741">
        <ele>85.28125</ele>
        <time>2026-03-02T09:19:10Z</time>
      </trkpt>
      <trkpt lat="52.254193620756269" lon="8.034664895385504">
        <ele>85.52734375</ele>
        <time>2026-03-02T09:19:16Z</time>
      </trkpt>
      <trkpt lat="52.25395180284977" lon="8.034651232883334">
        <ele>85.71484375</ele>
        <time>2026-03-02T09:19:22Z</time>
      </trkpt>
      <trkpt lat="52.253690538927913" lon="8.034562552347779">
        <ele>85.65625</ele>
        <time>2026-03-02T09:19:28Z</time>
      </trkpt>
      <trkpt lat="52.25351451896131" lon="8.034459790214896">
        <ele>85.6484375</ele>
        <time>2026-03-02T09:19:32Z</time>
      </trkpt>
      <trkpt lat="52.253337325528264" lon="8.034360464662314">
        <ele>86.01953125</ele>
        <time>2026-03-02T09:19:36Z</time>
      </trkpt>
      <trkpt lat="52.25316365249455" lon="8.034254182130098">
        <ele>86.22265625</ele>
        <time>2026-03-02T09:19:40Z</time>
      </trkpt>
      <trkpt lat="52.252993332222104" lon="8.034153347834945">
        <ele>86.265625</ele>
        <time>2026-03-02T09:19:44Z</time>
      </trkpt>
      <trkpt lat="52.252824772149324" lon="8.034050585702062">
        <ele>86.22265625</ele>
        <time>2026-03-02T09:19:48Z</time>
      </trkpt>
      <trkpt lat="52.252569459378719" lon="8.033893257379532">
        <ele>86.75</ele>
        <time>2026-03-02T09:19:54Z</time>
      </trkpt>
      <trkpt lat="52.252389919012785" lon="8.033792087808251">
        <ele>86.9609375</ele>
        <time>2026-03-02T09:19:58Z</time>
      </trkpt>
      <trkpt lat="52.252217251807451" lon="8.033698042854667">
        <ele>86.83984375</ele>
        <time>2026-03-02T09:20:02Z</time>
      </trkpt>
      <trkpt lat="52.252046763896942" lon="8.033602237701416">
        <ele>86.875</ele>
        <time>2026-03-02T09:20:06Z</time>
      </trkpt>
      <trkpt lat="52.251869821920991" lon="8.033504420891404">
        <ele>87.046875</ele>
        <time>2026-03-02T09:20:10Z</time>
      </trkpt>
      <trkpt lat="52.251694472506642" lon="8.033386236056685">
        <ele>87.1328125</ele>
        <time>2026-03-02T09:20:14Z</time>
      </trkpt>
      <trkpt lat="52.251508729532361" lon="8.033270230516791">
        <ele>87.015625</ele>
        <time>2026-03-02T09:20:18Z</time>
      </trkpt>
      <trkpt lat="52.251325501129031" lon="8.033166965469718">
        <ele>86.921875</ele>
        <time>2026-03-02T09:20:22Z</time>
      </trkpt>
      <trkpt lat="52.251096423715353" lon="8.032985581085086">
        <ele>87.1796875</ele>
        <time>2026-03-02T09:20:28Z</time>
      </trkpt>
      <trkpt lat="52.250862149521708" lon="8.032796066254377">
        <ele>87.4375</ele>
        <time>2026-03-02T09:20:34Z</time>
      </trkpt>
      <trkpt lat="52.250696606934071" lon="8.032642342150211">
        <ele>87.86328125</ele>
        <time>2026-03-02T09:20:38Z</time>
      </trkpt>
      <trkpt lat="52.250534752383828" lon="8.03246003575623">
        <ele>87.9453125</ele>
        <time>2026-03-02T09:20:42Z</time>
      </trkpt>
      <trkpt lat="52.250356301665306" lon="8.032299857586622">
        <ele>87.84375</ele>
        <time>2026-03-02T09:20:46Z</time>
      </trkpt>
      <trkpt lat="52.250194447115064" lon="8.032142026349902">
        <ele>88.00390625</ele>
        <time>2026-03-02T09:20:50Z</time>
      </trkpt>
      <trkpt lat="52.249959837645292" lon="8.031935663893819">
        <ele>88.44921875</ele>
        <time>2026-03-02T09:20:56Z</time>
      </trkpt>
      <trkpt lat="52.24971734918654" lon="8.031709184870124">
        <ele>88.9375</ele>
        <time>2026-03-02T09:21:02Z</time>
      </trkpt>
      <trkpt lat="52.249533450230956" lon="8.031551940366626">
        <ele>89.27734375</ele>
        <time>2026-03-02T09:21:06Z</time>
      </trkpt>
      <trkpt lat="52.249357011169195" lon="8.031380865722895">
        <ele>89.6484375</ele>
        <time>2026-03-02T09:21:10Z</time>
      </trkpt>
      <trkpt lat="52.249184176325798" lon="8.031219011172652">
        <ele>89.99609375</ele>
        <time>2026-03-02T09:21:14Z</time>
      </trkpt>
      <trkpt lat="52.249007569625974" lon="8.031054474413395">
        <ele>90</ele>
        <time>2026-03-02T09:21:18Z</time>
      </trkpt>
      <trkpt lat="52.248827358707786" lon="8.03089446388185">
        <ele>90</ele>
        <time>2026-03-02T09:21:22Z</time>
      </trkpt>
      <trkpt lat="52.248667934909463" lon="8.030749624595046">
        <ele>90.01171875</ele>
        <time>2026-03-02T09:21:26Z</time>
      </trkpt>
      <trkpt lat="52.248442377895117" lon="8.030530940741301">
        <ele>90.484375</ele>
        <time>2026-03-02T09:21:32Z</time>
      </trkpt>
      <trkpt lat="52.24826954305172" lon="8.030388951301575">
        <ele>90.79296875</ele>
        <time>2026-03-02T09:21:36Z</time>
      </trkpt>
      <trkpt lat="52.248096372932196" lon="8.030229024589062">
        <ele>90.8359375</ele>
        <time>2026-03-02T09:21:40Z</time>
      </trkpt>
      <trkpt lat="52.247938541695476" lon="8.03005401045084">
        <ele>91.1796875</ele>
        <time>2026-03-02T09:21:44Z</time>
      </trkpt>
      <trkpt lat="52.247740225866437" lon="8.029828453436494">
        <ele>91.8828125</ele>
        <time>2026-03-02T09:21:50Z</time>
      </trkpt>
      <trkpt lat="52.247548028826714" lon="8.02954095415771">
        <ele>91.80078125</ele>
        <time>2026-03-02T09:21:56Z</time>
      </trkpt>
      <trkpt lat="52.247385839000344" lon="8.029304165393114">
        <ele>92.2421875</ele>
        <time>2026-03-02T09:22:02Z</time>
      </trkpt>
      <trkpt lat="52.247189451009035" lon="8.029056396335363">
        <ele>93.2421875</ele>
        <time>2026-03-02T09:22:08Z</time>
      </trkpt>
      <trkpt lat="52.247003875672817" lon="8.028882890939713">
        <ele>94.0078125</ele>
        <time>2026-03-02T09:22:14Z</time>
      </trkpt>
      <trkpt lat="52.246822407469153" lon="8.028703853487968">
        <ele>94.16796875</ele>
        <time>2026-03-02T09:22:20Z</time>
      </trkpt>
      <trkpt lat="52.246663486585021" lon="8.028496233746409">
        <ele>93.9375</ele>
        <time>2026-03-02T09:22:26Z</time>
      </trkpt>
      <trkpt lat="52.246511187404394" lon="8.028321303427219">
        <ele>93.53515625</ele>
        <time>2026-03-02T09:22:30Z</time>
      </trkpt>
      <trkpt lat="52.246305160224438" lon="8.028079066425562">
        <ele>94.3984375</ele>
        <time>2026-03-02T09:22:36Z</time>
      </trkpt>
      <trkpt lat="52.24611665122211" lon="8.027880918234587">
        <ele>95.94140625</ele>
        <time>2026-03-02T09:22:42Z</time>
      </trkpt>
      <trkpt lat="52.245897212997079" lon="8.027714788913727">
        <ele>97.203125</ele>
        <time>2026-03-02T09:22:48Z</time>
      </trkpt>
      <trkpt lat="52.245671320706606" lon="8.027495769783855">
        <ele>95.609375</ele>
        <time>2026-03-02T09:22:54Z</time>
      </trkpt>
      <trkpt lat="52.245485410094261" lon="8.027353193610907">
        <ele>94.37109375</ele>
        <time>2026-03-02T09:22:58Z</time>
      </trkpt>
      <trkpt lat="52.245250130072236" lon="8.027267027646303">
        <ele>94.26953125</ele>
        <time>2026-03-02T09:23:02Z</time>
      </trkpt>
      <trkpt lat="52.244998253881931" lon="8.027222603559494">
        <ele>94</ele>
        <time>2026-03-02T09:23:06Z</time>
      </trkpt>
      <trkpt lat="52.244696840643883" lon="8.0271808616817">
        <ele>94</ele>
        <time>2026-03-02T09:23:10Z</time>
      </trkpt>
      <trkpt lat="52.244417052716017" lon="8.027077428996563">
        <ele>94</ele>
        <time>2026-03-02T09:23:14Z</time>
      </trkpt>
      <trkpt lat="52.244212701916695" lon="8.026981623843312">
        <ele>94</ele>
        <time>2026-03-02T09:23:18Z</time>
      </trkpt>
      <trkpt lat="52.244035508483648" lon="8.026865283027291">
        <ele>93.94921875</ele>
        <time>2026-03-02T09:23:22Z</time>
      </trkpt>
      <trkpt lat="52.243854710832238" lon="8.02677777595818">
        <ele>93.69140625</ele>
        <time>2026-03-02T09:23:26Z</time>
      </trkpt>
      <trkpt lat="52.243670392781496" lon="8.026584656909108">
        <ele>93.0859375</ele>
        <time>2026-03-02T09:23:32Z</time>
      </trkpt>
      <trkpt lat="52.243816908448935" lon="8.026202274486423">
        <ele>93.40234375</ele>
        <time>2026-03-02T09:23:38Z</time>
      </trkpt>
      <trkpt lat="52.243904331699014" lon="8.025913517922163">
        <ele>93.86328125</ele>
        <time>2026-03-02T09:23:42Z</time>
      </trkpt>
      <trkpt lat="52.243988653644919" lon="8.025645967572928">
        <ele>94.5546875</ele>
        <time>2026-03-02T09:23:46Z</time>
      </trkpt>
      <trkpt lat="52.244101138785481" lon="8.025285713374615">
        <ele>95</ele>
        <time>2026-03-02T09:23:52Z</time>
      </trkpt>
      <trkpt lat="52.244200380519032" lon="8.025000728666782">
        <ele>95</ele>
        <time>2026-03-02T09:23:56Z</time>
      </trkpt>
      <trkpt lat="52.244306411594152" lon="8.024727813899517">
        <ele>95</ele>
        <time>2026-03-02T09:24:00Z</time>
      </trkpt>
      <trkpt lat="52.244395930320024" lon="8.024467891082168">
        <ele>95</ele>
        <time>2026-03-02T09:24:04Z</time>
      </trkpt>
      <trkpt lat="52.244479162618518" lon="8.024173937737942">
        <ele>94.9609375</ele>
        <time>2026-03-02T09:24:08Z</time>
      </trkpt>
      <trkpt lat="52.244574967771769" lon="8.023889707401395">
        <ele>94.96875</ele>
        <time>2026-03-02T09:24:12Z</time>
      </trkpt>
      <trkpt lat="52.244679238647223" lon="8.023606734350324">
        <ele>94.40625</ele>
        <time>2026-03-02T09:24:16Z</time>
      </trkpt>
      <trkpt lat="52.244767919182777" lon="8.023332059383392">
        <ele>94</ele>
        <time>2026-03-02T09:24:20Z</time>
      </trkpt>
      <trkpt lat="52.244822988286614" lon="8.023037267848849">
        <ele>94</ele>
        <time>2026-03-02T09:24:24Z</time>
      </trkpt>
      <trkpt lat="52.244808152318001" lon="8.022706937044859">
        <ele>94</ele>
        <time>2026-03-02T09:24:28Z</time>
      </trkpt>
      <trkpt lat="52.244802368804812" lon="8.022387837991118">
        <ele>94</ele>
        <time>2026-03-02T09:24:32Z</time>
      </trkpt>
      <trkpt lat="52.24476121366024" lon="8.02207225933671">
        <ele>94</ele>
        <time>2026-03-02T09:24:36Z</time>
      </trkpt>
      <trkpt lat="52.244679322466254" lon="8.021763050928712">
        <ele>94</ele>
        <time>2026-03-02T09:24:40Z</time>
      </trkpt>
      <trkpt lat="52.244576811790466" lon="8.021448142826557">
        <ele>94</ele>
        <time>2026-03-02T09:24:44Z</time>
      </trkpt>
      <trkpt lat="52.244495758786798" lon="8.021113201975822">
        <ele>93.98046875</ele>
        <time>2026-03-02T09:24:48Z</time>
      </trkpt>
      <trkpt lat="52.24441722035408" lon="8.020803993567824">
        <ele>94</ele>
        <time>2026-03-02T09:24:52Z</time>
      </trkpt>
      <trkpt lat="52.244319822639227" lon="8.020510459318757">
        <ele>94</ele>
        <time>2026-03-02T09:24:56Z</time>
      </trkpt>
      <trkpt lat="52.244222676381469" lon="8.020220948383212">
        <ele>94</ele>
        <time>2026-03-02T09:25:00Z</time>
      </trkpt>
      <trkpt lat="52.244131229817867" lon="8.019938813522458">
        <ele>94</ele>
        <time>2026-03-02T09:25:04Z</time>
      </trkpt>
      <trkpt lat="52.244053781032562" lon="8.01965743303299">
        <ele>93.9140625</ele>
        <time>2026-03-02T09:25:08Z</time>
      </trkpt>
      <trkpt lat="52.243983037769794" lon="8.019373789429665">
        <ele>93.76171875</ele>
        <time>2026-03-02T09:25:12Z</time>
      </trkpt>
      <trkpt lat="52.243905337527394" lon="8.01910825073719">
        <ele>93.41796875</ele>
        <time>2026-03-02T09:25:16Z</time>
      </trkpt>
      <trkpt lat="52.243719259276986" lon="8.018943965435028">
        <ele>92.6640625</ele>
        <time>2026-03-02T09:25:22Z</time>
      </trkpt>
      <trkpt lat="52.243487751111388" lon="8.019168516620994">
        <ele>92.0390625</ele>
        <time>2026-03-02T09:25:28Z</time>
      </trkpt>
      <trkpt lat="52.243371158838272" lon="8.019449813291431">
        <ele>91.6328125</ele>
        <time>2026-03-02T09:25:32Z</time>
      </trkpt>
      <trkpt lat="52.243213662877679" lon="8.019745107740164">
        <ele>91.5625</ele>
        <time>2026-03-02T09:25:36Z</time>
      </trkpt>
      <trkpt lat="52.243063542991877" lon="8.020036881789565">
        <ele>92.2890625</ele>
        <time>2026-03-02T09:25:40Z</time>
      </trkpt>
      <trkpt lat="52.242923397570848" lon="8.020270485430956">
        <ele>92.12109375</ele>
        <time>2026-03-02T09:25:44Z</time>
      </trkpt>
      <trkpt lat="52.242758860811591" lon="8.020536778494716">
        <ele>92.0390625</ele>
        <time>2026-03-02T09:25:50Z</time>
      </trkpt>
      <trkpt lat="52.242513271048665" lon="8.020864175632596">
        <ele>92.20703125</ele>
        <time>2026-03-02T09:25:56Z</time>
      </trkpt>
      <trkpt lat="52.242329875007272" lon="8.021106664091349">
        <ele>92.1875</ele>
        <time>2026-03-02T09:26:00Z</time>
      </trkpt>
      <trkpt lat="52.242108006030321" lon="8.021324425935745">
        <ele>91.70703125</ele>
        <time>2026-03-02T09:26:04Z</time>
      </trkpt>
      <trkpt lat="52.241917150095105" lon="8.021540930494666">
        <ele>91.296875</ele>
        <time>2026-03-02T09:26:08Z</time>
      </trkpt>
      <trkpt lat="52.241720762103796" lon="8.021759781986475">
        <ele>90.87109375</ele>
        <time>2026-03-02T09:26:12Z</time>
      </trkpt>
      <trkpt lat="52.241519847884774" lon="8.021967737004161">
        <ele>90.43359375</ele>
        <time>2026-03-02T09:26:16Z</time>
      </trkpt>
      <trkpt lat="52.241328489035368" lon="8.02218901924789">
        <ele>90.01171875</ele>
        <time>2026-03-02T09:26:20Z</time>
      </trkpt>
      <trkpt lat="52.24113704636693" lon="8.022412564605475">
        <ele>89.9765625</ele>
        <time>2026-03-02T09:26:24Z</time>
      </trkpt>
      <trkpt lat="52.240932192653418" lon="8.022647257894278">
        <ele>89.125</ele>
        <time>2026-03-02T09:26:28Z</time>
      </trkpt>
      <trkpt lat="52.240716107189655" lon="8.022876586765051">
        <ele>88.03125</ele>
        <time>2026-03-02T09:26:32Z</time>
      </trkpt>
      <trkpt lat="52.240505050867796" lon="8.023097366094589">
        <ele>87.66015625</ele>
        <time>2026-03-02T09:26:36Z</time>
      </trkpt>
      <trkpt lat="52.240271447226405" lon="8.023294676095247">
        <ele>87.08984375</ele>
        <time>2026-03-02T09:26:40Z</time>
      </trkpt>
      <trkpt lat="52.24007572978735" lon="8.023495590314269">
        <ele>87.5234375</ele>
        <time>2026-03-02T09:26:44Z</time>
      </trkpt>
      <trkpt lat="52.239907840266824" lon="8.023669263347983">
        <ele>88.37109375</ele>
        <time>2026-03-02T09:26:48Z</time>
      </trkpt>
      <trkpt lat="52.239707009866834" lon="8.023911919444799">
        <ele>89.1015625</ele>
        <time>2026-03-02T09:26:54Z</time>
      </trkpt>
      <trkpt lat="52.239547334611416" lon="8.024030942469835">
        <ele>89.38671875</ele>
        <time>2026-03-02T09:27:00Z</time>
      </trkpt>
      <trkpt lat="52.239349773153663" lon="8.02403018809855">
        <ele>89.34765625</ele>
        <time>2026-03-02T09:27:04Z</time>
      </trkpt>
      <trkpt lat="52.239164868369699" lon="8.024054327979684">
        <ele>89.1796875</ele>
        <time>2026-03-02T09:27:08Z</time>
      </trkpt>
      <trkpt lat="52.238900000229478" lon="8.024133453145623">
        <ele>89.15625</ele>
        <time>2026-03-02T09:27:14Z</time>
      </trkpt>
      <trkpt lat="52.238676119595766" lon="8.024077629670501">
        <ele>89.40234375</ele>
        <time>2026-03-02T09:27:20Z</time>
      </trkpt>
      <trkpt lat="52.238493477925658" lon="8.023997833952308">
        <ele>89.45703125</ele>
        <time>2026-03-02T09:27:24Z</time>
      </trkpt>
      <trkpt lat="52.238235985860229" lon="8.023969670757651">
        <ele>89.7734375</ele>
        <time>2026-03-02T09:27:30Z</time>
      </trkpt>
      <trkpt lat="52.238052170723677" lon="8.023962965235114">
        <ele>90.05859375</ele>
        <time>2026-03-02T09:27:34Z</time>
      </trkpt>
      <trkpt lat="52.237864164635539" lon="8.023940082639456">
        <ele>90.46484375</ele>
        <time>2026-03-02T09:27:38Z</time>
      </trkpt>
      <trkpt lat="52.237671297043562" lon="8.02393832243979">
        <ele>90.8828125</ele>
        <time>2026-03-02T09:27:42Z</time>
      </trkpt>
      <trkpt lat="52.237490834668279" lon="8.023931784555316">
        <ele>91.0703125</ele>
        <time>2026-03-02T09:27:46Z</time>
      </trkpt>
      <trkpt lat="52.237305510789156" lon="8.023924911394715">
        <ele>91.16015625</ele>
        <time>2026-03-02T09:27:50Z</time>
      </trkpt>
      <trkpt lat="52.237117672339082" lon="8.023899598047137">
        <ele>91.24609375</ele>
        <time>2026-03-02T09:27:54Z</time>
      </trkpt>
      <trkpt lat="52.236921451985836" lon="8.023885684087873">
        <ele>91.578125</ele>
        <time>2026-03-02T09:27:58Z</time>
      </trkpt>
      <trkpt lat="52.236729590222239" lon="8.023834973573685">
        <ele>91.921875</ele>
        <time>2026-03-02T09:28:02Z</time>
      </trkpt>
      <trkpt lat="52.236546780914068" lon="8.023829692974687">
        <ele>92.3125</ele>
        <time>2026-03-02T09:28:06Z</time>
      </trkpt>
      <trkpt lat="52.236293479800224" lon="8.023803625255823">
        <ele>92.859375</ele>
        <time>2026-03-02T09:28:12Z</time>
      </trkpt>
      <trkpt lat="52.236096169799566" lon="8.023674627766013">
        <ele>93</ele>
        <time>2026-03-02T09:28:18Z</time>
      </trkpt>
      <trkpt lat="52.23599374294281" lon="8.023265339434147">
        <ele>92.8125</ele>
        <time>2026-03-02T09:28:24Z</time>
      </trkpt>
      <trkpt lat="52.235950659960508" lon="8.022961411625147">
        <ele>92.15625</ele>
        <time>2026-03-02T09:28:28Z</time>
      </trkpt>
      <trkpt lat="52.235867930576205" lon="8.022537874057889">
        <ele>92</ele>
        <time>2026-03-02T09:28:34Z</time>
      </trkpt>
      <trkpt lat="52.235797187313437" lon="8.022200921550393">
        <ele>91.05859375</ele>
        <time>2026-03-02T09:28:38Z</time>
      </trkpt>
      <trkpt lat="52.235751422122121" lon="8.021909482777119">
        <ele>90.14453125</ele>
        <time>2026-03-02T09:28:41Z</time>
      </trkpt>
      <trkpt lat="52.235686965286732" lon="8.021462224423885">
        <ele>90.74609375</ele>
        <time>2026-03-02T09:28:45Z</time>
      </trkpt>
      <trkpt lat="52.235609348863363" lon="8.020986467599869">
        <ele>87.80859375</ele>
        <time>2026-03-02T09:28:49Z</time>
      </trkpt>
      <trkpt lat="52.235505748540163" lon="8.020480619743466">
        <ele>85.46484375</ele>
        <time>2026-03-02T09:28:53Z</time>
      </trkpt>
      <trkpt lat="52.235422097146511" lon="8.019947111606598">
        <ele>83.15625</ele>
        <time>2026-03-02T09:28:57Z</time>
      </trkpt>
      <trkpt lat="52.235360741615295" lon="8.019515443593264">
        <ele>81.9921875</ele>
        <time>2026-03-02T09:29:01Z</time>
      </trkpt>
      <trkpt lat="52.235358562320471" lon="8.019123002886772">
        <ele>81.078125</ele>
        <time>2026-03-02T09:29:05Z</time>
      </trkpt>
      <trkpt lat="52.235347079113126" lon="8.018724108114839">
        <ele>79.28515625</ele>
        <time>2026-03-02T09:29:09Z</time>
      </trkpt>
      <trkpt lat="52.235352778807282" lon="8.018333846703172">
        <ele>79.23046875</ele>
        <time>2026-03-02T09:29:13Z</time>
      </trkpt>
      <trkpt lat="52.235361831262708" lon="8.017885750159621">
        <ele>77.015625</ele>
        <time>2026-03-02T09:29:17Z</time>
      </trkpt>
      <trkpt lat="52.235398711636662" lon="8.017390882596374">
        <ele>76.4609375</ele>
        <time>2026-03-02T09:29:21Z</time>
      </trkpt>
      <trkpt lat="52.235447661951184" lon="8.016899116337299">
        <ele>75.97265625</ele>
        <time>2026-03-02T09:29:25Z</time>
      </trkpt>
      <trkpt lat="52.235486470162868" lon="8.016487983986735">
        <ele>75.859375</ele>
        <time>2026-03-02T09:29:29Z</time>
      </trkpt>
      <trkpt lat="52.235509771853685" lon="8.016132758930326">
        <ele>75.625</ele>
        <time>2026-03-02T09:29:33Z</time>
      </trkpt>
      <trkpt lat="52.235472807660699" lon="8.015766134485602">
        <ele>75.3671875</ele>
        <time>2026-03-02T09:29:37Z</time>
      </trkpt>
      <trkpt lat="52.235415140166879" lon="8.015428008511663">
        <ele>75.1171875</ele>
        <time>2026-03-02T09:29:41Z</time>
      </trkpt>
      <trkpt lat="52.235583197325468" lon="8.015210581943393">
        <ele>75.0078125</ele>
        <time>2026-03-02T09:29:45Z</time>
      </trkpt>
      <trkpt lat="52.235801042988896" lon="8.015076303854585">
        <ele>75.11328125</ele>
        <time>2026-03-02T09:29:49Z</time>
      </trkpt>
      <trkpt lat="52.236009417101741" lon="8.014932386577129">
        <ele>74.90625</ele>
        <time>2026-03-02T09:29:53Z</time>
      </trkpt>
      <trkpt lat="52.236206559464335" lon="8.014787966385484">
        <ele>74.9765625</ele>
        <time>2026-03-02T09:29:57Z</time>
      </trkpt>
      <trkpt lat="52.23641593940556" lon="8.014648491516709">
        <ele>74.74609375</ele>
        <time>2026-03-02T09:30:01Z</time>
      </trkpt>
      <trkpt lat="52.236629258841276" lon="8.014494767412543">
        <ele>74.11328125</ele>
        <time>2026-03-02T09:30:05Z</time>
      </trkpt>
      <trkpt lat="52.236856576055288" lon="8.014334086328745">
        <ele>74.18359375</ele>
        <time>2026-03-02T09:30:09Z</time>
      </trkpt>
      <trkpt lat="52.237093029543757" lon="8.014181535691023">
        <ele>74.15625</ele>
        <time>2026-03-02T09:30:13Z</time>
      </trkpt>
      <trkpt lat="52.237332919612527" lon="8.014036193490028">
        <ele>73.53125</ele>
        <time>2026-03-02T09:30:17Z</time>
      </trkpt>
      <trkpt lat="52.237573899328709" lon="8.013901496306062">
        <ele>73.0546875</ele>
        <time>2026-03-02T09:30:21Z</time>
      </trkpt>
      <trkpt lat="52.23781630396843" lon="8.013798398897052">
        <ele>73</ele>
        <time>2026-03-02T09:30:25Z</time>
      </trkpt>
      <trkpt lat="52.238025180995464" lon="8.013711059466004">
        <ele>73</ele>
        <time>2026-03-02T09:30:29Z</time>
      </trkpt>
      <trkpt lat="52.238236321136355" lon="8.013639729470015">
        <ele>73.00390625</ele>
        <time>2026-03-02T09:30:33Z</time>
      </trkpt>
      <trkpt lat="52.238465650007129" lon="8.013514168560505">
        <ele>72.95703125</ele>
        <time>2026-03-02T09:30:37Z</time>
      </trkpt>
      <trkpt lat="52.238693470135331" lon="8.013360947370529">
        <ele>73.328125</ele>
        <time>2026-03-02T09:30:41Z</time>
      </trkpt>
      <trkpt lat="52.238917266950011" lon="8.01318216137588">
        <ele>73.8125</ele>
        <time>2026-03-02T09:30:45Z</time>
      </trkpt>
      <trkpt lat="52.239140309393406" lon="8.01301846280694">
        <ele>73.765625</ele>
        <time>2026-03-02T09:30:49Z</time>
      </trkpt>
      <trkpt lat="52.239364525303245" lon="8.012868342921138">
        <ele>73.85546875</ele>
        <time>2026-03-02T09:30:53Z</time>
      </trkpt>
      <trkpt lat="52.239586813375354" lon="8.012686623260379">
        <ele>73.94921875</ele>
        <time>2026-03-02T09:30:57Z</time>
      </trkpt>
      <trkpt lat="52.239789152517915" lon="8.012490989640355">
        <ele>73.52734375</ele>
        <time>2026-03-02T09:31:01Z</time>
      </trkpt>
      <trkpt lat="52.239984283223748" lon="8.012271048501134">
        <ele>73.05078125</ele>
        <time>2026-03-02T09:31:05Z</time>
      </trkpt>
      <trkpt lat="52.24017295986414" lon="8.012061668559909">
        <ele>73.2109375</ele>
        <time>2026-03-02T09:31:09Z</time>
      </trkpt>
      <trkpt lat="52.240358367562294" lon="8.011871566995978">
        <ele>73.75390625</ele>
        <time>2026-03-02T09:31:13Z</time>
      </trkpt>
      <trkpt lat="52.240556180477142" lon="8.011681046336889">
        <ele>74.20703125</ele>
        <time>2026-03-02T09:31:17Z</time>
      </trkpt>
      <trkpt lat="52.240748880431056" lon="8.011471917852759">
        <ele>74.61328125</ele>
        <time>2026-03-02T09:31:21Z</time>
      </trkpt>
      <trkpt lat="52.240948788821697" lon="8.011310314759612">
        <ele>75.1796875</ele>
        <time>2026-03-02T09:31:25Z</time>
      </trkpt>
      <trkpt lat="52.241154480725527" lon="8.011192800477147">
        <ele>75.546875</ele>
        <time>2026-03-02T09:31:29Z</time>
      </trkpt>
      <trkpt lat="52.24135547876358" lon="8.011074280366302">
        <ele>76.04296875</ele>
        <time>2026-03-02T09:31:33Z</time>
      </trkpt>
      <trkpt lat="52.241556057706475" lon="8.010962130501866">
        <ele>76.40234375</ele>
        <time>2026-03-02T09:31:37Z</time>
      </trkpt>
      <trkpt lat="52.241759905591607" lon="8.010876132175326">
        <ele>76.921875</ele>
        <time>2026-03-02T09:31:41Z</time>
      </trkpt>
      <trkpt lat="52.241957550868392" lon="8.010816872119904">
        <ele>76.90625</ele>
        <time>2026-03-02T09:31:45Z</time>
      </trkpt>
      <trkpt lat="52.242160392925143" lon="8.010757779702544">
        <ele>76.78125</ele>
        <time>2026-03-02T09:31:49Z</time>
      </trkpt>
      <trkpt lat="52.242371533066034" lon="8.010686365887523">
        <ele>76.73046875</ele>
        <time>2026-03-02T09:31:53Z</time>
      </trkpt>
      <trkpt lat="52.242580326274037" lon="8.010613024234772">
        <ele>76.85546875</ele>
        <time>2026-03-02T09:31:57Z</time>
      </trkpt>
      <trkpt lat="52.242797920480371" lon="8.010518895462155">
        <ele>76.85546875</ele>
        <time>2026-03-02T09:32:01Z</time>
      </trkpt>
      <trkpt lat="52.243017610162497" lon="8.010425185784698">
        <ele>76.3671875</ele>
        <time>2026-03-02T09:32:05Z</time>
      </trkpt>
      <trkpt lat="52.243250710889697" lon="8.010335331782699">
        <ele>75.8671875</ele>
        <time>2026-03-02T09:32:09Z</time>
      </trkpt>
      <trkpt lat="52.243475429713726" lon="8.010236760601401">
        <ele>75.65234375</ele>
        <time>2026-03-02T09:32:13Z</time>
      </trkpt>
      <trkpt lat="52.243676679208875" lon="8.01008571870625">
        <ele>75.42578125</ele>
        <time>2026-03-02T09:32:17Z</time>
      </trkpt>
      <trkpt lat="52.243862254545093" lon="8.009899640455842">
        <ele>75.4609375</ele>
        <time>2026-03-02T09:32:21Z</time>
      </trkpt>
      <trkpt lat="52.244059648364782" lon="8.009709119796753">
        <ele>75.4765625</ele>
        <time>2026-03-02T09:32:25Z</time>
      </trkpt>
      <trkpt lat="52.244242709130049" lon="8.009532010182738">
        <ele>75.12890625</ele>
        <time>2026-03-02T09:32:29Z</time>
      </trkpt>
      <trkpt lat="52.244429793208838" lon="8.009357582777739">
        <ele>74.93359375</ele>
        <time>2026-03-02T09:32:33Z</time>
      </trkpt>
      <trkpt lat="52.244634227827191" lon="8.009248953312635">
        <ele>74.91796875</ele>
        <time>2026-03-02T09:32:37Z</time>
      </trkpt>
      <trkpt lat="52.244825167581439" lon="8.009192459285259">
        <ele>74.6484375</ele>
        <time>2026-03-02T09:32:41Z</time>
      </trkpt>
      <trkpt lat="52.245032200589776" lon="8.009123727679253">
        <ele>74.24609375</ele>
        <time>2026-03-02T09:32:45Z</time>
      </trkpt>
      <trkpt lat="52.245249878615141" lon="8.009059438481927">
        <ele>74.109375</ele>
        <time>2026-03-02T09:32:49Z</time>
      </trkpt>
      <trkpt lat="52.245454397052526" lon="8.009002022445202">
        <ele>73.984375</ele>
        <time>2026-03-02T09:32:53Z</time>
      </trkpt>
      <trkpt lat="52.245628489181399" lon="8.008864810690284">
        <ele>73.6875</ele>
        <time>2026-03-02T09:32:57Z</time>
      </trkpt>
      <trkpt lat="52.245763689279556" lon="8.008644534274936">
        <ele>73.2109375</ele>
        <time>2026-03-02T09:33:01Z</time>
      </trkpt>
      <trkpt lat="52.245795708149672" lon="8.008291991427541">
        <ele>73</ele>
        <time>2026-03-02T09:33:07Z</time>
      </trkpt>
      <trkpt lat="52.245649276301265" lon="8.008077833801508">
        <ele>72.98828125</ele>
        <time>2026-03-02T09:33:11Z</time>
      </trkpt>
      <trkpt lat="52.245503682643175" lon="8.007835345342755">
        <ele>72.46484375</ele>
        <time>2026-03-02T09:33:15Z</time>
      </trkpt>
      <trkpt lat="52.24536663852632" lon="8.007625797763467">
        <ele>72.2578125</ele>
        <time>2026-03-02T09:33:19Z</time>
      </trkpt>
      <trkpt lat="52.245210148394108" lon="8.007444497197866">
        <ele>72.140625</ele>
        <time>2026-03-02T09:33:23Z</time>
      </trkpt>
      <trkpt lat="52.24502457305789" lon="8.007103772833943">
        <ele>70.77734375</ele>
        <time>2026-03-02T09:33:29Z</time>
      </trkpt>
      <trkpt lat="52.244999259710312" lon="8.006795486435294">
        <ele>69.46484375</ele>
        <time>2026-03-02T09:33:33Z</time>
      </trkpt>
      <trkpt lat="52.245025830343366" lon="8.006477309390903">
        <ele>69.48828125</ele>
        <time>2026-03-02T09:33:37Z</time>
      </trkpt>
      <trkpt lat="52.24503924138844" lon="8.006092496216297">
        <ele>70.27734375</ele>
        <time>2026-03-02T09:33:41Z</time>
      </trkpt>
      <trkpt lat="52.245038822293282" lon="8.005781108513475">
        <ele>70.89453125</ele>
        <time>2026-03-02T09:33:45Z</time>
      </trkpt>
      <trkpt lat="52.245034798979759" lon="8.005459997802973">
        <ele>70.95703125</ele>
        <time>2026-03-02T09:33:49Z</time>
      </trkpt>
      <trkpt lat="52.245046617463231" lon="8.005008967593312">
        <ele>70.94140625</ele>
        <time>2026-03-02T09:33:53Z</time>
      </trkpt>
      <trkpt lat="52.245062040165067" lon="8.004639241844416">
        <ele>70.94921875</ele>
        <time>2026-03-02T09:33:57Z</time>
      </trkpt>
      <trkpt lat="52.245055334642529" lon="8.004307150840759">
        <ele>70.82421875</ele>
        <time>2026-03-02T09:34:01Z</time>
      </trkpt>
      <trkpt lat="52.245003283023834" lon="8.003936754539609">
        <ele>70.0703125</ele>
        <time>2026-03-02T09:34:07Z</time>
      </trkpt>
      <trkpt lat="52.244825502857566" lon="8.003810103982687">
        <ele>70.28125</ele>
        <time>2026-03-02T09:34:11Z</time>
      </trkpt>
      <trkpt lat="52.2447978425771" lon="8.003456890583038">
        <ele>69.95703125</ele>
        <time>2026-03-02T09:34:15Z</time>
      </trkpt>
      <trkpt lat="52.244790801778436" lon="8.003104515373707">
        <ele>69.98828125</ele>
        <time>2026-03-02T09:34:19Z</time>
      </trkpt>
      <trkpt lat="52.244791639968753" lon="8.002705201506615">
        <ele>69.984375</ele>
        <time>2026-03-02T09:34:23Z</time>
      </trkpt>
      <trkpt lat="52.24482080899179" lon="8.002335894852877">
        <ele>69.859375</ele>
        <time>2026-03-02T09:34:27Z</time>
      </trkpt>
      <trkpt lat="52.244874117895961" lon="8.001978658139706">
        <ele>69.82421875</ele>
        <time>2026-03-02T09:34:31Z</time>
      </trkpt>
      <trkpt lat="52.244910076260567" lon="8.001618655398488">
        <ele>70.4453125</ele>
        <time>2026-03-02T09:34:35Z</time>
      </trkpt>
      <trkpt lat="52.244917871430516" lon="8.001241553574801">
        <ele>70.61328125</ele>
        <time>2026-03-02T09:34:39Z</time>
      </trkpt>
      <trkpt lat="52.244922146201134" lon="8.000843245536089">
        <ele>70.62890625</ele>
        <time>2026-03-02T09:34:43Z</time>
      </trkpt>
      <trkpt lat="52.24493564106524" lon="8.000441249459982">
        <ele>70.44921875</ele>
        <time>2026-03-02T09:34:47Z</time>
      </trkpt>
      <trkpt lat="52.244997331872582" lon="8.000084850937128">
        <ele>70.3828125</ele>
        <time>2026-03-02T09:34:51Z</time>
      </trkpt>
      <trkpt lat="52.245083162561059" lon="7.999753514304757">
        <ele>70.7265625</ele>
        <time>2026-03-02T09:34:55Z</time>
      </trkpt>
      <trkpt lat="52.245127838104963" lon="7.99941211938858">
        <ele>70.70703125</ele>
        <time>2026-03-02T09:34:59Z</time>
      </trkpt>
      <trkpt lat="52.245111158117652" lon="7.999059492722154">
        <ele>70.80078125</ele>
        <time>2026-03-02T09:35:03Z</time>
      </trkpt>
      <trkpt lat="52.245098249986768" lon="7.998675853013992">
        <ele>70.49609375</ele>
        <time>2026-03-02T09:35:07Z</time>
      </trkpt>
      <trkpt lat="52.245071511715651" lon="7.998295817524195">
        <ele>70.0234375</ele>
        <time>2026-03-02T09:35:11Z</time>
      </trkpt>
      <trkpt lat="52.245043767616153" lon="7.997908992692828">
        <ele>70.88671875</ele>
        <time>2026-03-02T09:35:15Z</time>
      </trkpt>
      <trkpt lat="52.244997331872582" lon="7.997531136497855">
        <ele>71.09375</ele>
        <time>2026-03-02T09:35:19Z</time>
      </trkpt>
      <trkpt lat="52.244975958019495" lon="7.997147915884852">
        <ele>71.1875</ele>
        <time>2026-03-02T09:35:23Z</time>
      </trkpt>
      <trkpt lat="52.244929438456893" lon="7.996762935072184">
        <ele>71.390625</ele>
        <time>2026-03-02T09:35:27Z</time>
      </trkpt>
      <trkpt lat="52.244879230856895" lon="7.996385414153338">
        <ele>71.40625</ele>
        <time>2026-03-02T09:35:31Z</time>
      </trkpt>
      <trkpt lat="52.244835142046213" lon="7.99602834507823">
        <ele>71.1953125</ele>
        <time>2026-03-02T09:35:35Z</time>
      </trkpt>
      <trkpt lat="52.244808655232191" lon="7.995703713968396">
        <ele>71.3671875</ele>
        <time>2026-03-02T09:35:39Z</time>
      </trkpt>
      <trkpt lat="52.244771858677268" lon="7.995356032624841">
        <ele>71.33203125</ele>
        <time>2026-03-02T09:35:43Z</time>
      </trkpt>
      <trkpt lat="52.244742857292295" lon="7.994999466463924">
        <ele>71.1953125</ele>
        <time>2026-03-02T09:35:47Z</time>
      </trkpt>
      <trkpt lat="52.244714107364416" lon="7.994648097082973">
        <ele>71.3203125</ele>
        <time>2026-03-02T09:35:51Z</time>
      </trkpt>
      <trkpt lat="52.244685357436538" lon="7.994266552850604">
        <ele>71.4453125</ele>
        <time>2026-03-02T09:35:55Z</time>
      </trkpt>
      <trkpt lat="52.244637664407492" lon="7.993925325572491">
        <ele>71.6484375</ele>
        <time>2026-03-02T09:35:59Z</time>
      </trkpt>
      <trkpt lat="52.244610674679279" lon="7.993552414700389">
        <ele>71.765625</ele>
        <time>2026-03-02T09:36:03Z</time>
      </trkpt>
      <trkpt lat="52.244574800133705" lon="7.993189310654998">
        <ele>71.73828125</ele>
        <time>2026-03-02T09:36:07Z</time>
      </trkpt>
      <trkpt lat="52.244524005800486" lon="7.992826793342829">
        <ele>71.16796875</ele>
        <time>2026-03-02T09:36:11Z</time>
      </trkpt>
      <trkpt lat="52.244490729644895" lon="7.992448601871729">
        <ele>70.60546875</ele>
        <time>2026-03-02T09:36:15Z</time>
      </trkpt>
      <trkpt lat="52.244458040222526" lon="7.992081642150879">
        <ele>70.515625</ele>
        <time>2026-03-02T09:36:19Z</time>
      </trkpt>
      <trkpt lat="52.244409173727036" lon="7.991711748763919">
        <ele>70.390625</ele>
        <time>2026-03-02T09:36:23Z</time>
      </trkpt>
      <trkpt lat="52.244359888136387" lon="7.991328192874789">
        <ele>70</ele>
        <time>2026-03-02T09:36:27Z</time>
      </trkpt>
      <trkpt lat="52.244322840124369" lon="7.990960981696844">
        <ele>69.99609375</ele>
        <time>2026-03-02T09:36:31Z</time>
      </trkpt>
      <trkpt lat="52.244287552312016" lon="7.990582790225744">
        <ele>69.65625</ele>
        <time>2026-03-02T09:36:35Z</time>
      </trkpt>
      <trkpt lat="52.244254527613521" lon="7.990223625674844">
        <ele>69.65234375</ele>
        <time>2026-03-02T09:36:39Z</time>
      </trkpt>
      <trkpt lat="52.244220580905676" lon="7.989865550771356">
        <ele>69.7265625</ele>
        <time>2026-03-02T09:36:43Z</time>
      </trkpt>
      <trkpt lat="52.24419048987329" lon="7.989515606313944">
        <ele>69.79296875</ele>
        <time>2026-03-02T09:36:47Z</time>
      </trkpt>
      <trkpt lat="52.244158051908016" lon="7.989143030717969">
        <ele>69.86328125</ele>
        <time>2026-03-02T09:36:51Z</time>
      </trkpt>
      <trkpt lat="52.244123686105013" lon="7.988796522840858">
        <ele>69.9375</ele>
        <time>2026-03-02T09:36:55Z</time>
      </trkpt>
      <trkpt lat="52.24408496171236" lon="7.988448506221175">
        <ele>70.01953125</ele>
        <time>2026-03-02T09:36:59Z</time>
      </trkpt>
      <trkpt lat="52.244043219834566" lon="7.988099064677954">
        <ele>70.109375</ele>
        <time>2026-03-02T09:37:03Z</time>
      </trkpt>
      <trkpt lat="52.244011703878641" lon="7.987756747752428">
        <ele>70.1796875</ele>
        <time>2026-03-02T09:37:07Z</time>
      </trkpt>
      <trkpt lat="52.243979098275304" lon="7.987428931519389">
        <ele>70.08984375</ele>
        <time>2026-03-02T09:37:11Z</time>
      </trkpt>
      <trkpt lat="52.243946241214871" lon="7.987102875486016">
        <ele>70</ele>
        <time>2026-03-02T09:37:15Z</time>
      </trkpt>
      <trkpt lat="52.243912294507027" lon="7.986765336245298">
        <ele>70</ele>
        <time>2026-03-02T09:37:19Z</time>
      </trkpt>
      <trkpt lat="52.243817998096347" lon="7.986470879986882">
        <ele>70</ele>
        <time>2026-03-02T09:37:23Z</time>
      </trkpt>
      <trkpt lat="52.243694365024567" lon="7.986212465912104">
        <ele>70</ele>
        <time>2026-03-02T09:37:27Z</time>
      </trkpt>
      <trkpt lat="52.243562182411551" lon="7.985949274152517">
        <ele>70.0234375</ele>
        <time>2026-03-02T09:37:31Z</time>
      </trkpt>
      <trkpt lat="52.243422539904714" lon="7.985695553943515">
        <ele>70</ele>
        <time>2026-03-02T09:37:35Z</time>
      </trkpt>
      <trkpt lat="52.243293877691031" lon="7.985461531206965">
        <ele>70</ele>
        <time>2026-03-02T09:37:39Z</time>
      </trkpt>
      <trkpt lat="52.243165718391538" lon="7.985218456014991">
        <ele>70.41796875</ele>
        <time>2026-03-02T09:37:43Z</time>
      </trkpt>
      <trkpt lat="52.243054658174515" lon="7.984986361116171">
        <ele>70.6953125</ele>
        <time>2026-03-02T09:37:47Z</time>
      </trkpt>
      <trkpt lat="52.242916105315089" lon="7.984664998948574">
        <ele>71.40625</ele>
        <time>2026-03-02T09:37:53Z</time>
      </trkpt>
      <trkpt lat="52.243122551590204" lon="7.984540611505508">
        <ele>71.87109375</ele>
        <time>2026-03-02T09:37:59Z</time>
      </trkpt>
      <trkpt lat="52.243359591811895" lon="7.984603308141232">
        <ele>71.44140625</ele>
        <time>2026-03-02T09:38:05Z</time>
      </trkpt>
      <trkpt lat="52.243587411940098" lon="7.984672291204333">
        <ele>71.05859375</ele>
        <time>2026-03-02T09:38:11Z</time>
      </trkpt>
      <trkpt lat="52.243806598708034" lon="7.9847551882267">
        <ele>71.21875</ele>
        <time>2026-03-02T09:38:17Z</time>
      </trkpt>
      <trkpt lat="52.244062330573797" lon="7.984836744144559">
        <ele>71.703125</ele>
        <time>2026-03-02T09:38:23Z</time>
      </trkpt>
      <trkpt lat="52.244263831526041" lon="7.984892567619681">
        <ele>71.875</ele>
        <time>2026-03-02T09:38:27Z</time>
      </trkpt>
      <trkpt lat="52.244516210630536" lon="7.984978733584285">
        <ele>71.875</ele>
        <time>2026-03-02T09:38:31Z</time>
      </trkpt>
      <trkpt lat="52.244811002165079" lon="7.98506154678762">
        <ele>71.09765625</ele>
        <time>2026-03-02T09:38:35Z</time>
      </trkpt>
      <trkpt lat="52.245115097612143" lon="7.985167242586613">
        <ele>70.73828125</ele>
        <time>2026-03-02T09:38:39Z</time>
      </trkpt>
      <trkpt lat="52.24544819444418" lon="7.985210828483105">
        <ele>71.36328125</ele>
        <time>2026-03-02T09:38:43Z</time>
      </trkpt>
      <trkpt lat="52.245760504156351" lon="7.985095577314496">
        <ele>71.68359375</ele>
        <time>2026-03-02T09:38:47Z</time>
      </trkpt>
      <trkpt lat="52.246027300134301" lon="7.984985606744885">
        <ele>71.7421875</ele>
        <time>2026-03-02T09:38:51Z</time>
      </trkpt>
      <trkpt lat="52.246265849098563" lon="7.984892567619681">
        <ele>71.4296875</ele>
        <time>2026-03-02T09:38:55Z</time>
      </trkpt>
      <trkpt lat="52.246518479660153" lon="7.984849400818348">
        <ele>71.02734375</ele>
        <time>2026-03-02T09:38:59Z</time>
      </trkpt>
      <trkpt lat="52.246766919270158" lon="7.9848553519696">
        <ele>70.5859375</ele>
        <time>2026-03-02T09:39:03Z</time>
      </trkpt>
      <trkpt lat="52.247012257575989" lon="7.984928777441382">
        <ele>70.078125</ele>
        <time>2026-03-02T09:39:07Z</time>
      </trkpt>
      <trkpt lat="52.247258182615042" lon="7.985000610351563">
        <ele>70</ele>
        <time>2026-03-02T09:39:11Z</time>
      </trkpt>
      <trkpt lat="52.247523218393326" lon="7.984967669472098">
        <ele>69.984375</ele>
        <time>2026-03-02T09:39:15Z</time>
      </trkpt>
      <trkpt lat="52.247767802327871" lon="7.984845293685794">
        <ele>70.2265625</ele>
        <time>2026-03-02T09:39:19Z</time>
      </trkpt>
      <trkpt lat="52.247981708496809" lon="7.984720906242728">
        <ele>70.49609375</ele>
        <time>2026-03-02T09:39:23Z</time>
      </trkpt>
      <trkpt lat="52.2482153121382" lon="7.98458562232554">
        <ele>70.78515625</ele>
        <time>2026-03-02T09:39:29Z</time>
      </trkpt>
      <trkpt lat="52.248135600239038" lon="7.984367106109858">
        <ele>71.0703125</ele>
        <time>2026-03-02T09:39:35Z</time>
      </trkpt>
      <trkpt lat="52.247968297451735" lon="7.984153954312205">
        <ele>71.44921875</ele>
        <time>2026-03-02T09:39:39Z</time>
      </trkpt>
      <trkpt lat="52.247817255556583" lon="7.98391280695796">
        <ele>71.9765625</ele>
        <time>2026-03-02T09:39:43Z</time>
      </trkpt>
      <trkpt lat="52.247687671333551" lon="7.983676102012396">
        <ele>72.17578125</ele>
        <time>2026-03-02T09:39:47Z</time>
      </trkpt>
      <trkpt lat="52.247534869238734" lon="7.983368402346969">
        <ele>73.109375</ele>
        <time>2026-03-02T09:39:53Z</time>
      </trkpt>
      <trkpt lat="52.247389191761613" lon="7.98303279094398">
        <ele>73.38671875</ele>
        <time>2026-03-02T09:39:59Z</time>
      </trkpt>
      <trkpt lat="52.247287267819047" lon="7.982770772650838">
        <ele>73.640625</ele>
        <time>2026-03-02T09:40:03Z</time>
      </trkpt>
      <trkpt lat="52.247173357754946" lon="7.982495427131653">
        <ele>73.9609375</ele>
        <time>2026-03-02T09:40:07Z</time>
      </trkpt>
      <trkpt lat="52.247061878442764" lon="7.982242377474904">
        <ele>74.265625</ele>
        <time>2026-03-02T09:40:11Z</time>
      </trkpt>
      <trkpt lat="52.246919050812721" lon="7.982015479356051">
        <ele>74.10546875</ele>
        <time>2026-03-02T09:40:15Z</time>
      </trkpt>
      <trkpt lat="52.246745713055134" lon="7.981766620650888">
        <ele>73.4609375</ele>
        <time>2026-03-02T09:40:19Z</time>
      </trkpt>
      <trkpt lat="52.246564915403724" lon="7.981485491618514">
        <ele>72.02734375</ele>
        <time>2026-03-02T09:40:23Z</time>
      </trkpt>
      <trkpt lat="52.246380597352982" lon="7.981182485818863">
        <ele>70.80859375</ele>
        <time>2026-03-02T09:40:27Z</time>
      </trkpt>
      <trkpt lat="52.246210277080536" lon="7.980861458927393">
        <ele>70.09375</ele>
        <time>2026-03-02T09:40:31Z</time>
      </trkpt>
      <trkpt lat="52.246057139709592" lon="7.980568427592516">
        <ele>70</ele>
        <time>2026-03-02T09:40:35Z</time>
      </trkpt>
      <trkpt lat="52.245925208553672" lon="7.980320490896702">
        <ele>69.99609375</ele>
        <time>2026-03-02T09:40:39Z</time>
      </trkpt>
      <trkpt lat="52.245787661522627" lon="7.980069788172841">
        <ele>69.453125</ele>
        <time>2026-03-02T09:40:43Z</time>
      </trkpt>
      <trkpt lat="52.245633099228144" lon="7.979790419340134">
        <ele>69</ele>
        <time>2026-03-02T09:40:47Z</time>
      </trkpt>
      <trkpt lat="52.245498653501272" lon="7.97946042381227">
        <ele>69</ele>
        <time>2026-03-02T09:40:51Z</time>
      </trkpt>
      <trkpt lat="52.245377451181412" lon="7.979147275909782">
        <ele>69</ele>
        <time>2026-03-02T09:40:57Z</time>
      </trkpt>
      <trkpt lat="52.245288770645857" lon="7.978828344494104">
        <ele>68.8671875</ele>
        <time>2026-03-02T09:41:03Z</time>
      </trkpt>
      <trkpt lat="52.245177291333675" lon="7.978539923205972">
        <ele>68.70703125</ele>
        <time>2026-03-02T09:41:07Z</time>
      </trkpt>
      <trkpt lat="52.245057011023164" lon="7.978251669555903">
        <ele>68.91796875</ele>
        <time>2026-03-02T09:41:11Z</time>
      </trkpt>
      <trkpt lat="52.24497034214437" lon="7.977992417290807">
        <ele>69</ele>
        <time>2026-03-02T09:41:15Z</time>
      </trkpt>
      <trkpt lat="52.24487068131566" lon="7.977736853063107">
        <ele>69</ele>
        <time>2026-03-02T09:41:19Z</time>
      </trkpt>
      <trkpt lat="52.244756771251559" lon="7.977467207238078">
        <ele>69</ele>
        <time>2026-03-02T09:41:23Z</time>
      </trkpt>
      <trkpt lat="52.244630539789796" lon="7.97714383341372">
        <ele>69</ele>
        <time>2026-03-02T09:41:29Z</time>
      </trkpt>
      <trkpt lat="52.244509253650904" lon="7.976846024394035">
        <ele>69.4609375</ele>
        <time>2026-03-02T09:41:35Z</time>
      </trkpt>
      <trkpt lat="52.244614027440548" lon="7.976681152358651">
        <ele>69.76171875</ele>
        <time>2026-03-02T09:41:43Z</time>
      </trkpt>
      <trkpt lat="52.244770601391792" lon="7.976525081321597">
        <ele>69.42578125</ele>
        <time>2026-03-02T09:41:47Z</time>
      </trkpt>
      <trkpt lat="52.244927929714322" lon="7.976317377761006">
        <ele>69.06640625</ele>
        <time>2026-03-02T09:41:51Z</time>
      </trkpt>
      <trkpt lat="52.245081150904298" lon="7.976083355024457">
        <ele>68.8359375</ele>
        <time>2026-03-02T09:41:55Z</time>
      </trkpt>
      <trkpt lat="52.245231941342354" lon="7.975844135507941">
        <ele>68.3203125</ele>
        <time>2026-03-02T09:41:59Z</time>
      </trkpt>
      <trkpt lat="52.245379630476236" lon="7.97559829428792">
        <ele>68</ele>
        <time>2026-03-02T09:42:03Z</time>
      </trkpt>
      <trkpt lat="52.245533270761371" lon="7.975363517180085">
        <ele>68</ele>
        <time>2026-03-02T09:42:07Z</time>
      </trkpt>
      <trkpt lat="52.245698310434818" lon="7.975109796971083">
        <ele>68</ele>
        <time>2026-03-02T09:42:11Z</time>
      </trkpt>
      <trkpt lat="52.245852118358016" lon="7.974856998771429">
        <ele>68</ele>
        <time>2026-03-02T09:42:15Z</time>
      </trkpt>
      <trkpt lat="52.246023109182715" lon="7.974585508927703">
        <ele>68</ele>
        <time>2026-03-02T09:42:19Z</time>
      </trkpt>
      <trkpt lat="52.246184460818768" lon="7.974330447614193">
        <ele>68</ele>
        <time>2026-03-02T09:42:23Z</time>
      </trkpt>
      <trkpt lat="52.246350338682532" lon="7.974072452634573">
        <ele>68</ele>
        <time>2026-03-02T09:42:27Z</time>
      </trkpt>
      <trkpt lat="52.246506661176682" lon="7.973820744082332">
        <ele>67.98828125</ele>
        <time>2026-03-02T09:42:31Z</time>
      </trkpt>
      <trkpt lat="52.246666420251131" lon="7.973592672497034">
        <ele>67.6953125</ele>
        <time>2026-03-02T09:42:35Z</time>
      </trkpt>
      <trkpt lat="52.246836656704545" lon="7.973334258422256">
        <ele>67.16796875</ele>
        <time>2026-03-02T09:42:39Z</time>
      </trkpt>
      <trkpt lat="52.246996248140931" lon="7.973069390282035">
        <ele>67.4921875</ele>
        <time>2026-03-02T09:42:43Z</time>
      </trkpt>
      <trkpt lat="52.24716279655695" lon="7.972820280119777">
        <ele>67.3671875</ele>
        <time>2026-03-02T09:42:47Z</time>
      </trkpt>
      <trkpt lat="52.247329261153936" lon="7.972561698406935">
        <ele>67.0078125</ele>
        <time>2026-03-02T09:42:51Z</time>
      </trkpt>
      <trkpt lat="52.247492289170623" lon="7.972315102815628">
        <ele>67.30859375</ele>
        <time>2026-03-02T09:42:55Z</time>
      </trkpt>
      <trkpt lat="52.247655149549246" lon="7.97206305898726">
        <ele>67.8515625</ele>
        <time>2026-03-02T09:42:59Z</time>
      </trkpt>
      <trkpt lat="52.247825302183628" lon="7.971817133948207">
        <ele>67.93359375</ele>
        <time>2026-03-02T09:43:03Z</time>
      </trkpt>
      <trkpt lat="52.24799788556993" lon="7.971591409295797">
        <ele>67.5625</ele>
        <time>2026-03-02T09:43:07Z</time>
      </trkpt>
      <trkpt lat="52.248162589967251" lon="7.971366858109832">
        <ele>67.48828125</ele>
        <time>2026-03-02T09:43:11Z</time>
      </trkpt>
      <trkpt lat="52.248328467831016" lon="7.971138618886471">
        <ele>67.8515625</ele>
        <time>2026-03-02T09:43:15Z</time>
      </trkpt>
      <trkpt lat="52.248488562181592" lon="7.970920689404011">
        <ele>68</ele>
        <time>2026-03-02T09:43:19Z</time>
      </trkpt>
      <trkpt lat="52.248647902160883" lon="7.970703095197678">
        <ele>68</ele>
        <time>2026-03-02T09:43:23Z</time>
      </trkpt>
      <trkpt lat="52.24880120716989" lon="7.970493379980326">
        <ele>67.828125</ele>
        <time>2026-03-02T09:43:27Z</time>
      </trkpt>
      <trkpt lat="52.248944872990251" lon="7.970286011695862">
        <ele>67.515625</ele>
        <time>2026-03-02T09:43:31Z</time>
      </trkpt>
      <trkpt lat="52.249132292345166" lon="7.97004209831357">
        <ele>67.109375</ele>
        <time>2026-03-02T09:43:37Z</time>
      </trkpt>
      <trkpt lat="52.249223990365863" lon="7.96976306475699">
        <ele>67</ele>
        <time>2026-03-02T09:43:43Z</time>
      </trkpt>
      <trkpt lat="52.249133214354515" lon="7.969467015936971">
        <ele>67.05859375</ele>
        <time>2026-03-02T09:43:47Z</time>
      </trkpt>
      <trkpt lat="52.248996337875724" lon="7.969171386212111">
        <ele>67</ele>
        <time>2026-03-02T09:43:51Z</time>
      </trkpt>
      <trkpt lat="52.248833645135164" lon="7.968973657116294">
        <ele>67</ele>
        <time>2026-03-02T09:43:55Z</time>
      </trkpt>
      <trkpt lat="52.248654691502452" lon="7.96880098991096">
        <ele>67.14453125</ele>
        <time>2026-03-02T09:43:59Z</time>
      </trkpt>
      <trkpt lat="52.248481102287769" lon="7.96863435767591">
        <ele>67.64453125</ele>
        <time>2026-03-02T09:44:03Z</time>
      </trkpt>
      <trkpt lat="52.248308937996626" lon="7.968454901129007">
        <ele>67.9609375</ele>
        <time>2026-03-02T09:44:07Z</time>
      </trkpt>
      <trkpt lat="52.248138701543212" lon="7.968296315521002">
        <ele>68</ele>
        <time>2026-03-02T09:44:11Z</time>
      </trkpt>
      <trkpt lat="52.247974751517177" lon="7.968128342181444">
        <ele>68.21875</ele>
        <time>2026-03-02T09:44:15Z</time>
      </trkpt>
      <trkpt lat="52.24781708791852" lon="7.967936815693975">
        <ele>68.734375</ele>
        <time>2026-03-02T09:44:19Z</time>
      </trkpt>
      <trkpt lat="52.247670153155923" lon="7.967760795727372">
        <ele>68.73046875</ele>
        <time>2026-03-02T09:44:23Z</time>
      </trkpt>
      <trkpt lat="52.247513830661774" lon="7.967567844316363">
        <ele>68.390625</ele>
        <time>2026-03-02T09:44:27Z</time>
      </trkpt>
      <trkpt lat="52.247345354408026" lon="7.967354608699679">
        <ele>68.02734375</ele>
        <time>2026-03-02T09:44:31Z</time>
      </trkpt>
      <trkpt lat="52.247187858447433" lon="7.967157047241926">
        <ele>68</ele>
        <time>2026-03-02T09:44:35Z</time>
      </trkpt>
      <trkpt lat="52.247042851522565" lon="7.966932915151119">
        <ele>68</ele>
        <time>2026-03-02T09:44:39Z</time>
      </trkpt>
      <trkpt lat="52.246910501271486" lon="7.966693192720413">
        <ele>68</ele>
        <time>2026-03-02T09:44:43Z</time>
      </trkpt>
      <trkpt lat="52.246824251487851" lon="7.966417176648974">
        <ele>68.09375</ele>
        <time>2026-03-02T09:44:47Z</time>
      </trkpt>
      <trkpt lat="52.246750071644783" lon="7.966117020696402">
        <ele>68.078125</ele>
        <time>2026-03-02T09:44:51Z</time>
      </trkpt>
      <trkpt lat="52.24669667892158" lon="7.965790294110775">
        <ele>68</ele>
        <time>2026-03-02T09:44:55Z</time>
      </trkpt>
      <trkpt lat="52.246645716950297" lon="7.965470105409622">
        <ele>68</ele>
        <time>2026-03-02T09:44:59Z</time>
      </trkpt>
      <trkpt lat="52.246585618704557" lon="7.965149916708469">
        <ele>68</ele>
        <time>2026-03-02T09:45:03Z</time>
      </trkpt>
      <trkpt lat="52.246534740552306" lon="7.964837187901139">
        <ele>68</ele>
        <time>2026-03-02T09:45:07Z</time>
      </trkpt>
      <trkpt lat="52.246476653963327" lon="7.96451473608613">
        <ele>68</ele>
        <time>2026-03-02T09:45:11Z</time>
      </trkpt>
      <trkpt lat="52.246424183249474" lon="7.964178370311856">
        <ele>68</ele>
        <time>2026-03-02T09:45:15Z</time>
      </trkpt>
      <trkpt lat="52.246390571817756" lon="7.963835801929236">
        <ele>68.07421875</ele>
        <time>2026-03-02T09:45:19Z</time>
      </trkpt>
      <trkpt lat="52.246327791363001" lon="7.963528102263808">
        <ele>68.29296875</ele>
        <time>2026-03-02T09:45:23Z</time>
      </trkpt>
      <trkpt lat="52.246276997029781" lon="7.963234484195709">
        <ele>68.30078125</ele>
        <time>2026-03-02T09:45:27Z</time>
      </trkpt>
      <trkpt lat="52.246184041723609" lon="7.962958384305239">
        <ele>68.7578125</ele>
        <time>2026-03-02T09:45:31Z</time>
      </trkpt>
      <trkpt lat="52.246065940707922" lon="7.962723691016436">
        <ele>69</ele>
        <time>2026-03-02T09:45:35Z</time>
      </trkpt>
      <trkpt lat="52.245939038693905" lon="7.962512886151671">
        <ele>69.0078125</ele>
        <time>2026-03-02T09:45:39Z</time>
      </trkpt>
      <trkpt lat="52.24582253023982" lon="7.962281545624137">
        <ele>69.26171875</ele>
        <time>2026-03-02T09:45:43Z</time>
      </trkpt>
      <trkpt lat="52.245691940188408" lon="7.962055234238505">
        <ele>69.28125</ele>
        <time>2026-03-02T09:45:47Z</time>
      </trkpt>
      <trkpt lat="52.24556596018374" lon="7.961829425767064">
        <ele>69.0234375</ele>
        <time>2026-03-02T09:45:51Z</time>
      </trkpt>
      <trkpt lat="52.245432771742344" lon="7.961611663922668">
        <ele>69.10546875</ele>
        <time>2026-03-02T09:45:55Z</time>
      </trkpt>
      <trkpt lat="52.245308719575405" lon="7.961382670328021">
        <ele>69.375</ele>
        <time>2026-03-02T09:45:59Z</time>
      </trkpt>
      <trkpt lat="52.245116354897618" lon="7.961084274575114">
        <ele>69.7890625</ele>
        <time>2026-03-02T09:46:05Z</time>
      </trkpt>
      <trkpt lat="52.244944861158729" lon="7.960774060338736">
        <ele>70.16015625</ele>
        <time>2026-03-02T09:46:11Z</time>
      </trkpt>
      <trkpt lat="52.244780408218503" lon="7.960452614352107">
        <ele>70.515625</ele>
        <time>2026-03-02T09:46:17Z</time>
      </trkpt>
      <trkpt lat="52.244598604738712" lon="7.960169054567814">
        <ele>70.9609375</ele>
        <time>2026-03-02T09:46:23Z</time>
      </trkpt>
      <trkpt lat="52.244422333315015" lon="7.959855487570167">
        <ele>71.2890625</ele>
        <time>2026-03-02T09:46:29Z</time>
      </trkpt>
      <trkpt lat="52.244247235357761" lon="7.959565473720431">
        <ele>71.66796875</ele>
        <time>2026-03-02T09:46:35Z</time>
      </trkpt>
      <trkpt lat="52.244068030267954" lon="7.959289373829961">
        <ele>72.0546875</ele>
        <time>2026-03-02T09:46:41Z</time>
      </trkpt>
      <trkpt lat="52.243901062756777" lon="7.95896046794951">
        <ele>72.5859375</ele>
        <time>2026-03-02T09:46:47Z</time>
      </trkpt>
      <trkpt lat="52.243743566796184" lon="7.958690822124481">
        <ele>73.51171875</ele>
        <time>2026-03-02T09:46:53Z</time>
      </trkpt>
      <trkpt lat="52.243568887934089" lon="7.958408854901791">
        <ele>74.36328125</ele>
        <time>2026-03-02T09:46:59Z</time>
      </trkpt>
      <trkpt lat="52.243384318426251" lon="7.958148093894124">
        <ele>74.92578125</ele>
        <time>2026-03-02T09:47:05Z</time>
      </trkpt>
      <trkpt lat="52.243227828294039" lon="7.957823881879449">
        <ele>75</ele>
        <time>2026-03-02T09:47:11Z</time>
      </trkpt>
      <trkpt lat="52.243086090311408" lon="7.957536550238729">
        <ele>75.3828125</ele>
        <time>2026-03-02T09:47:17Z</time>
      </trkpt>
      <trkpt lat="52.24292540922761" lon="7.957341251894832">
        <ele>75.84375</ele>
        <time>2026-03-02T09:47:25Z</time>
      </trkpt>
      <trkpt lat="52.242889953777194" lon="7.956968676298857">
        <ele>76.4765625</ele>
        <time>2026-03-02T09:47:31Z</time>
      </trkpt>
      <trkpt lat="52.242859192192554" lon="7.956579923629761">
        <ele>77.10546875</ele>
        <time>2026-03-02T09:47:37Z</time>
      </trkpt>
      <trkpt lat="52.24280521273613" lon="7.956182034686208">
        <ele>77.52734375</ele>
        <time>2026-03-02T09:47:43Z</time>
      </trkpt>
      <trkpt lat="52.242720471695065" lon="7.955780625343323">
        <ele>79</ele>
        <time>2026-03-02T09:47:49Z</time>
      </trkpt>
      <trkpt lat="52.242586277425289" lon="7.955410815775394">
        <ele>78.484375</ele>
        <time>2026-03-02T09:47:55Z</time>
      </trkpt>
      <trkpt lat="52.242484856396914" lon="7.955157514661551">
        <ele>78.23046875</ele>
        <time>2026-03-02T09:47:59Z</time>
      </trkpt>
      <trkpt lat="52.242376729846001" lon="7.954882755875588">
        <ele>78.27734375</ele>
        <time>2026-03-02T09:48:03Z</time>
      </trkpt>
      <trkpt lat="52.242273548617959" lon="7.954629119485617">
        <ele>78.1015625</ele>
        <time>2026-03-02T09:48:07Z</time>
      </trkpt>
      <trkpt lat="52.24219442345202" lon="7.954288814216852">
        <ele>77.7890625</ele>
        <time>2026-03-02T09:48:11Z</time>
      </trkpt>
      <trkpt lat="52.242149412631989" lon="7.953932080417872">
        <ele>77.59375</ele>
        <time>2026-03-02T09:48:15Z</time>
      </trkpt>
      <trkpt lat="52.24211479537189" lon="7.953577945008874">
        <ele>77.4453125</ele>
        <time>2026-03-02T09:48:19Z</time>
      </trkpt>
      <trkpt lat="52.242097780108452" lon="7.953228754922748">
        <ele>77.37109375</ele>
        <time>2026-03-02T09:48:23Z</time>
      </trkpt>
      <trkpt lat="52.242092918604612" lon="7.95285802334547">
        <ele>77.3515625</ele>
        <time>2026-03-02T09:48:27Z</time>
      </trkpt>
      <trkpt lat="52.242080261930823" lon="7.952493829652667">
        <ele>77.296875</ele>
        <time>2026-03-02T09:48:31Z</time>
      </trkpt>
      <trkpt lat="52.242076992988586" lon="7.952099880203605">
        <ele>77.28125</ele>
        <time>2026-03-02T09:48:35Z</time>
      </trkpt>
      <trkpt lat="52.242062240839005" lon="7.951688831672072">
        <ele>77.21875</ele>
        <time>2026-03-02T09:48:39Z</time>
      </trkpt>
      <trkpt lat="52.242037933319807" lon="7.951302174478769">
        <ele>77.11328125</ele>
        <time>2026-03-02T09:48:43Z</time>
      </trkpt>
      <trkpt lat="52.242022510617971" lon="7.950934795662761">
        <ele>76.77734375</ele>
        <time>2026-03-02T09:48:47Z</time>
      </trkpt>
      <trkpt lat="52.242024019360542" lon="7.950558867305517">
        <ele>76.52734375</ele>
        <time>2026-03-02T09:48:51Z</time>
      </trkpt>
      <trkpt lat="52.242026953026652" lon="7.950178580358625">
        <ele>76.453125</ele>
        <time>2026-03-02T09:48:55Z</time>
      </trkpt>
      <trkpt lat="52.242047991603613" lon="7.949764933437109">
        <ele>75.97265625</ele>
        <time>2026-03-02T09:48:59Z</time>
      </trkpt>
      <trkpt lat="52.242086045444012" lon="7.949364027008414">
        <ele>75.3984375</ele>
        <time>2026-03-02T09:49:03Z</time>
      </trkpt>
      <trkpt lat="52.242143880575895" lon="7.948946692049503">
        <ele>74.40234375</ele>
        <time>2026-03-02T09:49:07Z</time>
      </trkpt>
      <trkpt lat="52.242304058745503" lon="7.948564644902945">
        <ele>72.9375</ele>
        <time>2026-03-02T09:49:11Z</time>
      </trkpt>
      <trkpt lat="52.242478234693408" lon="7.948241773992777">
        <ele>72.671875</ele>
        <time>2026-03-02T09:49:15Z</time>
      </trkpt>
      <trkpt lat="52.242611842229962" lon="7.947855284437537">
        <ele>72.13671875</ele>
        <time>2026-03-02T09:49:19Z</time>
      </trkpt>
      <trkpt lat="52.242684764787555" lon="7.947460077702999">
        <ele>72.90234375</ele>
        <time>2026-03-02T09:49:23Z</time>
      </trkpt>
      <trkpt lat="52.242703959345818" lon="7.947023715823889">
        <ele>71.0625</ele>
        <time>2026-03-02T09:49:27Z</time>
      </trkpt>
      <trkpt lat="52.242698343470693" lon="7.946606045588851">
        <ele>71.015625</ele>
        <time>2026-03-02T09:49:31Z</time>
      </trkpt>
      <trkpt lat="52.242675628513098" lon="7.946237744763494">
        <ele>71.69140625</ele>
        <time>2026-03-02T09:49:35Z</time>
      </trkpt>
      <trkpt lat="52.242650566622615" lon="7.94587355107069">
        <ele>71.54296875</ele>
        <time>2026-03-02T09:49:39Z</time>
      </trkpt>
      <trkpt lat="52.242639167234302" lon="7.945556882768869">
        <ele>70.87890625</ele>
        <time>2026-03-02T09:49:43Z</time>
      </trkpt>
      <trkpt lat="52.242651572450995" lon="7.945212721824646">
        <ele>70.21875</ele>
        <time>2026-03-02T09:49:47Z</time>
      </trkpt>
      <trkpt lat="52.242680070921779" lon="7.944861017167568">
        <ele>70.69921875</ele>
        <time>2026-03-02T09:49:51Z</time>
      </trkpt>
      <trkpt lat="52.242532633244991" lon="7.944646691903472">
        <ele>71.19921875</ele>
        <time>2026-03-02T09:49:55Z</time>
      </trkpt>
      <trkpt lat="52.242432050406933" lon="7.944350223988295">
        <ele>70.5390625</ele>
        <time>2026-03-02T09:49:59Z</time>
      </trkpt>
      <trkpt lat="52.242344878613949" lon="7.944078147411346">
        <ele>70.5625</ele>
        <time>2026-03-02T09:50:03Z</time>
      </trkpt>
      <trkpt lat="52.242248235270381" lon="7.943808836862445">
        <ele>70.98046875</ele>
        <time>2026-03-02T09:50:07Z</time>
      </trkpt>
      <trkpt lat="52.24217195995152" lon="7.943531479686499">
        <ele>71.15234375</ele>
        <time>2026-03-02T09:50:11Z</time>
      </trkpt>
      <trkpt lat="52.242079004645348" lon="7.943239705637097">
        <ele>71.35546875</ele>
        <time>2026-03-02T09:50:15Z</time>
      </trkpt>
      <trkpt lat="52.241978840902448" lon="7.942905519157648">
        <ele>71.5703125</ele>
        <time>2026-03-02T09:50:19Z</time>
      </trkpt>
      <trkpt lat="52.241868618875742" lon="7.942610392346978">
        <ele>71.3984375</ele>
        <time>2026-03-02T09:50:23Z</time>
      </trkpt>
      <trkpt lat="52.241766108199954" lon="7.942316439002752">
        <ele>71.05859375</ele>
        <time>2026-03-02T09:50:27Z</time>
      </trkpt>
      <trkpt lat="52.241644822061062" lon="7.942006979137659">
        <ele>71.34765625</ele>
        <time>2026-03-02T09:50:31Z</time>
      </trkpt>
      <trkpt lat="52.241534097120166" lon="7.941723503172398">
        <ele>71.3046875</ele>
        <time>2026-03-02T09:50:35Z</time>
      </trkpt>
      <trkpt lat="52.241424042731524" lon="7.941416054964066">
        <ele>70.98046875</ele>
        <time>2026-03-02T09:50:39Z</time>
      </trkpt>
      <trkpt lat="52.241309126839042" lon="7.94111623428762">
        <ele>71.0625</ele>
        <time>2026-03-02T09:50:43Z</time>
      </trkpt>
      <trkpt lat="52.241201670840383" lon="7.940816748887301">
        <ele>71.3671875</ele>
        <time>2026-03-02T09:50:47Z</time>
      </trkpt>
      <trkpt lat="52.241089101880789" lon="7.94051231816411">
        <ele>71.44140625</ele>
        <time>2026-03-02T09:50:51Z</time>
      </trkpt>
      <trkpt lat="52.240990027785301" lon="7.940232194960117">
        <ele>71.20703125</ele>
        <time>2026-03-02T09:50:55Z</time>
      </trkpt>
      <trkpt lat="52.240889528766274" lon="7.939931284636259">
        <ele>70.92578125</ele>
        <time>2026-03-02T09:50:59Z</time>
      </trkpt>
      <trkpt lat="52.240779893472791" lon="7.939631128683686">
        <ele>71.49609375</ele>
        <time>2026-03-02T09:51:03Z</time>
      </trkpt>
      <trkpt lat="52.240673610940576" lon="7.939344216138125">
        <ele>71.953125</ele>
        <time>2026-03-02T09:51:07Z</time>
      </trkpt>
      <trkpt lat="52.240570848807693" lon="7.93905814178288">
        <ele>72</ele>
        <time>2026-03-02T09:51:11Z</time>
      </trkpt>
      <trkpt lat="52.240474289283156" lon="7.938742646947503">
        <ele>71.21875</ele>
        <time>2026-03-02T09:51:15Z</time>
      </trkpt>
      <trkpt lat="52.240411089733243" lon="7.93839362449944">
        <ele>71.59765625</ele>
        <time>2026-03-02T09:51:19Z</time>
      </trkpt>
      <trkpt lat="52.240384519100189" lon="7.938028676435351">
        <ele>72.02734375</ele>
        <time>2026-03-02T09:51:23Z</time>
      </trkpt>
      <trkpt lat="52.240382758900523" lon="7.93764746747911">
        <ele>71.78515625</ele>
        <time>2026-03-02T09:51:27Z</time>
      </trkpt>
      <trkpt lat="52.240392062813044" lon="7.937330882996321">
        <ele>71.08203125</ele>
        <time>2026-03-02T09:51:31Z</time>
      </trkpt>
      <trkpt lat="52.240408323705196" lon="7.9369883146137">
        <ele>71.03515625</ele>
        <time>2026-03-02T09:51:35Z</time>
      </trkpt>
      <trkpt lat="52.240430368110538" lon="7.936639208346605">
        <ele>71.08203125</ele>
        <time>2026-03-02T09:51:39Z</time>
      </trkpt>
      <trkpt lat="52.240446880459785" lon="7.936282223090529">
        <ele>70.953125</ele>
        <time>2026-03-02T09:51:43Z</time>
      </trkpt>
      <trkpt lat="52.240467751398683" lon="7.935932194814086">
        <ele>70.375</ele>
        <time>2026-03-02T09:51:47Z</time>
      </trkpt>
      <trkpt lat="52.240454256534576" lon="7.93560940772295">
        <ele>70.734375</ele>
        <time>2026-03-02T09:51:51Z</time>
      </trkpt>
      <trkpt lat="52.240471690893173" lon="7.935265079140663">
        <ele>70.6171875</ele>
        <time>2026-03-02T09:51:55Z</time>
      </trkpt>
      <trkpt lat="52.240480910986662" lon="7.934928210452199">
        <ele>69.98046875</ele>
        <time>2026-03-02T09:51:59Z</time>
      </trkpt>
      <trkpt lat="52.240496417507529" lon="7.9345862288028">
        <ele>69.80859375</ele>
        <time>2026-03-02T09:52:03Z</time>
      </trkpt>
      <trkpt lat="52.240518797188997" lon="7.934168307110667">
        <ele>69.7265625</ele>
        <time>2026-03-02T09:52:07Z</time>
      </trkpt>
      <trkpt lat="52.240572525188327" lon="7.933738064020872">
        <ele>69.19140625</ele>
        <time>2026-03-02T09:52:11Z</time>
      </trkpt>
      <trkpt lat="52.240624409168959" lon="7.933343527838588">
        <ele>69.26953125</ele>
        <time>2026-03-02T09:52:15Z</time>
      </trkpt>
      <trkpt lat="52.240661038085818" lon="7.932962402701378">
        <ele>69.41796875</ele>
        <time>2026-03-02T09:52:19Z</time>
      </trkpt>
      <trkpt lat="52.240677969530225" lon="7.932566106319428">
        <ele>69.30078125</ele>
        <time>2026-03-02T09:52:23Z</time>
      </trkpt>
      <trkpt lat="52.240707892924547" lon="7.93219730257988">
        <ele>69</ele>
        <time>2026-03-02T09:52:27Z</time>
      </trkpt>
      <trkpt lat="52.240727255120873" lon="7.931843250989914">
        <ele>69</ele>
        <time>2026-03-02T09:52:31Z</time>
      </trkpt>
      <trkpt lat="52.240746282041073" lon="7.931468328461051">
        <ele>69.44921875</ele>
        <time>2026-03-02T09:52:35Z</time>
      </trkpt>
      <trkpt lat="52.240759860724211" lon="7.931109834462404">
        <ele>69.79296875</ele>
        <time>2026-03-02T09:52:39Z</time>
      </trkpt>
      <trkpt lat="52.240783330053091" lon="7.930756118148565">
        <ele>69.75390625</ele>
        <time>2026-03-02T09:52:43Z</time>
      </trkpt>
      <trkpt lat="52.240793220698833" lon="7.93042553588748">
        <ele>69.25</ele>
        <time>2026-03-02T09:52:47Z</time>
      </trkpt>
      <trkpt lat="52.24081308580935" lon="7.930032843723893">
        <ele>69.71875</ele>
        <time>2026-03-02T09:52:51Z</time>
      </trkpt>
      <trkpt lat="52.240834459662437" lon="7.929664039984345">
        <ele>70</ele>
        <time>2026-03-02T09:52:55Z</time>
      </trkpt>
      <trkpt lat="52.240862958133221" lon="7.929312167689204">
        <ele>70.24609375</ele>
        <time>2026-03-02T09:52:59Z</time>
      </trkpt>
      <trkpt lat="52.240881817415357" lon="7.92900170199573">
        <ele>70.8671875</ele>
        <time>2026-03-02T09:53:03Z</time>
      </trkpt>
      <trkpt lat="52.240894557908177" lon="7.928574392572045">
        <ele>70.9140625</ele>
        <time>2026-03-02T09:53:09Z</time>
      </trkpt>
      <trkpt lat="52.24090981297195" lon="7.928248671814799">
        <ele>70.3984375</ele>
        <time>2026-03-02T09:53:13Z</time>
      </trkpt>
      <trkpt lat="52.240879219025373" lon="7.927897218614817">
        <ele>69.984375</ele>
        <time>2026-03-02T09:53:17Z</time>
      </trkpt>
      <trkpt lat="52.24080478772521" lon="7.927571330219507">
        <ele>70</ele>
        <time>2026-03-02T09:53:21Z</time>
      </trkpt>
      <trkpt lat="52.24073295481503" lon="7.92725290171802">
        <ele>70</ele>
        <time>2026-03-02T09:53:25Z</time>
      </trkpt>
      <trkpt lat="52.240780480206013" lon="7.926949895918369">
        <ele>70.05859375</ele>
        <time>2026-03-02T09:53:29Z</time>
      </trkpt>
      <trkpt lat="52.240947866812348" lon="7.926757363602519">
        <ele>70</ele>
        <time>2026-03-02T09:53:33Z</time>
      </trkpt>
      <trkpt lat="52.241110811010003" lon="7.926489310339093">
        <ele>70.15625</ele>
        <time>2026-03-02T09:53:37Z</time>
      </trkpt>
      <trkpt lat="52.241249950602651" lon="7.926215222105384">
        <ele>70.13671875</ele>
        <time>2026-03-02T09:53:41Z</time>
      </trkpt>
      <trkpt lat="52.241404931992292" lon="7.925944654271007">
        <ele>70</ele>
        <time>2026-03-02T09:53:45Z</time>
      </trkpt>
      <trkpt lat="52.241575671359897" lon="7.925676936283708">
        <ele>70.046875</ele>
        <time>2026-03-02T09:53:49Z</time>
      </trkpt>
      <trkpt lat="52.241737022995949" lon="7.92543176561594">
        <ele>70.05859375</ele>
        <time>2026-03-02T09:53:53Z</time>
      </trkpt>
      <trkpt lat="52.241906505078077" lon="7.925195982679725">
        <ele>70</ele>
        <time>2026-03-02T09:53:57Z</time>
      </trkpt>
      <trkpt lat="52.24206542596221" lon="7.924944190308452">
        <ele>70</ele>
        <time>2026-03-02T09:54:01Z</time>
      </trkpt>
      <trkpt lat="52.24223448894918" lon="7.924702456220985">
        <ele>70.00390625</ele>
        <time>2026-03-02T09:54:05Z</time>
      </trkpt>
      <trkpt lat="52.242401791736484" lon="7.924437504261732">
        <ele>70</ele>
        <time>2026-03-02T09:54:09Z</time>
      </trkpt>
      <trkpt lat="52.24255601875484" lon="7.924198787659407">
        <ele>70.09765625</ele>
        <time>2026-03-02T09:54:13Z</time>
      </trkpt>
      <trkpt lat="52.242720555514097" lon="7.923945067450404">
        <ele>70</ele>
        <time>2026-03-02T09:54:17Z</time>
      </trkpt>
      <trkpt lat="52.242900095880032" lon="7.923698136582971">
        <ele>70</ele>
        <time>2026-03-02T09:54:21Z</time>
      </trkpt>
      <trkpt lat="52.243076618760824" lon="7.923437710851431">
        <ele>70</ele>
        <time>2026-03-02T09:54:25Z</time>
      </trkpt>
      <trkpt lat="52.243252638727427" lon="7.923182481899858">
        <ele>70</ele>
        <time>2026-03-02T09:54:29Z</time>
      </trkpt>
      <trkpt lat="52.24343117326498" lon="7.922909064218402">
        <ele>70.0390625</ele>
        <time>2026-03-02T09:54:33Z</time>
      </trkpt>
      <trkpt lat="52.243610797449946" lon="7.922642352059484">
        <ele>70.03125</ele>
        <time>2026-03-02T09:54:37Z</time>
      </trkpt>
      <trkpt lat="52.243777681142092" lon="7.922373963519931">
        <ele>70.16796875</ele>
        <time>2026-03-02T09:54:41Z</time>
      </trkpt>
      <trkpt lat="52.243943642824888" lon="7.922117561101914">
        <ele>70.26171875</ele>
        <time>2026-03-02T09:54:45Z</time>
      </trkpt>
      <trkpt lat="52.244124356657267" lon="7.921869121491909">
        <ele>70</ele>
        <time>2026-03-02T09:54:49Z</time>
      </trkpt>
      <trkpt lat="52.244295934215188" lon="7.921629399061203">
        <ele>70</ele>
        <time>2026-03-02T09:54:53Z</time>
      </trkpt>
      <trkpt lat="52.244475474581122" lon="7.921350281685591">
        <ele>70.08203125</ele>
        <time>2026-03-02T09:54:57Z</time>
      </trkpt>
      <trkpt lat="52.244646800681949" lon="7.921083737164736">
        <ele>70.02734375</ele>
        <time>2026-03-02T09:55:01Z</time>
      </trkpt>
      <trkpt lat="52.244820641353726" lon="7.920832950621843">
        <ele>70.24609375</ele>
        <time>2026-03-02T09:55:05Z</time>
      </trkpt>
      <trkpt lat="52.244959697127342" lon="7.920553833246231">
        <ele>70.12890625</ele>
        <time>2026-03-02T09:55:09Z</time>
      </trkpt>
      <trkpt lat="52.244990542531013" lon="7.920203385874629">
        <ele>70.0625</ele>
        <time>2026-03-02T09:55:13Z</time>
      </trkpt>
      <trkpt lat="52.244942933320999" lon="7.919814130291343">
        <ele>70.1640625</ele>
        <time>2026-03-02T09:55:17Z</time>
      </trkpt>
      <trkpt lat="52.244887864217162" lon="7.919432166963816">
        <ele>70.28515625</ele>
        <time>2026-03-02T09:55:21Z</time>
      </trkpt>
      <trkpt lat="52.244834639132023" lon="7.919057244434953">
        <ele>70.3984375</ele>
        <time>2026-03-02T09:55:25Z</time>
      </trkpt>
      <trkpt lat="52.244792645797133" lon="7.918691709637642">
        <ele>70.48828125</ele>
        <time>2026-03-02T09:55:29Z</time>
      </trkpt>
      <trkpt lat="52.244755011051893" lon="7.918337238952518">
        <ele>70.5703125</ele>
        <time>2026-03-02T09:55:33Z</time>
      </trkpt>
      <trkpt lat="52.244708240032196" lon="7.91799534112215">
        <ele>70.671875</ele>
        <time>2026-03-02T09:55:37Z</time>
      </trkpt>
      <trkpt lat="52.244675969704986" lon="7.917629722505808">
        <ele>70.2421875</ele>
        <time>2026-03-02T09:55:41Z</time>
      </trkpt>
      <trkpt lat="52.244629450142384" lon="7.917246501892805">
        <ele>69.84375</ele>
        <time>2026-03-02T09:55:45Z</time>
      </trkpt>
      <trkpt lat="52.244596509262919" lon="7.916876524686813">
        <ele>70.03125</ele>
        <time>2026-03-02T09:55:49Z</time>
      </trkpt>
      <trkpt lat="52.244584942236543" lon="7.916516019031405">
        <ele>70.7890625</ele>
        <time>2026-03-02T09:55:53Z</time>
      </trkpt>
      <trkpt lat="52.244702959433198" lon="7.91619960218668">
        <ele>69.96484375</ele>
        <time>2026-03-02T09:55:57Z</time>
      </trkpt>
      <trkpt lat="52.244922816753387" lon="7.91604227386415">
        <ele>69.22265625</ele>
        <time>2026-03-02T09:56:01Z</time>
      </trkpt>
      <trkpt lat="52.245147619396448" lon="7.915913611650467">
        <ele>69.20703125</ele>
        <time>2026-03-02T09:56:05Z</time>
      </trkpt>
      <trkpt lat="52.245355993509293" lon="7.915779585018754">
        <ele>69.5</ele>
        <time>2026-03-02T09:56:09Z</time>
      </trkpt>
      <trkpt lat="52.245550034567714" lon="7.915597446262837">
        <ele>69.890625</ele>
        <time>2026-03-02T09:56:13Z</time>
      </trkpt>
      <trkpt lat="52.245720941573381" lon="7.915330231189728">
        <ele>70</ele>
        <time>2026-03-02T09:56:17Z</time>
      </trkpt>
      <trkpt lat="52.245840970426798" lon="7.915024124085903">
        <ele>70.03125</ele>
        <time>2026-03-02T09:56:21Z</time>
      </trkpt>
      <trkpt lat="52.24594415165484" lon="7.91467116214335">
        <ele>70</ele>
        <time>2026-03-02T09:56:25Z</time>
      </trkpt>
      <trkpt lat="52.246024450287223" lon="7.914352230727673">
        <ele>70.484375</ele>
        <time>2026-03-02T09:56:29Z</time>
      </trkpt>
      <trkpt lat="52.246147580444813" lon="7.914065234363079">
        <ele>70.5625</ele>
        <time>2026-03-02T09:56:33Z</time>
      </trkpt>
      <trkpt lat="52.246387051418424" lon="7.913887705653906">
        <ele>70.04296875</ele>
        <time>2026-03-02T09:56:38Z</time>
      </trkpt>
      <trkpt lat="52.246615709736943" lon="7.913777902722359">
        <ele>69.921875</ele>
        <time>2026-03-02T09:56:44Z</time>
      </trkpt>
      <trkpt lat="52.246793070808053" lon="7.913616886362433">
        <ele>70.171875</ele>
        <time>2026-03-02T09:56:48Z</time>
      </trkpt>
      <trkpt lat="52.24699079990387" lon="7.913480512797833">
        <ele>70.46875</ele>
        <time>2026-03-02T09:56:52Z</time>
      </trkpt>
      <trkpt lat="52.247177632525563" lon="7.9133440554142">
        <ele>70.76171875</ele>
        <time>2026-03-02T09:56:56Z</time>
      </trkpt>
      <trkpt lat="52.247339738532901" lon="7.913110535591841">
        <ele>71.015625</ele>
        <time>2026-03-02T09:57:00Z</time>
      </trkpt>
      <trkpt lat="52.24744426086545" lon="7.912801578640938">
        <ele>71.2421875</ele>
        <time>2026-03-02T09:57:04Z</time>
      </trkpt>
      <trkpt lat="52.247475944459438" lon="7.912452975288034">
        <ele>71.09765625</ele>
        <time>2026-03-02T09:57:08Z</time>
      </trkpt>
      <trkpt lat="52.247490277513862" lon="7.912103282287717">
        <ele>71</ele>
        <time>2026-03-02T09:57:12Z</time>
      </trkpt>
      <trkpt lat="52.247506957501173" lon="7.911730958148837">
        <ele>71</ele>
        <time>2026-03-02T09:57:16Z</time>
      </trkpt>
      <trkpt lat="52.247544592246413" lon="7.911384617909789">
        <ele>71</ele>
        <time>2026-03-02T09:57:20Z</time>
      </trkpt>
      <trkpt lat="52.247594799846411" lon="7.911041295155883">
        <ele>70.6796875</ele>
        <time>2026-03-02T09:57:24Z</time>
      </trkpt>
      <trkpt lat="52.247652551159263" lon="7.910697301849723">
        <ele>70.69140625</ele>
        <time>2026-03-02T09:57:28Z</time>
      </trkpt>
      <trkpt lat="52.247707117348909" lon="7.910342663526535">
        <ele>70.80859375</ele>
        <time>2026-03-02T09:57:32Z</time>
      </trkpt>
      <trkpt lat="52.247744668275118" lon="7.91000185534358">
        <ele>70.890625</ele>
        <time>2026-03-02T09:57:36Z</time>
      </trkpt>
      <trkpt lat="52.247788924723864" lon="7.909657107666135">
        <ele>70.984375</ele>
        <time>2026-03-02T09:57:40Z</time>
      </trkpt>
      <trkpt lat="52.247843071818352" lon="7.909319400787354">
        <ele>71.5078125</ele>
        <time>2026-03-02T09:57:44Z</time>
      </trkpt>
      <trkpt lat="52.247892608866096" lon="7.908995104953647">
        <ele>72.63671875</ele>
        <time>2026-03-02T09:57:48Z</time>
      </trkpt>
      <trkpt lat="52.247936194762588" lon="7.908652452751994">
        <ele>74.23828125</ele>
        <time>2026-03-02T09:57:52Z</time>
      </trkpt>
      <trkpt lat="52.247992269694805" lon="7.908262778073549">
        <ele>74.26171875</ele>
        <time>2026-03-02T09:57:56Z</time>
      </trkpt>
      <trkpt lat="52.248031748458743" lon="7.907905876636505">
        <ele>72.44140625</ele>
        <time>2026-03-02T09:58:00Z</time>
      </trkpt>
      <trkpt lat="52.248071562498808" lon="7.907560626044869">
        <ele>71.30078125</ele>
        <time>2026-03-02T09:58:04Z</time>
      </trkpt>
      <trkpt lat="52.248118249699473" lon="7.90724940598011">
        <ele>71.6796875</ele>
        <time>2026-03-02T09:58:08Z</time>
      </trkpt>
      <trkpt lat="52.248156890273094" lon="7.906951680779457">
        <ele>71.78125</ele>
        <time>2026-03-02T09:58:12Z</time>
      </trkpt>
      <trkpt lat="52.248191507533193" lon="7.906640041619539">
        <ele>72.0703125</ele>
        <time>2026-03-02T09:58:16Z</time>
      </trkpt>
      <trkpt lat="52.248218078166246" lon="7.90631951764226">
        <ele>72.77734375</ele>
        <time>2026-03-02T09:58:20Z</time>
      </trkpt>
      <trkpt lat="52.248232746496797" lon="7.905980385839939">
        <ele>72.25</ele>
        <time>2026-03-02T09:58:24Z</time>
      </trkpt>
      <trkpt lat="52.248259568586946" lon="7.905637649819255">
        <ele>72.00390625</ele>
        <time>2026-03-02T09:58:28Z</time>
      </trkpt>
      <trkpt lat="52.248291168361902" lon="7.905284436419606">
        <ele>72.23828125</ele>
        <time>2026-03-02T09:58:32Z</time>
      </trkpt>
      <trkpt lat="52.248308099806309" lon="7.90493331849575">
        <ele>72.9453125</ele>
        <time>2026-03-02T09:58:36Z</time>
      </trkpt>
      <trkpt lat="52.248335340991616" lon="7.904578596353531">
        <ele>72.41015625</ele>
        <time>2026-03-02T09:58:40Z</time>
      </trkpt>
      <trkpt lat="52.248357972130179" lon="7.904211636632681">
        <ele>72.609375</ele>
        <time>2026-03-02T09:58:44Z</time>
      </trkpt>
      <trkpt lat="52.248384961858392" lon="7.903862446546555">
        <ele>73</ele>
        <time>2026-03-02T09:58:48Z</time>
      </trkpt>
      <trkpt lat="52.248403402045369" lon="7.903504455462098">
        <ele>73</ele>
        <time>2026-03-02T09:58:52Z</time>
      </trkpt>
      <trkpt lat="52.24842200987041" lon="7.903171442449093">
        <ele>73</ele>
        <time>2026-03-02T09:58:56Z</time>
      </trkpt>
      <trkpt lat="52.248442377895117" lon="7.902833819389343">
        <ele>73</ele>
        <time>2026-03-02T09:59:00Z</time>
      </trkpt>
      <trkpt lat="52.248460985720158" lon="7.902512038126588">
        <ele>73</ele>
        <time>2026-03-02T09:59:04Z</time>
      </trkpt>
      <trkpt lat="52.248486550524831" lon="7.902183132246137">
        <ele>73</ele>
        <time>2026-03-02T09:59:08Z</time>
      </trkpt>
      <trkpt lat="52.248519156128168" lon="7.901870654895902">
        <ele>73.55859375</ele>
        <time>2026-03-02T09:59:12Z</time>
      </trkpt>
      <trkpt lat="52.248552935197949" lon="7.901564380154014">
        <ele>74</ele>
        <time>2026-03-02T09:59:16Z</time>
      </trkpt>
      <trkpt lat="52.248589899390936" lon="7.901256512850523">
        <ele>74</ele>
        <time>2026-03-02T09:59:20Z</time>
      </trkpt>
      <trkpt lat="52.24862527102232" lon="7.900959877297282">
        <ele>74.52734375</ele>
        <time>2026-03-02T09:59:24Z</time>
      </trkpt>
      <trkpt lat="52.248660055920482" lon="7.900622338056564">
        <ele>75</ele>
        <time>2026-03-02T09:59:28Z</time>
      </trkpt>
      <trkpt lat="52.248704228550196" lon="7.900297874584794">
        <ele>75</ele>
        <time>2026-03-02T09:59:32Z</time>
      </trkpt>
      <trkpt lat="52.248720992356539" lon="7.899978859350085">
        <ele>75</ele>
        <time>2026-03-02T09:59:36Z</time>
      </trkpt>
      <trkpt lat="52.2487523406744" lon="7.89966537617147">
        <ele>75.37109375</ele>
        <time>2026-03-02T09:59:40Z</time>
      </trkpt>
      <trkpt lat="52.248790981248021" lon="7.899353317916393">
        <ele>76</ele>
        <time>2026-03-02T09:59:44Z</time>
      </trkpt>
      <trkpt lat="52.248832387849689" lon="7.899047462269664">
        <ele>76.50390625</ele>
        <time>2026-03-02T09:59:48Z</time>
      </trkpt>
      <trkpt lat="52.248865328729153" lon="7.89875166490674">
        <ele>76.78125</ele>
        <time>2026-03-02T09:59:52Z</time>
      </trkpt>
      <trkpt lat="52.24890329875052" lon="7.898431224748492">
        <ele>76.99609375</ele>
        <time>2026-03-02T09:59:56Z</time>
      </trkpt>
      <trkpt lat="52.248928360641003" lon="7.89811841212213">
        <ele>77.37109375</ele>
        <time>2026-03-02T10:00:00Z</time>
      </trkpt>
      <trkpt lat="52.248954847455025" lon="7.897684061899781">
        <ele>78.1015625</ele>
        <time>2026-03-02T10:00:06Z</time>
      </trkpt>
      <trkpt lat="52.248962391167879" lon="7.897391030564904">
        <ele>78.59375</ele>
        <time>2026-03-02T10:00:10Z</time>
      </trkpt>
      <trkpt lat="52.248967001214623" lon="7.897076373919845">
        <ele>78.8984375</ele>
        <time>2026-03-02T10:00:14Z</time>
      </trkpt>
      <trkpt lat="52.248966079205275" lon="7.896780576556921">
        <ele>79.23828125</ele>
        <time>2026-03-02T10:00:18Z</time>
      </trkpt>
      <trkpt lat="52.248971778899431" lon="7.896477486938238">
        <ele>79.5546875</ele>
        <time>2026-03-02T10:00:22Z</time>
      </trkpt>
      <trkpt lat="52.248967001214623" lon="7.896176660433412">
        <ele>79.875</ele>
        <time>2026-03-02T10:00:26Z</time>
      </trkpt>
      <trkpt lat="52.248960211873055" lon="7.895876755937934">
        <ele>80.23046875</ele>
        <time>2026-03-02T10:00:30Z</time>
      </trkpt>
      <trkpt lat="52.248940765857697" lon="7.895562937483192">
        <ele>80.5234375</ele>
        <time>2026-03-02T10:00:34Z</time>
      </trkpt>
      <trkpt lat="52.248933641240001" lon="7.895267056301236">
        <ele>80.5390625</ele>
        <time>2026-03-02T10:00:38Z</time>
      </trkpt>
      <trkpt lat="52.248899359256029" lon="7.894840249791741">
        <ele>81.3671875</ele>
        <time>2026-03-02T10:00:44Z</time>
      </trkpt>
      <trkpt lat="52.24883783608675" lon="7.894415874034166">
        <ele>81.74609375</ele>
        <time>2026-03-02T10:00:50Z</time>
      </trkpt>
      <trkpt lat="52.248722920194268" lon="7.894050506874919">
        <ele>81.99609375</ele>
        <time>2026-03-02T10:00:56Z</time>
      </trkpt>
      <trkpt lat="52.248612781986594" lon="7.893677009269595">
        <ele>82.09765625</ele>
        <time>2026-03-02T10:01:02Z</time>
      </trkpt>
      <trkpt lat="52.248489987105131" lon="7.893367130309343">
        <ele>82.91015625</ele>
        <time>2026-03-02T10:01:08Z</time>
      </trkpt>
      <trkpt lat="52.248401641845703" lon="7.89304836653173">
        <ele>84.25390625</ele>
        <time>2026-03-02T10:01:14Z</time>
      </trkpt>
      <trkpt lat="52.248309189453721" lon="7.89271954447031">
        <ele>85.67578125</ele>
        <time>2026-03-02T10:01:20Z</time>
      </trkpt>
      <trkpt lat="52.248207600787282" lon="7.892375970259309">
        <ele>87.125</ele>
        <time>2026-03-02T10:01:26Z</time>
      </trkpt>
      <trkpt lat="52.248133840039372" lon="7.892092913389206">
        <ele>88.625</ele>
        <time>2026-03-02T10:01:30Z</time>
      </trkpt>
      <trkpt lat="52.248046332970262" lon="7.891823519021273">
        <ele>89.5078125</ele>
        <time>2026-03-02T10:01:34Z</time>
      </trkpt>
      <trkpt lat="52.247985731810331" lon="7.891519675031304">
        <ele>90.13671875</ele>
        <time>2026-03-02T10:01:40Z</time>
      </trkpt>
      <trkpt lat="52.247942062094808" lon="7.891210718080401">
        <ele>90.33203125</ele>
        <time>2026-03-02T10:01:46Z</time>
      </trkpt>
      <trkpt lat="52.247887412086129" lon="7.890827329829335">
        <ele>90.078125</ele>
        <time>2026-03-02T10:01:52Z</time>
      </trkpt>
      <trkpt lat="52.247804682701826" lon="7.890346376225352">
        <ele>88.66015625</ele>
        <time>2026-03-02T10:01:58Z</time>
      </trkpt>
      <trkpt lat="52.247758079320192" lon="7.889935579150915">
        <ele>87.6484375</ele>
        <time>2026-03-02T10:02:02Z</time>
      </trkpt>
      <trkpt lat="52.247708961367607" lon="7.889528637751937">
        <ele>87.06640625</ele>
        <time>2026-03-02T10:02:06Z</time>
      </trkpt>
      <trkpt lat="52.24765338934958" lon="7.889107279479504">
        <ele>86.46484375</ele>
        <time>2026-03-02T10:02:10Z</time>
      </trkpt>
      <trkpt lat="52.247598571702838" lon="7.888697069138289">
        <ele>85.85546875</ele>
        <time>2026-03-02T10:02:14Z</time>
      </trkpt>
      <trkpt lat="52.247543083503842" lon="7.888226341456175">
        <ele>84.796875</ele>
        <time>2026-03-02T10:02:18Z</time>
      </trkpt>
      <trkpt lat="52.247520452365279" lon="7.887771287932992">
        <ele>84.1953125</ele>
        <time>2026-03-02T10:02:22Z</time>
      </trkpt>
      <trkpt lat="52.247543754056096" lon="7.887400221079588">
        <ele>83.9140625</ele>
        <time>2026-03-02T10:02:26Z</time>
      </trkpt>
      <trkpt lat="52.247580466791987" lon="7.887046504765749">
        <ele>83.8203125</ele>
        <time>2026-03-02T10:02:30Z</time>
      </trkpt>
      <trkpt lat="52.247614581137896" lon="7.886696392670274">
        <ele>83.828125</ele>
        <time>2026-03-02T10:02:34Z</time>
      </trkpt>
      <trkpt lat="52.247640900313854" lon="7.886349046602845">
        <ele>83.99609375</ele>
        <time>2026-03-02T10:02:38Z</time>
      </trkpt>
      <trkpt lat="52.247669566422701" lon="7.886013183742762">
        <ele>84.18359375</ele>
        <time>2026-03-02T10:02:42Z</time>
      </trkpt>
      <trkpt lat="52.247715080156922" lon="7.885708501562476">
        <ele>84.07421875</ele>
        <time>2026-03-02T10:02:46Z</time>
      </trkpt>
      <trkpt lat="52.247755900025368" lon="7.885363502427936">
        <ele>83.828125</ele>
        <time>2026-03-02T10:02:50Z</time>
      </trkpt>
      <trkpt lat="52.247782051563263" lon="7.885016910731792">
        <ele>83.94140625</ele>
        <time>2026-03-02T10:02:54Z</time>
      </trkpt>
      <trkpt lat="52.247848100960255" lon="7.884659757837653">
        <ele>84.3671875</ele>
        <time>2026-03-02T10:02:58Z</time>
      </trkpt>
      <trkpt lat="52.247942145913839" lon="7.884332947432995">
        <ele>84.31640625</ele>
        <time>2026-03-02T10:03:02Z</time>
      </trkpt>
      <trkpt lat="52.248075418174267" lon="7.88406640291214">
        <ele>84.9921875</ele>
        <time>2026-03-02T10:03:06Z</time>
      </trkpt>
      <trkpt lat="52.248218413442373" lon="7.883808659389615">
        <ele>85.53125</ele>
        <time>2026-03-02T10:03:10Z</time>
      </trkpt>
      <trkpt lat="52.24834674037993" lon="7.883576564490795">
        <ele>86.01953125</ele>
        <time>2026-03-02T10:03:14Z</time>
      </trkpt>
      <trkpt lat="52.248473390936852" lon="7.883333070203662">
        <ele>87.37109375</ele>
        <time>2026-03-02T10:03:18Z</time>
      </trkpt>
      <trkpt lat="52.248613117262721" lon="7.883118074387312">
        <ele>88.23046875</ele>
        <time>2026-03-02T10:03:22Z</time>
      </trkpt>
      <trkpt lat="52.248767931014299" lon="7.882946413010359">
        <ele>89.0546875</ele>
        <time>2026-03-02T10:03:26Z</time>
      </trkpt>
      <trkpt lat="52.248937580734491" lon="7.88280232809484">
        <ele>90.3125</ele>
        <time>2026-03-02T10:03:30Z</time>
      </trkpt>
      <trkpt lat="52.249095998704433" lon="7.882640473544598">
        <ele>91.04296875</ele>
        <time>2026-03-02T10:03:34Z</time>
      </trkpt>
      <trkpt lat="52.249290207400918" lon="7.882356997579336">
        <ele>91.57421875</ele>
        <time>2026-03-02T10:03:40Z</time>
      </trkpt>
      <trkpt lat="52.249409817159176" lon="7.882125740870833">
        <ele>91.72265625</ele>
        <time>2026-03-02T10:03:44Z</time>
      </trkpt>
      <trkpt lat="52.249503526836634" lon="7.881861040368676">
        <ele>91.9609375</ele>
        <time>2026-03-02T10:03:48Z</time>
      </trkpt>
      <trkpt lat="52.249605618417263" lon="7.88159441202879">
        <ele>91.94921875</ele>
        <time>2026-03-02T10:03:52Z</time>
      </trkpt>
      <trkpt lat="52.24973008967936" lon="7.881345888599753">
        <ele>91.71875</ele>
        <time>2026-03-02T10:03:56Z</time>
      </trkpt>
      <trkpt lat="52.249850789085031" lon="7.881088396534324">
        <ele>91.37109375</ele>
        <time>2026-03-02T10:04:00Z</time>
      </trkpt>
      <trkpt lat="52.249991605058312" lon="7.880838951095939">
        <ele>91.2109375</ele>
        <time>2026-03-02T10:04:04Z</time>
      </trkpt>
      <trkpt lat="52.250147592276335" lon="7.880589254200459">
        <ele>91.0078125</ele>
        <time>2026-03-02T10:04:08Z</time>
      </trkpt>
      <trkpt lat="52.250297963619232" lon="7.880346011370421">
        <ele>90.27734375</ele>
        <time>2026-03-02T10:04:12Z</time>
      </trkpt>
      <trkpt lat="52.250444814562798" lon="7.880094302818179">
        <ele>89.9296875</ele>
        <time>2026-03-02T10:04:16Z</time>
      </trkpt>
      <trkpt lat="52.25060029886663" lon="7.879846701398492">
        <ele>89.76171875</ele>
        <time>2026-03-02T10:04:20Z</time>
      </trkpt>
      <trkpt lat="52.250743210315704" lon="7.879601111635566">
        <ele>89.5</ele>
        <time>2026-03-02T10:04:24Z</time>
      </trkpt>
      <trkpt lat="52.250889893621206" lon="7.87935946136713">
        <ele>89.703125</ele>
        <time>2026-03-02T10:04:28Z</time>
      </trkpt>
      <trkpt lat="52.25102199241519" lon="7.879085876047611">
        <ele>89.33203125</ele>
        <time>2026-03-02T10:04:32Z</time>
      </trkpt>
      <trkpt lat="52.251078654080629" lon="7.878763256594539">
        <ele>88.73828125</ele>
        <time>2026-03-02T10:04:36Z</time>
      </trkpt>
      <trkpt lat="52.251079911366105" lon="7.878437703475356">
        <ele>88.27734375</ele>
        <time>2026-03-02T10:04:40Z</time>
      </trkpt>
      <trkpt lat="52.251054346561432" lon="7.878046436235309">
        <ele>88.0859375</ele>
        <time>2026-03-02T10:04:44Z</time>
      </trkpt>
      <trkpt lat="52.251024087890983" lon="7.877650475129485">
        <ele>87.95703125</ele>
        <time>2026-03-02T10:04:48Z</time>
      </trkpt>
      <trkpt lat="52.25102199241519" lon="7.877271948382258">
        <ele>87.9453125</ele>
        <time>2026-03-02T10:04:52Z</time>
      </trkpt>
      <trkpt lat="52.251000199466944" lon="7.876896522939205">
        <ele>87.39453125</ele>
        <time>2026-03-02T10:04:56Z</time>
      </trkpt>
      <trkpt lat="52.250989219173789" lon="7.876517409458756">
        <ele>86.96484375</ele>
        <time>2026-03-02T10:05:00Z</time>
      </trkpt>
      <trkpt lat="52.250986117869616" lon="7.876124382019043">
        <ele>86.89453125</ele>
        <time>2026-03-02T10:05:04Z</time>
      </trkpt>
      <trkpt lat="52.250944124534726" lon="7.875734539702535">
        <ele>86.7578125</ele>
        <time>2026-03-02T10:05:08Z</time>
      </trkpt>
      <trkpt lat="52.250894419848919" lon="7.875353079289198">
        <ele>85.82421875</ele>
        <time>2026-03-02T10:05:12Z</time>
      </trkpt>
      <trkpt lat="52.250857539474964" lon="7.874990645796061">
        <ele>85.6171875</ele>
        <time>2026-03-02T10:05:16Z</time>
      </trkpt>
      <trkpt lat="52.250889977440238" lon="7.874657297506928">
        <ele>85.6875</ele>
        <time>2026-03-02T10:05:20Z</time>
      </trkpt>
      <trkpt lat="52.250945968553424" lon="7.874332247301936">
        <ele>85.79296875</ele>
        <time>2026-03-02T10:05:24Z</time>
      </trkpt>
      <trkpt lat="52.251012520864606" lon="7.873995043337345">
        <ele>85.9140625</ele>
        <time>2026-03-02T10:05:28Z</time>
      </trkpt>
      <trkpt lat="52.251078318804502" lon="7.873672423884273">
        <ele>85.63671875</ele>
        <time>2026-03-02T10:05:32Z</time>
      </trkpt>
      <trkpt lat="52.251166496425867" lon="7.873369585722685">
        <ele>85.52734375</ele>
        <time>2026-03-02T10:05:36Z</time>
      </trkpt>
      <trkpt lat="52.25125215947628" lon="7.873089630156755">
        <ele>85.58203125</ele>
        <time>2026-03-02T10:05:40Z</time>
      </trkpt>
      <trkpt lat="52.251433879137039" lon="7.872802382335067">
        <ele>85.53125</ele>
        <time>2026-03-02T10:05:48Z</time>
      </trkpt>
      <trkpt lat="52.251578131690621" lon="7.872535837814212">
        <ele>85.56640625</ele>
        <time>2026-03-02T10:05:52Z</time>
      </trkpt>
      <trkpt lat="52.25172271952033" lon="7.872291840612888">
        <ele>85.98828125</ele>
        <time>2026-03-02T10:05:56Z</time>
      </trkpt>
      <trkpt lat="52.251864960417151" lon="7.872041137889028">
        <ele>85.796875</ele>
        <time>2026-03-02T10:06:00Z</time>
      </trkpt>
      <trkpt lat="52.252007117494941" lon="7.871785154566169">
        <ele>86.25</ele>
        <time>2026-03-02T10:06:04Z</time>
      </trkpt>
      <trkpt lat="52.252136366441846" lon="7.871509389951825">
        <ele>86.6953125</ele>
        <time>2026-03-02T10:06:08Z</time>
      </trkpt>
      <trkpt lat="52.252250025048852" lon="7.871227758005261">
        <ele>86.76171875</ele>
        <time>2026-03-02T10:06:12Z</time>
      </trkpt>
      <trkpt lat="52.252338118851185" lon="7.870916873216629">
        <ele>86.35546875</ele>
        <time>2026-03-02T10:06:16Z</time>
      </trkpt>
      <trkpt lat="52.252435432747006" lon="7.87061252631247">
        <ele>86.0546875</ele>
        <time>2026-03-02T10:06:20Z</time>
      </trkpt>
      <trkpt lat="52.252533584833145" lon="7.870285045355558">
        <ele>86.28125</ele>
        <time>2026-03-02T10:06:24Z</time>
      </trkpt>
      <trkpt lat="52.252611452713609" lon="7.869972987100482">
        <ele>86.41015625</ele>
        <time>2026-03-02T10:06:28Z</time>
      </trkpt>
      <trkpt lat="52.252635592594743" lon="7.869617342948914">
        <ele>86.19140625</ele>
        <time>2026-03-02T10:06:32Z</time>
      </trkpt>
      <trkpt lat="52.252588821575046" lon="7.869242923334241">
        <ele>85.41796875</ele>
        <time>2026-03-02T10:06:36Z</time>
      </trkpt>
      <trkpt lat="52.252538278698921" lon="7.868882333859801">
        <ele>85.6796875</ele>
        <time>2026-03-02T10:06:40Z</time>
      </trkpt>
      <trkpt lat="52.252491172403097" lon="7.868525767698884">
        <ele>85.88671875</ele>
        <time>2026-03-02T10:06:44Z</time>
      </trkpt>
      <trkpt lat="52.252474240958691" lon="7.868168782442808">
        <ele>85.80078125</ele>
        <time>2026-03-02T10:06:48Z</time>
      </trkpt>
      <trkpt lat="52.252525705844164" lon="7.867799391970038">
        <ele>85.58203125</ele>
        <time>2026-03-02T10:06:52Z</time>
      </trkpt>
      <trkpt lat="52.252592258155346" lon="7.867426900193095">
        <ele>85.359375</ele>
        <time>2026-03-02T10:06:56Z</time>
      </trkpt>
      <trkpt lat="52.252664007246494" lon="7.867040913552046">
        <ele>84.28515625</ele>
        <time>2026-03-02T10:07:00Z</time>
      </trkpt>
      <trkpt lat="52.252748999744654" lon="7.866622405126691">
        <ele>83.14453125</ele>
        <time>2026-03-02T10:07:04Z</time>
      </trkpt>
      <trkpt lat="52.252820078283548" lon="7.866190820932388">
        <ele>81.5078125</ele>
        <time>2026-03-02T10:07:08Z</time>
      </trkpt>
      <trkpt lat="52.252890821546316" lon="7.865760577842593">
        <ele>79.796875</ele>
        <time>2026-03-02T10:07:12Z</time>
      </trkpt>
      <trkpt lat="52.252979082986712" lon="7.86528155207634">
        <ele>79.07421875</ele>
        <time>2026-03-02T10:07:16Z</time>
      </trkpt>
      <trkpt lat="52.253063572570682" lon="7.864834880456328">
        <ele>78.62890625</ele>
        <time>2026-03-02T10:07:20Z</time>
      </trkpt>
      <trkpt lat="52.25313046015799" lon="7.864414360374212">
        <ele>78.2890625</ele>
        <time>2026-03-02T10:07:24Z</time>
      </trkpt>
      <trkpt lat="52.253198018297553" lon="7.8640057425946">
        <ele>78.3515625</ele>
        <time>2026-03-02T10:07:28Z</time>
      </trkpt>
      <trkpt lat="52.253294829279184" lon="7.863645488396287">
        <ele>78.45703125</ele>
        <time>2026-03-02T10:07:32Z</time>
      </trkpt>
      <trkpt lat="52.253520051017404" lon="7.863521771505475">
        <ele>78.484375</ele>
        <time>2026-03-02T10:07:36Z</time>
      </trkpt>
      <trkpt lat="52.253751810640097" lon="7.863389253616333">
        <ele>78.4140625</ele>
        <time>2026-03-02T10:07:40Z</time>
      </trkpt>
      <trkpt lat="52.253958256915212" lon="7.863244414329529">
        <ele>78.58203125</ele>
        <time>2026-03-02T10:07:44Z</time>
      </trkpt>
      <trkpt lat="52.254150370135903" lon="7.863088427111507">
        <ele>78.80859375</ele>
        <time>2026-03-02T10:07:48Z</time>
      </trkpt>
      <trkpt lat="52.254340806975961" lon="7.862933026626706">
        <ele>79.0078125</ele>
        <time>2026-03-02T10:07:52Z</time>
      </trkpt>
      <trkpt lat="52.254526717588305" lon="7.862748121842742">
        <ele>79.46484375</ele>
        <time>2026-03-02T10:07:56Z</time>
      </trkpt>
      <trkpt lat="52.254731068387628" lon="7.862600684165955">
        <ele>80.10546875</ele>
        <time>2026-03-02T10:08:00Z</time>
      </trkpt>
      <trkpt lat="52.254943633452058" lon="7.862473195418716">
        <ele>80.2890625</ele>
        <time>2026-03-02T10:08:04Z</time>
      </trkpt>
      <trkpt lat="52.255160389468074" lon="7.862397925928235">
        <ele>80.40625</ele>
        <time>2026-03-02T10:08:08Z</time>
      </trkpt>
      <trkpt lat="52.255404721945524" lon="7.862326763570309">
        <ele>79.02734375</ele>
        <time>2026-03-02T10:08:12Z</time>
      </trkpt>
      <trkpt lat="52.255687108263373" lon="7.862262139096856">
        <ele>77.40625</ele>
        <time>2026-03-02T10:08:16Z</time>
      </trkpt>
      <trkpt lat="52.256003441289067" lon="7.862171698361635">
        <ele>75.96875</ele>
        <time>2026-03-02T10:08:20Z</time>
      </trkpt>
      <trkpt lat="52.25633000023663" lon="7.862067008391023">
        <ele>75.59375</ele>
        <time>2026-03-02T10:08:24Z</time>
      </trkpt>
      <trkpt lat="52.256637364625931" lon="7.861952008679509">
        <ele>75.56640625</ele>
        <time>2026-03-02T10:08:28Z</time>
      </trkpt>
      <trkpt lat="52.256894605234265" lon="7.861893502995372">
        <ele>76.4296875</ele>
        <time>2026-03-02T10:08:32Z</time>
      </trkpt>
      <trkpt lat="52.257130220532417" lon="7.861814377829433">
        <ele>76.63671875</ele>
        <time>2026-03-02T10:08:36Z</time>
      </trkpt>
      <trkpt lat="52.25739324465394" lon="7.861733660101891">
        <ele>76.5078125</ele>
        <time>2026-03-02T10:08:40Z</time>
      </trkpt>
      <trkpt lat="52.257642187178135" lon="7.861666940152645">
        <ele>75.87890625</ele>
        <time>2026-03-02T10:08:44Z</time>
      </trkpt>
      <trkpt lat="52.257891800254583" lon="7.861589156091213">
        <ele>74.89453125</ele>
        <time>2026-03-02T10:08:48Z</time>
      </trkpt>
      <trkpt lat="52.258136635646224" lon="7.861520508304238">
        <ele>74.48828125</ele>
        <time>2026-03-02T10:08:52Z</time>
      </trkpt>
      <trkpt lat="52.258380046114326" lon="7.861443813890219">
        <ele>74.77734375</ele>
        <time>2026-03-02T10:08:56Z</time>
      </trkpt>
      <trkpt lat="52.258617002516985" lon="7.861359408125281">
        <ele>73.890625</ele>
        <time>2026-03-02T10:09:00Z</time>
      </trkpt>
      <trkpt lat="52.258828897029161" lon="7.861280702054501">
        <ele>72.88671875</ele>
        <time>2026-03-02T10:09:04Z</time>
      </trkpt>
      <trkpt lat="52.259030062705278" lon="7.861177437007427">
        <ele>72.49609375</ele>
        <time>2026-03-02T10:09:08Z</time>
      </trkpt>
      <trkpt lat="52.2590565495193" lon="7.860877700150013">
        <ele>72.07421875</ele>
        <time>2026-03-02T10:09:12Z</time>
      </trkpt>
      <trkpt lat="52.259031068533659" lon="7.860504873096943">
        <ele>70.7734375</ele>
        <time>2026-03-02T10:09:16Z</time>
      </trkpt>
      <trkpt lat="52.259046575054526" lon="7.860081251710653">
        <ele>70.08203125</ele>
        <time>2026-03-02T10:09:20Z</time>
      </trkpt>
      <trkpt lat="52.25906090810895" lon="7.859622342512012">
        <ele>71.13671875</ele>
        <time>2026-03-02T10:09:24Z</time>
      </trkpt>
      <trkpt lat="52.259036935865879" lon="7.859207522124052">
        <ele>72.40234375</ele>
        <time>2026-03-02T10:09:28Z</time>
      </trkpt>
      <trkpt lat="52.258998295292258" lon="7.858841568231583">
        <ele>73.78515625</ele>
        <time>2026-03-02T10:09:32Z</time>
      </trkpt>
      <trkpt lat="52.258954374119639" lon="7.858534287661314">
        <ele>74.9609375</ele>
        <time>2026-03-02T10:09:36Z</time>
      </trkpt>
      <trkpt lat="52.258900729939342" lon="7.858106894418597">
        <ele>75.9921875</ele>
        <time>2026-03-02T10:09:42Z</time>
      </trkpt>
      <trkpt lat="52.258855467662215" lon="7.857800284400582">
        <ele>76.171875</ele>
        <time>2026-03-02T10:09:46Z</time>
      </trkpt>
      <trkpt lat="52.258814815431833" lon="7.85744053311646">
        <ele>75.88671875</ele>
        <time>2026-03-02T10:09:50Z</time>
      </trkpt>
      <trkpt lat="52.258779192343354" lon="7.857079692184925">
        <ele>75.51171875</ele>
        <time>2026-03-02T10:09:54Z</time>
      </trkpt>
      <trkpt lat="52.258741138502955" lon="7.85673838108778">
        <ele>75.37109375</ele>
        <time>2026-03-02T10:09:58Z</time>
      </trkpt>
      <trkpt lat="52.258686069399118" lon="7.856409559026361">
        <ele>75.84765625</ele>
        <time>2026-03-02T10:10:02Z</time>
      </trkpt>
      <trkpt lat="52.258623288944364" lon="7.856073193252087">
        <ele>76.171875</ele>
        <time>2026-03-02T10:10:06Z</time>
      </trkpt>
      <trkpt lat="52.258532596752048" lon="7.855777395889163">
        <ele>76.640625</ele>
        <time>2026-03-02T10:10:10Z</time>
      </trkpt>
      <trkpt lat="52.258434360846877" lon="7.855498949065805">
        <ele>76.44921875</ele>
        <time>2026-03-02T10:10:14Z</time>
      </trkpt>
      <trkpt lat="52.258317768573761" lon="7.855232069268823">
        <ele>76.05078125</ele>
        <time>2026-03-02T10:10:18Z</time>
      </trkpt>
      <trkpt lat="52.258179802447557" lon="7.854953790083528">
        <ele>75.74609375</ele>
        <time>2026-03-02T10:10:22Z</time>
      </trkpt>
      <trkpt lat="52.258050050586462" lon="7.854683557525277">
        <ele>75.96484375</ele>
        <time>2026-03-02T10:10:26Z</time>
      </trkpt>
      <trkpt lat="52.257909988984466" lon="7.854410391300917">
        <ele>76.00390625</ele>
        <time>2026-03-02T10:10:30Z</time>
      </trkpt>
      <trkpt lat="52.25776900537312" lon="7.854128424078226">
        <ele>75.39453125</ele>
        <time>2026-03-02T10:10:34Z</time>
      </trkpt>
      <trkpt lat="52.257634643465281" lon="7.853876380249858">
        <ele>75.1796875</ele>
        <time>2026-03-02T10:10:38Z</time>
      </trkpt>
      <trkpt lat="52.257500030100346" lon="7.853602878749371">
        <ele>75.12109375</ele>
        <time>2026-03-02T10:10:42Z</time>
      </trkpt>
      <trkpt lat="52.257357370108366" lon="7.853297023102641">
        <ele>74.09375</ele>
        <time>2026-03-02T10:10:46Z</time>
      </trkpt>
      <trkpt lat="52.257293835282326" lon="7.852943558245897">
        <ele>73.47265625</ele>
        <time>2026-03-02T10:10:50Z</time>
      </trkpt>
      <trkpt lat="52.257258547469974" lon="7.852556817233563">
        <ele>73.546875</ele>
        <time>2026-03-02T10:10:54Z</time>
      </trkpt>
      <trkpt lat="52.257244884967804" lon="7.852167813107371">
        <ele>73.578125</ele>
        <time>2026-03-02T10:10:58Z</time>
      </trkpt>
      <trkpt lat="52.257217140868306" lon="7.851768499240279">
        <ele>73.09765625</ele>
        <time>2026-03-02T10:11:02Z</time>
      </trkpt>
      <trkpt lat="52.257185960188508" lon="7.851394163444638">
        <ele>73</ele>
        <time>2026-03-02T10:11:06Z</time>
      </trkpt>
      <trkpt lat="52.257156455889344" lon="7.851038184016943">
        <ele>72.90234375</ele>
        <time>2026-03-02T10:11:10Z</time>
      </trkpt>
      <trkpt lat="52.257124269381166" lon="7.850679773837328">
        <ele>72.8359375</ele>
        <time>2026-03-02T10:11:14Z</time>
      </trkpt>
      <trkpt lat="52.257093088701367" lon="7.850319519639015">
        <ele>72.90625</ele>
        <time>2026-03-02T10:11:18Z</time>
      </trkpt>
      <trkpt lat="52.257076241075993" lon="7.849964294582605">
        <ele>73.64453125</ele>
        <time>2026-03-02T10:11:22Z</time>
      </trkpt>
      <trkpt lat="52.257056878879666" lon="7.84965424798429">
        <ele>73.97265625</ele>
        <time>2026-03-02T10:11:26Z</time>
      </trkpt>
      <trkpt lat="52.257028631865978" lon="7.849321654066443">
        <ele>74</ele>
        <time>2026-03-02T10:11:30Z</time>
      </trkpt>
      <trkpt lat="52.257004240527749" lon="7.84900632686913">
        <ele>74</ele>
        <time>2026-03-02T10:11:34Z</time>
      </trkpt>
      <trkpt lat="52.256973395124078" lon="7.848693933337927">
        <ele>74.08203125</ele>
        <time>2026-03-02T10:11:38Z</time>
      </trkpt>
      <trkpt lat="52.256937101483345" lon="7.848356980830431">
        <ele>74.296875</ele>
        <time>2026-03-02T10:11:42Z</time>
      </trkpt>
      <trkpt lat="52.256856551393867" lon="7.848069733008742">
        <ele>74.765625</ele>
        <time>2026-03-02T10:11:46Z</time>
      </trkpt>
      <trkpt lat="52.25674482062459" lon="7.847813414409757">
        <ele>75.44921875</ele>
        <time>2026-03-02T10:11:50Z</time>
      </trkpt>
      <trkpt lat="52.256587659940124" lon="7.847487777471542">
        <ele>76.09375</ele>
        <time>2026-03-02T10:11:56Z</time>
      </trkpt>
      <trkpt lat="52.256461847573519" lon="7.847165912389755">
        <ele>77.38671875</ele>
        <time>2026-03-02T10:12:02Z</time>
      </trkpt>
      <trkpt lat="52.256351793184876" lon="7.846911689266563">
        <ele>78.359375</ele>
        <time>2026-03-02T10:12:08Z</time>
      </trkpt>
      <trkpt lat="52.256211061030626" lon="7.846623603254557">
        <ele>79.58984375</ele>
        <time>2026-03-02T10:12:14Z</time>
      </trkpt>
      <trkpt lat="52.256095977500081" lon="7.846349012106657">
        <ele>80.15234375</ele>
        <time>2026-03-02T10:12:20Z</time>
      </trkpt>
      <trkpt lat="52.256199074909091" lon="7.846021112054586">
        <ele>79.51171875</ele>
        <time>2026-03-02T10:12:26Z</time>
      </trkpt>
      <trkpt lat="52.256389679387212" lon="7.845858419314027">
        <ele>78.27734375</ele>
        <time>2026-03-02T10:12:30Z</time>
      </trkpt>
      <trkpt lat="52.256573662161827" lon="7.845630934461951">
        <ele>77.08203125</ele>
        <time>2026-03-02T10:12:34Z</time>
      </trkpt>
      <trkpt lat="52.256642561405897" lon="7.845212258398533">
        <ele>76.87890625</ele>
        <time>2026-03-02T10:12:38Z</time>
      </trkpt>
      <trkpt lat="52.256668880581856" lon="7.84480506554246">
        <ele>76.8203125</ele>
        <time>2026-03-02T10:12:42Z</time>
      </trkpt>
      <trkpt lat="52.256697546690702" lon="7.844422180205584">
        <ele>76.5859375</ele>
        <time>2026-03-02T10:12:46Z</time>
      </trkpt>
      <trkpt lat="52.256743730977178" lon="7.844044407829642">
        <ele>76.3203125</ele>
        <time>2026-03-02T10:12:50Z</time>
      </trkpt>
      <trkpt lat="52.256804332137108" lon="7.843671161681414">
        <ele>76.05859375</ele>
        <time>2026-03-02T10:12:54Z</time>
      </trkpt>
      <trkpt lat="52.256851270794868" lon="7.843295987695456">
        <ele>75.7890625</ele>
        <time>2026-03-02T10:12:58Z</time>
      </trkpt>
      <trkpt lat="52.256875997409225" lon="7.842916622757912">
        <ele>75.3828125</ele>
        <time>2026-03-02T10:13:02Z</time>
      </trkpt>
      <trkpt lat="52.256902400404215" lon="7.842511525377631">
        <ele>75.31640625</ele>
        <time>2026-03-02T10:13:06Z</time>
      </trkpt>
      <trkpt lat="52.256948668509722" lon="7.842176584526897">
        <ele>75.21875</ele>
        <time>2026-03-02T10:13:10Z</time>
      </trkpt>
      <trkpt lat="52.25701798684895" lon="7.841888079419732">
        <ele>75.06640625</ele>
        <time>2026-03-02T10:13:14Z</time>
      </trkpt>
      <trkpt lat="52.257041707634926" lon="7.841532938182354">
        <ele>75.015625</ele>
        <time>2026-03-02T10:13:18Z</time>
      </trkpt>
      <trkpt lat="52.257024860009551" lon="7.841189950704575">
        <ele>75.015625</ele>
        <time>2026-03-02T10:13:22Z</time>
      </trkpt>
      <trkpt lat="52.256999127566814" lon="7.840872695669532">
        <ele>75.39453125</ele>
        <time>2026-03-02T10:13:26Z</time>
      </trkpt>
      <trkpt lat="52.256982196122408" lon="7.840547310188413">
        <ele>76.015625</ele>
        <time>2026-03-02T10:13:30Z</time>
      </trkpt>
      <trkpt lat="52.256949506700039" lon="7.840248076245189">
        <ele>76.16015625</ele>
        <time>2026-03-02T10:13:34Z</time>
      </trkpt>
      <trkpt lat="52.256934251636267" lon="7.839918415993452">
        <ele>76.70703125</ele>
        <time>2026-03-02T10:13:38Z</time>
      </trkpt>
      <trkpt lat="52.256923019886017" lon="7.839588252827525">
        <ele>77.4453125</ele>
        <time>2026-03-02T10:13:42Z</time>
      </trkpt>
      <trkpt lat="52.256943807005882" lon="7.839280553162098">
        <ele>78.06640625</ele>
        <time>2026-03-02T10:13:46Z</time>
      </trkpt>
      <trkpt lat="52.256949422881007" lon="7.838968830183148">
        <ele>78.8359375</ele>
        <time>2026-03-02T10:13:50Z</time>
      </trkpt>
      <trkpt lat="52.256969790905714" lon="7.838541269302368">
        <ele>79.703125</ele>
        <time>2026-03-02T10:13:56Z</time>
      </trkpt>
      <trkpt lat="52.256986638531089" lon="7.83812259323895">
        <ele>80.1796875</ele>
        <time>2026-03-02T10:14:02Z</time>
      </trkpt>
      <trkpt lat="52.257002396509051" lon="7.837695199996233">
        <ele>80.2265625</ele>
        <time>2026-03-02T10:14:08Z</time>
      </trkpt>
      <trkpt lat="52.25701211951673" lon="7.837269064038992">
        <ele>80.41015625</ele>
        <time>2026-03-02T10:14:14Z</time>
      </trkpt>
      <trkpt lat="52.256999127566814" lon="7.836845777928829">
        <ele>81.21484375</ele>
        <time>2026-03-02T10:14:20Z</time>
      </trkpt>
      <trkpt lat="52.257016813382506" lon="7.836430789902806">
        <ele>81.140625</ele>
        <time>2026-03-02T10:14:26Z</time>
      </trkpt>
      <trkpt lat="52.257047658786178" lon="7.836130633950234">
        <ele>81.0078125</ele>
        <time>2026-03-02T10:14:30Z</time>
      </trkpt>
      <trkpt lat="52.257073977962136" lon="7.835839027538896">
        <ele>81.09765625</ele>
        <time>2026-03-02T10:14:34Z</time>
      </trkpt>
      <trkpt lat="52.257111528888345" lon="7.835402078926563">
        <ele>81.48828125</ele>
        <time>2026-03-02T10:14:40Z</time>
      </trkpt>
      <trkpt lat="52.257152264937758" lon="7.835078369826078">
        <ele>81.3125</ele>
        <time>2026-03-02T10:14:44Z</time>
      </trkpt>
      <trkpt lat="52.257185121998191" lon="7.834755498915911">
        <ele>81.48046875</ele>
        <time>2026-03-02T10:14:48Z</time>
      </trkpt>
      <trkpt lat="52.257205238565803" lon="7.83446179702878">
        <ele>81.828125</ele>
        <time>2026-03-02T10:14:52Z</time>
      </trkpt>
      <trkpt lat="52.257335158064961" lon="7.8341862000525">
        <ele>81.70703125</ele>
        <time>2026-03-02T10:14:58Z</time>
      </trkpt>
      <trkpt lat="52.257511345669627" lon="7.834114031866193">
        <ele>81.0078125</ele>
        <time>2026-03-02T10:15:02Z</time>
      </trkpt>
      <trkpt lat="52.257675463333726" lon="7.83396827057004">
        <ele>80.703125</ele>
        <time>2026-03-02T10:15:06Z</time>
      </trkpt>
      <trkpt lat="52.25788677111268" lon="7.833823263645172">
        <ele>79.6171875</ele>
        <time>2026-03-02T10:15:10Z</time>
      </trkpt>
      <trkpt lat="52.258122805505991" lon="7.833723686635494">
        <ele>78.90234375</ele>
        <time>2026-03-02T10:15:14Z</time>
      </trkpt>
      <trkpt lat="52.258382141590118" lon="7.833751095458865">
        <ele>78.625</ele>
        <time>2026-03-02T10:15:18Z</time>
      </trkpt>
      <trkpt lat="52.258675927296281" lon="7.833788646385074">
        <ele>77.3828125</ele>
        <time>2026-03-02T10:15:22Z</time>
      </trkpt>
      <trkpt lat="52.258949931710958" lon="7.83367607742548">
        <ele>77.33203125</ele>
        <time>2026-03-02T10:15:26Z</time>
      </trkpt>
      <trkpt lat="52.259185714647174" lon="7.833457309752703">
        <ele>79.59375</ele>
        <time>2026-03-02T10:15:30Z</time>
      </trkpt>
      <trkpt lat="52.259432813152671" lon="7.833284977823496">
        <ele>78.5234375</ele>
        <time>2026-03-02T10:15:34Z</time>
      </trkpt>
      <trkpt lat="52.259698184207082" lon="7.833118261769414">
        <ele>75.52734375</ele>
        <time>2026-03-02T10:15:38Z</time>
      </trkpt>
      <trkpt lat="52.260023737326264" lon="7.833096971735358">
        <ele>73.2578125</ele>
        <time>2026-03-02T10:15:42Z</time>
      </trkpt>
      <trkpt lat="52.260317439213395" lon="7.833267375826836">
        <ele>71.71484375</ele>
        <time>2026-03-02T10:15:46Z</time>
      </trkpt>
      <trkpt lat="52.260586330667138" lon="7.833503494039178">
        <ele>70.46875</ele>
        <time>2026-03-02T10:15:50Z</time>
      </trkpt>
      <trkpt lat="52.260840889066458" lon="7.833744809031487">
        <ele>70</ele>
        <time>2026-03-02T10:15:54Z</time>
      </trkpt>
      <trkpt lat="52.261095112189651" lon="7.83396240323782">
        <ele>70</ele>
        <time>2026-03-02T10:15:58Z</time>
      </trkpt>
      <trkpt lat="52.261329051107168" lon="7.834132807329297">
        <ele>70.25</ele>
        <time>2026-03-02T10:16:02Z</time>
      </trkpt>
      <trkpt lat="52.261581430211663" lon="7.834187624976039">
        <ele>70.796875</ele>
        <time>2026-03-02T10:16:06Z</time>
      </trkpt>
      <trkpt lat="52.261825008317828" lon="7.834202628582716">
        <ele>70.9375</ele>
        <time>2026-03-02T10:16:10Z</time>
      </trkpt>
      <trkpt lat="52.262053331360221" lon="7.834197599440813">
        <ele>70.85546875</ele>
        <time>2026-03-02T10:16:14Z</time>
      </trkpt>
      <trkpt lat="52.262286432087421" lon="7.834166586399078">
        <ele>71.24609375</ele>
        <time>2026-03-02T10:16:18Z</time>
      </trkpt>
      <trkpt lat="52.262500254437327" lon="7.834142781794071">
        <ele>71.76953125</ele>
        <time>2026-03-02T10:16:22Z</time>
      </trkpt>
      <trkpt lat="52.262702006846666" lon="7.834129957482219">
        <ele>72.21875</ele>
        <time>2026-03-02T10:16:26Z</time>
      </trkpt>
      <trkpt lat="52.262912979349494" lon="7.834102045744658">
        <ele>72.6953125</ele>
        <time>2026-03-02T10:16:30Z</time>
      </trkpt>
      <trkpt lat="52.263103667646646" lon="7.834062483161688">
        <ele>73.28515625</ele>
        <time>2026-03-02T10:16:34Z</time>
      </trkpt>
      <trkpt lat="52.263309778645635" lon="7.834036331623793">
        <ele>74.234375</ele>
        <time>2026-03-02T10:16:38Z</time>
      </trkpt>
      <trkpt lat="52.263503149151802" lon="7.834016969427466">
        <ele>75.11328125</ele>
        <time>2026-03-02T10:16:42Z</time>
      </trkpt>
      <trkpt lat="52.263758378103375" lon="7.833968354389072">
        <ele>76.8203125</ele>
        <time>2026-03-02T10:16:48Z</time>
      </trkpt>
      <trkpt lat="52.263988126069307" lon="7.834005234763026">
        <ele>78.23046875</ele>
        <time>2026-03-02T10:16:54Z</time>
      </trkpt>
      <trkpt lat="52.264047721400857" lon="7.83436356112361">
        <ele>77.96875</ele>
        <time>2026-03-02T10:17:00Z</time>
      </trkpt>
      <trkpt lat="52.26406155154109" lon="7.834782656282187">
        <ele>77.48828125</ele>
        <time>2026-03-02T10:17:06Z</time>
      </trkpt>
      <trkpt lat="52.264068759977818" lon="7.835185406729579">
        <ele>77.03125</ele>
        <time>2026-03-02T10:17:12Z</time>
      </trkpt>
      <trkpt lat="52.26420421153307" lon="7.835381962358952">
        <ele>77.19140625</ele>
        <time>2026-03-02T10:17:18Z</time>
      </trkpt>
      <trkpt lat="52.264446951448917" lon="7.835347931832075">
        <ele>78.31640625</ele>
        <time>2026-03-02T10:17:24Z</time>
      </trkpt>
      <trkpt lat="52.264494895935059" lon="7.835074011236429">
        <ele>79.1875</ele>
        <time>2026-03-02T10:17:32Z</time>
      </trkpt>
      <trkpt lat="52.264383835718036" lon="7.834702106192708">
        <ele>79.953125</ele>
        <time>2026-03-02T10:17:38Z</time>
      </trkpt>
      <trkpt lat="52.264274619519711" lon="7.834324836730957">
        <ele>80.015625</ele>
        <time>2026-03-02T10:17:44Z</time>
      </trkpt>
      <trkpt lat="52.26421401835978" lon="7.833925522863865">
        <ele>80.5546875</ele>
        <time>2026-03-02T10:17:50Z</time>
      </trkpt>
      <trkpt lat="52.264161044731736" lon="7.833503158763051">
        <ele>80.9765625</ele>
        <time>2026-03-02T10:17:56Z</time>
      </trkpt>
      <trkpt lat="52.264133552089334" lon="7.833200823515654">
        <ele>80.86328125</ele>
        <time>2026-03-02T10:18:00Z</time>
      </trkpt>
      <trkpt lat="52.2640869487077" lon="7.832899410277605">
        <ele>80.265625</ele>
        <time>2026-03-02T10:18:04Z</time>
      </trkpt>
      <trkpt lat="52.264036070555449" lon="7.832576455548406">
        <ele>79.8359375</ele>
        <time>2026-03-02T10:18:08Z</time>
      </trkpt>
      <trkpt lat="52.263986868783832" lon="7.832235815003514">
        <ele>79.984375</ele>
        <time>2026-03-02T10:18:12Z</time>
      </trkpt>
      <trkpt lat="52.263938169926405" lon="7.831914620473981">
        <ele>79.66796875</ele>
        <time>2026-03-02T10:18:16Z</time>
      </trkpt>
      <trkpt lat="52.263882178813219" lon="7.831599125638604">
        <ele>79.74609375</ele>
        <time>2026-03-02T10:18:20Z</time>
      </trkpt>
      <trkpt lat="52.26382702589035" lon="7.831289330497384">
        <ele>80.08984375</ele>
        <time>2026-03-02T10:18:24Z</time>
      </trkpt>
      <trkpt lat="52.263759886845946" lon="7.830885238945484">
        <ele>80.50390625</ele>
        <time>2026-03-02T10:18:30Z</time>
      </trkpt>
      <trkpt lat="52.263668021187186" lon="7.830480812117457">
        <ele>80.12109375</ele>
        <time>2026-03-02T10:18:36Z</time>
      </trkpt>
      <trkpt lat="52.263589734211564" lon="7.830040091648698">
        <ele>80.35546875</ele>
        <time>2026-03-02T10:18:42Z</time>
      </trkpt>
      <trkpt lat="52.263523014262319" lon="7.829730715602636">
        <ele>80.453125</ele>
        <time>2026-03-02T10:18:46Z</time>
      </trkpt>
      <trkpt lat="52.263456545770168" lon="7.829430140554905">
        <ele>80.671875</ele>
        <time>2026-03-02T10:18:50Z</time>
      </trkpt>
      <trkpt lat="52.263386640697718" lon="7.829146580770612">
        <ele>80.83203125</ele>
        <time>2026-03-02T10:18:54Z</time>
      </trkpt>
      <trkpt lat="52.263291338458657" lon="7.828755732625723">
        <ele>81.34765625</ele>
        <time>2026-03-02T10:19:00Z</time>
      </trkpt>
      <trkpt lat="52.26319519802928" lon="7.828361028805375">
        <ele>81.6953125</ele>
        <time>2026-03-02T10:19:06Z</time>
      </trkpt>
      <trkpt lat="52.263107942417264" lon="7.82797085121274">
        <ele>82.29296875</ele>
        <time>2026-03-02T10:19:12Z</time>
      </trkpt>
      <trkpt lat="52.263025296851993" lon="7.827629707753658">
        <ele>83.58203125</ele>
        <time>2026-03-02T10:19:18Z</time>
      </trkpt>
      <trkpt lat="52.262948770076036" lon="7.827314883470535">
        <ele>82.9296875</ele>
        <time>2026-03-02T10:19:24Z</time>
      </trkpt>
      <trkpt lat="52.262848438695073" lon="7.826922526583076">
        <ele>82.9765625</ele>
        <time>2026-03-02T10:19:30Z</time>
      </trkpt>
      <trkpt lat="52.262763697654009" lon="7.826627148315311">
        <ele>82.8203125</ele>
        <time>2026-03-02T10:19:34Z</time>
      </trkpt>
      <trkpt lat="52.262675017118454" lon="7.826308971270919">
        <ele>81.9375</ele>
        <time>2026-03-02T10:19:38Z</time>
      </trkpt>
      <trkpt lat="52.262584827840328" lon="7.82598945312202">
        <ele>81.47265625</ele>
        <time>2026-03-02T10:19:42Z</time>
      </trkpt>
      <trkpt lat="52.262489525601268" lon="7.825655518099666">
        <ele>81.77734375</ele>
        <time>2026-03-02T10:19:46Z</time>
      </trkpt>
      <trkpt lat="52.262395229190588" lon="7.825314039364457">
        <ele>82.2421875</ele>
        <time>2026-03-02T10:19:50Z</time>
      </trkpt>
      <trkpt lat="52.262309230864048" lon="7.824974404647946">
        <ele>82.234375</ele>
        <time>2026-03-02T10:19:54Z</time>
      </trkpt>
      <trkpt lat="52.262235218659043" lon="7.824637535959482">
        <ele>82.21875</ele>
        <time>2026-03-02T10:19:58Z</time>
      </trkpt>
      <trkpt lat="52.262185094878078" lon="7.824318269267678">
        <ele>82.3203125</ele>
        <time>2026-03-02T10:20:02Z</time>
      </trkpt>
      <trkpt lat="52.262151399627328" lon="7.824003947898746">
        <ele>82.10546875</ele>
        <time>2026-03-02T10:20:06Z</time>
      </trkpt>
      <trkpt lat="52.262140000239015" lon="7.82368753105402">
        <ele>82.55078125</ele>
        <time>2026-03-02T10:20:10Z</time>
      </trkpt>
      <trkpt lat="52.262118877843022" lon="7.823377065360546">
        <ele>83.08203125</ele>
        <time>2026-03-02T10:20:14Z</time>
      </trkpt>
      <trkpt lat="52.262082248926163" lon="7.823084620758891">
        <ele>83.4765625</ele>
        <time>2026-03-02T10:20:18Z</time>
      </trkpt>
      <trkpt lat="52.262016870081425" lon="7.822797456756234">
        <ele>83.2109375</ele>
        <time>2026-03-02T10:20:22Z</time>
      </trkpt>
      <trkpt lat="52.261946881189942" lon="7.822518004104495">
        <ele>82.8359375</ele>
        <time>2026-03-02T10:20:26Z</time>
      </trkpt>
      <trkpt lat="52.261840682476759" lon="7.822238551452756">
        <ele>82.546875</ele>
        <time>2026-03-02T10:20:30Z</time>
      </trkpt>
      <trkpt lat="52.261714618653059" lon="7.821987261995673">
        <ele>81.6328125</ele>
        <time>2026-03-02T10:20:34Z</time>
      </trkpt>
      <trkpt lat="52.261577490717173" lon="7.821743097156286">
        <ele>81.37109375</ele>
        <time>2026-03-02T10:20:38Z</time>
      </trkpt>
      <trkpt lat="52.261466095224023" lon="7.821485018357635">
        <ele>81.09375</ele>
        <time>2026-03-02T10:20:42Z</time>
      </trkpt>
      <trkpt lat="52.261382360011339" lon="7.821170361712575">
        <ele>80.73046875</ele>
        <time>2026-03-02T10:20:46Z</time>
      </trkpt>
      <trkpt lat="52.26129736751318" lon="7.820871798321605">
        <ele>80.98828125</ele>
        <time>2026-03-02T10:20:50Z</time>
      </trkpt>
      <trkpt lat="52.261216985061765" lon="7.820562673732638">
        <ele>81.01953125</ele>
        <time>2026-03-02T10:20:54Z</time>
      </trkpt>
      <trkpt lat="52.261135932058096" lon="7.82025296241045">
        <ele>80.828125</ele>
        <time>2026-03-02T10:20:58Z</time>
      </trkpt>
      <trkpt lat="52.26106527261436" lon="7.819963786751032">
        <ele>81.078125</ele>
        <time>2026-03-02T10:21:02Z</time>
      </trkpt>
      <trkpt lat="52.260992769151926" lon="7.81967930495739">
        <ele>81.34375</ele>
        <time>2026-03-02T10:21:06Z</time>
      </trkpt>
      <trkpt lat="52.260929150506854" lon="7.819389626383781">
        <ele>82.109375</ele>
        <time>2026-03-02T10:21:10Z</time>
      </trkpt>
      <trkpt lat="52.260853881016374" lon="7.819071197882295">
        <ele>82.33984375</ele>
        <time>2026-03-02T10:21:14Z</time>
      </trkpt>
      <trkpt lat="52.260787328705192" lon="7.81878269277513">
        <ele>82.16015625</ele>
        <time>2026-03-02T10:21:18Z</time>
      </trkpt>
      <trkpt lat="52.260704850777984" lon="7.818478597328067">
        <ele>81.78125</ele>
        <time>2026-03-02T10:21:22Z</time>
      </trkpt>
      <trkpt lat="52.260623630136251" lon="7.818185063079">
        <ele>81.8828125</ele>
        <time>2026-03-02T10:21:26Z</time>
      </trkpt>
      <trkpt lat="52.260544169694185" lon="7.817887337878346">
        <ele>82.140625</ele>
        <time>2026-03-02T10:21:30Z</time>
      </trkpt>
      <trkpt lat="52.260475102812052" lon="7.817593887448311">
        <ele>82.23046875</ele>
        <time>2026-03-02T10:21:34Z</time>
      </trkpt>
      <trkpt lat="52.260400922968984" lon="7.817303454503417">
        <ele>82.328125</ele>
        <time>2026-03-02T10:21:38Z</time>
      </trkpt>
      <trkpt lat="52.260324647650123" lon="7.817023163661361">
        <ele>82.15625</ele>
        <time>2026-03-02T10:21:42Z</time>
      </trkpt>
      <trkpt lat="52.260250970721245" lon="7.816740777343512">
        <ele>82.359375</ele>
        <time>2026-03-02T10:21:46Z</time>
      </trkpt>
      <trkpt lat="52.260185340419412" lon="7.816460318863392">
        <ele>82.59375</ele>
        <time>2026-03-02T10:21:50Z</time>
      </trkpt>
      <trkpt lat="52.260116022080183" lon="7.816174747422338">
        <ele>82.546875</ele>
        <time>2026-03-02T10:21:54Z</time>
      </trkpt>
      <trkpt lat="52.260046871379018" lon="7.815893366932869">
        <ele>82.6640625</ele>
        <time>2026-03-02T10:21:58Z</time>
      </trkpt>
      <trkpt lat="52.259935308247805" lon="7.81549958512187">
        <ele>82.7109375</ele>
        <time>2026-03-02T10:22:04Z</time>
      </trkpt>
      <trkpt lat="52.259866911917925" lon="7.815214013680816">
        <ele>83.03125</ele>
        <time>2026-03-02T10:22:08Z</time>
      </trkpt>
      <trkpt lat="52.259795749559999" lon="7.814926179125905">
        <ele>82.83984375</ele>
        <time>2026-03-02T10:22:12Z</time>
      </trkpt>
      <trkpt lat="52.259725760668516" lon="7.814620407298207">
        <ele>82.734375</ele>
        <time>2026-03-02T10:22:16Z</time>
      </trkpt>
      <trkpt lat="52.259670440107584" lon="7.814322430640459">
        <ele>83.37109375</ele>
        <time>2026-03-02T10:22:20Z</time>
      </trkpt>
      <trkpt lat="52.259588129818439" lon="7.813897803425789">
        <ele>84.16796875</ele>
        <time>2026-03-02T10:22:26Z</time>
      </trkpt>
      <trkpt lat="52.259532222524285" lon="7.8136036824435">
        <ele>84.43359375</ele>
        <time>2026-03-02T10:22:30Z</time>
      </trkpt>
      <trkpt lat="52.259487546980381" lon="7.813291205093265">
        <ele>84.82421875</ele>
        <time>2026-03-02T10:22:34Z</time>
      </trkpt>
      <trkpt lat="52.259445721283555" lon="7.812995994463563">
        <ele>85.41796875</ele>
        <time>2026-03-02T10:22:38Z</time>
      </trkpt>
      <trkpt lat="52.259390065446496" lon="7.812576983124018">
        <ele>86.3671875</ele>
        <time>2026-03-02T10:22:44Z</time>
      </trkpt>
      <trkpt lat="52.259338768199086" lon="7.812169957906008">
        <ele>87.25390625</ele>
        <time>2026-03-02T10:22:50Z</time>
      </trkpt>
      <trkpt lat="52.259292667731643" lon="7.811868963763118">
        <ele>87.1875</ele>
        <time>2026-03-02T10:22:54Z</time>
      </trkpt>
      <trkpt lat="52.25925050675869" lon="7.811568388715386">
        <ele>85.3671875</ele>
        <time>2026-03-02T10:22:58Z</time>
      </trkpt>
      <trkpt lat="52.259220080450177" lon="7.811254989355803">
        <ele>84.69140625</ele>
        <time>2026-03-02T10:23:02Z</time>
      </trkpt>
      <trkpt lat="52.259281016886234" lon="7.810932621359825">
        <ele>84.91015625</ele>
        <time>2026-03-02T10:23:06Z</time>
      </trkpt>
      <trkpt lat="52.259408589452505" lon="7.810658616945148">
        <ele>85.7265625</ele>
        <time>2026-03-02T10:23:10Z</time>
      </trkpt>
      <trkpt lat="52.259521828964353" lon="7.810401879251003">
        <ele>85.8359375</ele>
        <time>2026-03-02T10:23:14Z</time>
      </trkpt>
      <trkpt lat="52.259670188650489" lon="7.810075404122472">
        <ele>85.6796875</ele>
        <time>2026-03-02T10:23:20Z</time>
      </trkpt>
      <trkpt lat="52.259835312142968" lon="7.80974742025137">
        <ele>86.04296875</ele>
        <time>2026-03-02T10:23:26Z</time>
      </trkpt>
      <trkpt lat="52.259952491149306" lon="7.809493113309145">
        <ele>86.33203125</ele>
        <time>2026-03-02T10:23:30Z</time>
      </trkpt>
      <trkpt lat="52.260069837793708" lon="7.809248110279441">
        <ele>86.3125</ele>
        <time>2026-03-02T10:23:34Z</time>
      </trkpt>
      <trkpt lat="52.260180730372667" lon="7.808976201340556">
        <ele>86.28125</ele>
        <time>2026-03-02T10:23:38Z</time>
      </trkpt>
      <trkpt lat="52.260301848873496" lon="7.808713428676128">
        <ele>86.16015625</ele>
        <time>2026-03-02T10:23:42Z</time>
      </trkpt>
      <trkpt lat="52.260421710088849" lon="7.808423917740583">
        <ele>86.05078125</ele>
        <time>2026-03-02T10:23:46Z</time>
      </trkpt>
      <trkpt lat="52.260555569082499" lon="7.808173131197691">
        <ele>86.1171875</ele>
        <time>2026-03-02T10:23:50Z</time>
      </trkpt>
      <trkpt lat="52.260749693959951" lon="7.808149578049779">
        <ele>86.875</ele>
        <time>2026-03-02T10:23:54Z</time>
      </trkpt>
      <trkpt lat="52.260926384478807" lon="7.808148236945272">
        <ele>87.63671875</ele>
        <time>2026-03-02T10:23:58Z</time>
      </trkpt>
      <trkpt lat="52.261058315634727" lon="7.807941539213061">
        <ele>87.76171875</ele>
        <time>2026-03-02T10:24:02Z</time>
      </trkpt>
      <trkpt lat="52.261177590116858" lon="7.807684633880854">
        <ele>87.73046875</ele>
        <time>2026-03-02T10:24:06Z</time>
      </trkpt>
      <trkpt lat="52.261302061378956" lon="7.807424627244473">
        <ele>87.6953125</ele>
        <time>2026-03-02T10:24:10Z</time>
      </trkpt>
      <trkpt lat="52.261426951736212" lon="7.807191861793399">
        <ele>87.734375</ele>
        <time>2026-03-02T10:24:14Z</time>
      </trkpt>
      <trkpt lat="52.261548405513167" lon="7.806963119655848">
        <ele>87.765625</ele>
        <time>2026-03-02T10:24:18Z</time>
      </trkpt>
      <trkpt lat="52.261672206223011" lon="7.806708309799433">
        <ele>87.75</ele>
        <time>2026-03-02T10:24:22Z</time>
      </trkpt>
      <trkpt lat="52.261798605322838" lon="7.80644528567791">
        <ele>87.4609375</ele>
        <time>2026-03-02T10:24:26Z</time>
      </trkpt>
      <trkpt lat="52.261879239231348" lon="7.806152841076255">
        <ele>87.6328125</ele>
        <time>2026-03-02T10:24:30Z</time>
      </trkpt>
      <trkpt lat="52.261890638619661" lon="7.805811865255237">
        <ele>87.9296875</ele>
        <time>2026-03-02T10:24:34Z</time>
      </trkpt>
      <trkpt lat="52.261887788772583" lon="7.805468291044235">
        <ele>87.9140625</ele>
        <time>2026-03-02T10:24:38Z</time>
      </trkpt>
      <trkpt lat="52.261886112391949" lon="7.805144162848592">
        <ele>87.91015625</ele>
        <time>2026-03-02T10:24:42Z</time>
      </trkpt>
      <trkpt lat="52.261873539537191" lon="7.804824225604534">
        <ele>87.85546875</ele>
        <time>2026-03-02T10:24:46Z</time>
      </trkpt>
      <trkpt lat="52.261856272816658" lon="7.804480819031596">
        <ele>87.75</ele>
        <time>2026-03-02T10:24:50Z</time>
      </trkpt>
      <trkpt lat="52.26184219121933" lon="7.804126935079694">
        <ele>87.1953125</ele>
        <time>2026-03-02T10:24:54Z</time>
      </trkpt>
      <trkpt lat="52.261861553415656" lon="7.803775649517775">
        <ele>86.97265625</ele>
        <time>2026-03-02T10:24:58Z</time>
      </trkpt>
      <trkpt lat="52.261934811249375" lon="7.803435679525137">
        <ele>87.12109375</ele>
        <time>2026-03-02T10:25:02Z</time>
      </trkpt>
      <trkpt lat="52.262021480128169" lon="7.803093614056706">
        <ele>87.45703125</ele>
        <time>2026-03-02T10:25:06Z</time>
      </trkpt>
      <trkpt lat="52.262083338573575" lon="7.802780298516154">
        <ele>87.12109375</ele>
        <time>2026-03-02T10:25:10Z</time>
      </trkpt>
      <trkpt lat="52.262122230604291" lon="7.802438987419009">
        <ele>86.94921875</ele>
        <time>2026-03-02T10:25:14Z</time>
      </trkpt>
      <trkpt lat="52.262146957218647" lon="7.802090384066105">
        <ele>86.8515625</ele>
        <time>2026-03-02T10:25:18Z</time>
      </trkpt>
      <trkpt lat="52.262175120413303" lon="7.801709258928895">
        <ele>86.234375</ele>
        <time>2026-03-02T10:25:22Z</time>
      </trkpt>
      <trkpt lat="52.262207390740514" lon="7.801341293379664">
        <ele>86.3203125</ele>
        <time>2026-03-02T10:25:26Z</time>
      </trkpt>
      <trkpt lat="52.262241002172232" lon="7.800983805209398">
        <ele>86.30859375</ele>
        <time>2026-03-02T10:25:30Z</time>
      </trkpt>
      <trkpt lat="52.262265728786588" lon="7.800637297332287">
        <ele>86.53515625</ele>
        <time>2026-03-02T10:25:34Z</time>
      </trkpt>
      <trkpt lat="52.262305459007621" lon="7.800293387845159">
        <ele>86.9375</ele>
        <time>2026-03-02T10:25:38Z</time>
      </trkpt>
      <trkpt lat="52.26236455142498" lon="7.799952160567045">
        <ele>86.5703125</ele>
        <time>2026-03-02T10:25:42Z</time>
      </trkpt>
      <trkpt lat="52.262436132878065" lon="7.79964747838676">
        <ele>86.64453125</ele>
        <time>2026-03-02T10:25:46Z</time>
      </trkpt>
      <trkpt lat="52.262494303286076" lon="7.799326786771417">
        <ele>86.8125</ele>
        <time>2026-03-02T10:25:50Z</time>
      </trkpt>
      <trkpt lat="52.262517940253019" lon="7.799006681889296">
        <ele>86.98046875</ele>
        <time>2026-03-02T10:25:54Z</time>
      </trkpt>
      <trkpt lat="52.262532105669379" lon="7.798678614199162">
        <ele>87.50390625</ele>
        <time>2026-03-02T10:25:58Z</time>
      </trkpt>
      <trkpt lat="52.262534201145172" lon="7.798349540680647">
        <ele>88.11328125</ele>
        <time>2026-03-02T10:26:02Z</time>
      </trkpt>
      <trkpt lat="52.262522969394922" lon="7.798042176291347">
        <ele>88.6328125</ele>
        <time>2026-03-02T10:26:06Z</time>
      </trkpt>
      <trkpt lat="52.262489777058363" lon="7.797608412802219">
        <ele>89.421875</ele>
        <time>2026-03-02T10:26:12Z</time>
      </trkpt>
      <trkpt lat="52.262413250282407" lon="7.797212703153491">
        <ele>89.9453125</ele>
        <time>2026-03-02T10:26:18Z</time>
      </trkpt>
      <trkpt lat="52.262368323281407" lon="7.796789752319455">
        <ele>89.9921875</ele>
        <time>2026-03-02T10:26:24Z</time>
      </trkpt>
      <trkpt lat="52.262356420978904" lon="7.796405106782913">
        <ele>90.20703125</ele>
        <time>2026-03-02T10:26:30Z</time>
      </trkpt>
      <trkpt lat="52.262356504797935" lon="7.796100005507469">
        <ele>90.546875</ele>
        <time>2026-03-02T10:26:34Z</time>
      </trkpt>
      <trkpt lat="52.262346530333161" lon="7.795789204537869">
        <ele>90.82421875</ele>
        <time>2026-03-02T10:26:38Z</time>
      </trkpt>
      <trkpt lat="52.262315936386585" lon="7.795360218733549">
        <ele>91.70703125</ele>
        <time>2026-03-02T10:26:44Z</time>
      </trkpt>
      <trkpt lat="52.262304201722145" lon="7.795061152428389">
        <ele>92.671875</ele>
        <time>2026-03-02T10:26:48Z</time>
      </trkpt>
      <trkpt lat="52.26228148676455" lon="7.794652115553618">
        <ele>93.78125</ele>
        <time>2026-03-02T10:26:54Z</time>
      </trkpt>
      <trkpt lat="52.262267069891095" lon="7.794245928525925">
        <ele>94.125</ele>
        <time>2026-03-02T10:27:00Z</time>
      </trkpt>
      <trkpt lat="52.262268578633666" lon="7.793849464505911">
        <ele>94.75390625</ele>
        <time>2026-03-02T10:27:06Z</time>
      </trkpt>
      <trkpt lat="52.262274110689759" lon="7.793444618582726">
        <ele>95.875</ele>
        <time>2026-03-02T10:27:12Z</time>
      </trkpt>
      <trkpt lat="52.262268578633666" lon="7.793078916147351">
        <ele>96.1953125</ele>
        <time>2026-03-02T10:27:18Z</time>
      </trkpt>
      <trkpt lat="52.262265812605619" lon="7.79267817735672">
        <ele>96.8359375</ele>
        <time>2026-03-02T10:27:24Z</time>
      </trkpt>
      <trkpt lat="52.262265980243683" lon="7.792298728600144">
        <ele>97</ele>
        <time>2026-03-02T10:27:30Z</time>
      </trkpt>
      <trkpt lat="52.262260699644685" lon="7.791947945952416">
        <ele>96.5</ele>
        <time>2026-03-02T10:27:36Z</time>
      </trkpt>
      <trkpt lat="52.262279475107789" lon="7.791612502187491">
        <ele>96.53515625</ele>
        <time>2026-03-02T10:27:42Z</time>
      </trkpt>
      <trkpt lat="52.262352062389255" lon="7.791280914098024">
        <ele>96.63671875</ele>
        <time>2026-03-02T10:27:48Z</time>
      </trkpt>
      <trkpt lat="52.262423476204276" lon="7.790991067886353">
        <ele>97.4609375</ele>
        <time>2026-03-02T10:27:54Z</time>
      </trkpt>
      <trkpt lat="52.262498661875725" lon="7.79070801101625">
        <ele>98.82421875</ele>
        <time>2026-03-02T10:28:00Z</time>
      </trkpt>
      <trkpt lat="52.262583402916789" lon="7.790384888648987">
        <ele>98.7109375</ele>
        <time>2026-03-02T10:28:06Z</time>
      </trkpt>
      <trkpt lat="52.262677950784564" lon="7.7900698967278">
        <ele>97.140625</ele>
        <time>2026-03-02T10:28:12Z</time>
      </trkpt>
      <trkpt lat="52.26277057081461" lon="7.789732357487083">
        <ele>96.140625</ele>
        <time>2026-03-02T10:28:20Z</time>
      </trkpt>
      <trkpt lat="52.262749699875712" lon="7.789508476853371">
        <ele>95.56640625</ele>
        <time>2026-03-02T10:28:34Z</time>
      </trkpt>
      <trkpt lat="52.262563537806273" lon="7.789553487673402">
        <ele>93.67578125</ele>
        <time>2026-03-02T10:28:40Z</time>
      </trkpt>
      <trkpt lat="52.262322558090091" lon="7.78957637026906">
        <ele>97.9765625</ele>
        <time>2026-03-02T10:28:46Z</time>
      </trkpt>
      <trkpt lat="52.262095659971237" lon="7.789657590910792">
        <ele>101.078125</ele>
        <time>2026-03-02T10:28:52Z</time>
      </trkpt>
      <trkpt lat="52.261862643063068" lon="7.789717018604279">
        <ele>100.87890625</ele>
        <time>2026-03-02T10:28:58Z</time>
      </trkpt>
      <trkpt lat="52.26161546073854" lon="7.789791533723474">
        <ele>100.95703125</ele>
        <time>2026-03-02T10:29:04Z</time>
      </trkpt>
      <trkpt lat="52.261371128261089" lon="7.789878370240331">
        <ele>101.52734375</ele>
        <time>2026-03-02T10:29:10Z</time>
      </trkpt>
      <trkpt lat="52.26112050935626" lon="7.789979539811611">
        <ele>102.078125</ele>
        <time>2026-03-02T10:29:16Z</time>
      </trkpt>
      <trkpt lat="52.260897718369961" lon="7.790078865364194">
        <ele>102.12109375</ele>
        <time>2026-03-02T10:29:22Z</time>
      </trkpt>
      <trkpt lat="52.260706694796681" lon="7.790143070742488">
        <ele>102.2265625</ele>
        <time>2026-03-02T10:29:28Z</time>
      </trkpt>
      <trkpt lat="52.26050578057766" lon="7.790213730186224">
        <ele>102.9453125</ele>
        <time>2026-03-02T10:29:38Z</time>
      </trkpt>
      <trkpt lat="52.260334370657802" lon="7.790155727416277">
        <ele>103.80859375</ele>
        <time>2026-03-02T10:30:02Z</time>
      </trkpt>
      <trkpt lat="52.260173773393035" lon="7.790264608338475">
        <ele>104.26953125</ele>
        <time>2026-03-02T11:17:33Z</time>
      </trkpt>
      <trkpt lat="52.260365216061473" lon="7.790167881175876">
        <ele>103.65234375</ele>
        <time>2026-03-02T11:23:37Z</time>
      </trkpt>
      <trkpt lat="52.260624216869473" lon="7.790080793201923">
        <ele>102.71875</ele>
        <time>2026-03-02T11:23:43Z</time>
      </trkpt>
      <trkpt lat="52.260826388373971" lon="7.790061347186565">
        <ele>102.1796875</ele>
        <time>2026-03-02T11:23:47Z</time>
      </trkpt>
      <trkpt lat="52.261036857962608" lon="7.789998315274715">
        <ele>102.1328125</ele>
        <time>2026-03-02T11:23:51Z</time>
      </trkpt>
      <trkpt lat="52.261252189055085" lon="7.789899241179228">
        <ele>101.87890625</ele>
        <time>2026-03-02T11:23:55Z</time>
      </trkpt>
      <trkpt lat="52.261495599523187" lon="7.78983780182898">
        <ele>101.20703125</ele>
        <time>2026-03-02T11:23:59Z</time>
      </trkpt>
      <trkpt lat="52.261727191507816" lon="7.789735123515129">
        <ele>100.875</ele>
        <time>2026-03-02T11:24:03Z</time>
      </trkpt>
      <trkpt lat="52.261956101283431" lon="7.789648035541177">
        <ele>101.06640625</ele>
        <time>2026-03-02T11:24:07Z</time>
      </trkpt>
      <trkpt lat="52.262188363820314" lon="7.789581315591931">
        <ele>100.36328125</ele>
        <time>2026-03-02T11:24:11Z</time>
      </trkpt>
      <trkpt lat="52.262415094301105" lon="7.789557846263051">
        <ele>96.33984375</ele>
        <time>2026-03-02T11:24:15Z</time>
      </trkpt>
      <trkpt lat="52.262630257755518" lon="7.789535047486424">
        <ele>93.5</ele>
        <time>2026-03-02T11:24:19Z</time>
      </trkpt>
      <trkpt lat="52.262803092598915" lon="7.789712660014629">
        <ele>96.57421875</ele>
        <time>2026-03-02T11:24:23Z</time>
      </trkpt>
      <trkpt lat="52.262714495882392" lon="7.79002052731812">
        <ele>97.234375</ele>
        <time>2026-03-02T11:24:27Z</time>
      </trkpt>
      <trkpt lat="52.262634029611945" lon="7.790335603058338">
        <ele>98.7578125</ele>
        <time>2026-03-02T11:24:31Z</time>
      </trkpt>
      <trkpt lat="52.262534368783236" lon="7.790668113157153">
        <ele>99.56640625</ele>
        <time>2026-03-02T11:24:35Z</time>
      </trkpt>
      <trkpt lat="52.262441832572222" lon="7.790988720953465">
        <ele>97.828125</ele>
        <time>2026-03-02T11:24:39Z</time>
      </trkpt>
      <trkpt lat="52.26234644651413" lon="7.791345370933414">
        <ele>96.71875</ele>
        <time>2026-03-02T11:24:43Z</time>
      </trkpt>
      <trkpt lat="52.262286599725485" lon="7.791748540475965">
        <ele>96.6171875</ele>
        <time>2026-03-02T11:24:47Z</time>
      </trkpt>
      <trkpt lat="52.262269333004951" lon="7.792237037792802">
        <ele>96.9140625</ele>
        <time>2026-03-02T11:24:51Z</time>
      </trkpt>
      <trkpt lat="52.262280061841011" lon="7.792741544544697">
        <ele>96.7265625</ele>
        <time>2026-03-02T11:24:55Z</time>
      </trkpt>
      <trkpt lat="52.262274948880076" lon="7.793301036581397">
        <ele>96.0625</ele>
        <time>2026-03-02T11:24:59Z</time>
      </trkpt>
      <trkpt lat="52.262278720736504" lon="7.793855164200068">
        <ele>94.71875</ele>
        <time>2026-03-02T11:25:03Z</time>
      </trkpt>
      <trkpt lat="52.262284671887755" lon="7.794409710913897">
        <ele>93.94140625</ele>
        <time>2026-03-02T11:25:07Z</time>
      </trkpt>
      <trkpt lat="52.262309230864048" lon="7.794962413609028">
        <ele>93.015625</ele>
        <time>2026-03-02T11:25:11Z</time>
      </trkpt>
      <trkpt lat="52.262339740991592" lon="7.795497933402658">
        <ele>91.39453125</ele>
        <time>2026-03-02T11:25:15Z</time>
      </trkpt>
      <trkpt lat="52.262355415150523" lon="7.796046361327171">
        <ele>90.6015625</ele>
        <time>2026-03-02T11:25:19Z</time>
      </trkpt>
      <trkpt lat="52.262360863387585" lon="7.796587999910116">
        <ele>90.015625</ele>
        <time>2026-03-02T11:25:23Z</time>
      </trkpt>
      <trkpt lat="52.262393049895763" lon="7.797092758119106">
        <ele>90.1015625</ele>
        <time>2026-03-02T11:25:27Z</time>
      </trkpt>
      <trkpt lat="52.262463793158531" lon="7.797559797763825">
        <ele>89.4140625</ele>
        <time>2026-03-02T11:25:31Z</time>
      </trkpt>
      <trkpt lat="52.262521460652351" lon="7.79801887460053">
        <ele>88.671875</ele>
        <time>2026-03-02T11:25:35Z</time>
      </trkpt>
      <trkpt lat="52.262536464259028" lon="7.798501504585147">
        <ele>87.8359375</ele>
        <time>2026-03-02T11:25:39Z</time>
      </trkpt>
      <trkpt lat="52.262519113719463" lon="7.798987571150065">
        <ele>86.984375</ele>
        <time>2026-03-02T11:25:43Z</time>
      </trkpt>
      <trkpt lat="52.26247251033783" lon="7.799458969384432">
        <ele>86.72265625</ele>
        <time>2026-03-02T11:25:47Z</time>
      </trkpt>
      <trkpt lat="52.262349966913462" lon="7.799915699288249">
        <ele>86.50390625</ele>
        <time>2026-03-02T11:25:51Z</time>
      </trkpt>
      <trkpt lat="52.262279223650694" lon="7.800345188006759">
        <ele>86.9921875</ele>
        <time>2026-03-02T11:25:55Z</time>
      </trkpt>
      <trkpt lat="52.262250808998942" lon="7.800789931789041">
        <ele>86.26171875</ele>
        <time>2026-03-02T11:25:59Z</time>
      </trkpt>
      <trkpt lat="52.262211497873068" lon="7.801234927028418">
        <ele>86.3046875</ele>
        <time>2026-03-02T11:26:03Z</time>
      </trkpt>
      <trkpt lat="52.262169839814305" lon="7.801684867590666">
        <ele>86.1953125</ele>
        <time>2026-03-02T11:26:07Z</time>
      </trkpt>
      <trkpt lat="52.262127762660384" lon="7.802106058225036">
        <ele>86.7734375</ele>
        <time>2026-03-02T11:26:11Z</time>
      </trkpt>
      <trkpt lat="52.262091552838683" lon="7.802501264959574">
        <ele>86.86328125</ele>
        <time>2026-03-02T11:26:15Z</time>
      </trkpt>
      <trkpt lat="52.262051487341523" lon="7.802888844162226">
        <ele>87.2265625</ele>
        <time>2026-03-02T11:26:19Z</time>
      </trkpt>
      <trkpt lat="52.261967081576586" lon="7.803268292918801">
        <ele>87.2578125</ele>
        <time>2026-03-02T11:26:23Z</time>
      </trkpt>
      <trkpt lat="52.26186515763402" lon="7.803664337843657">
        <ele>86.89453125</ele>
        <time>2026-03-02T11:26:27Z</time>
      </trkpt>
      <trkpt lat="52.261827187612653" lon="7.804076811298728">
        <ele>87.03125</ele>
        <time>2026-03-02T11:26:31Z</time>
      </trkpt>
      <trkpt lat="52.261842023581266" lon="7.804478723555803">
        <ele>87.68359375</ele>
        <time>2026-03-02T11:26:35Z</time>
      </trkpt>
      <trkpt lat="52.26185392588377" lon="7.804853059351444">
        <ele>87.76953125</ele>
        <time>2026-03-02T11:26:39Z</time>
      </trkpt>
      <trkpt lat="52.26186809130013" lon="7.805214235559106">
        <ele>87.83203125</ele>
        <time>2026-03-02T11:26:43Z</time>
      </trkpt>
      <trkpt lat="52.261887956410646" lon="7.805581111460924">
        <ele>87.91796875</ele>
        <time>2026-03-02T11:26:47Z</time>
      </trkpt>
      <trkpt lat="52.261891979724169" lon="7.805968774482608">
        <ele>87.85546875</ele>
        <time>2026-03-02T11:26:51Z</time>
      </trkpt>
      <trkpt lat="52.261828109622002" lon="7.806359203532338">
        <ele>87.33984375</ele>
        <time>2026-03-02T11:26:55Z</time>
      </trkpt>
      <trkpt lat="52.261680755764246" lon="7.806662125512958">
        <ele>87.67578125</ele>
        <time>2026-03-02T11:26:59Z</time>
      </trkpt>
      <trkpt lat="52.261534072458744" lon="7.806953899562359">
        <ele>87.68359375</ele>
        <time>2026-03-02T11:27:03Z</time>
      </trkpt>
      <trkpt lat="52.261374481022358" lon="7.807254642248154">
        <ele>87.640625</ele>
        <time>2026-03-02T11:27:07Z</time>
      </trkpt>
      <trkpt lat="52.261222517117858" lon="7.807561755180359">
        <ele>87.6484375</ele>
        <time>2026-03-02T11:27:11Z</time>
      </trkpt>
      <trkpt lat="52.261070972308517" lon="7.80786233022809">
        <ele>87.64453125</ele>
        <time>2026-03-02T11:27:15Z</time>
      </trkpt>
      <trkpt lat="52.260880200192332" lon="7.808132562786341">
        <ele>87.40234375</ele>
        <time>2026-03-02T11:27:19Z</time>
      </trkpt>
      <trkpt lat="52.260608207434416" lon="7.808139938861132">
        <ele>86.28515625</ele>
        <time>2026-03-02T11:27:23Z</time>
      </trkpt>
      <trkpt lat="52.260403437539935" lon="7.80840715393424">
        <ele>85.93359375</ele>
        <time>2026-03-02T11:27:27Z</time>
      </trkpt>
      <trkpt lat="52.260259268805385" lon="7.808744357898831">
        <ele>86.09375</ele>
        <time>2026-03-02T11:27:31Z</time>
      </trkpt>
      <trkpt lat="52.260117447003722" lon="7.809052728116512">
        <ele>86.15625</ele>
        <time>2026-03-02T11:27:35Z</time>
      </trkpt>
      <trkpt lat="52.259980654343963" lon="7.809360092505813">
        <ele>86.16796875</ele>
        <time>2026-03-02T11:27:39Z</time>
      </trkpt>
      <trkpt lat="52.259847046807408" lon="7.809663852676749">
        <ele>86.09375</ele>
        <time>2026-03-02T11:27:43Z</time>
      </trkpt>
      <trkpt lat="52.259705476462841" lon="7.809966271743178">
        <ele>85.7421875</ele>
        <time>2026-03-02T11:27:47Z</time>
      </trkpt>
      <trkpt lat="52.259564409032464" lon="7.810280174016953">
        <ele>85.7109375</ele>
        <time>2026-03-02T11:27:51Z</time>
      </trkpt>
      <trkpt lat="52.259416719898582" lon="7.810575636103749">
        <ele>85.890625</ele>
        <time>2026-03-02T11:27:55Z</time>
      </trkpt>
      <trkpt lat="52.259268024936318" lon="7.810890544205904">
        <ele>84.953125</ele>
        <time>2026-03-02T11:27:59Z</time>
      </trkpt>
      <trkpt lat="52.259206837043166" lon="7.811272758990526">
        <ele>84.6640625</ele>
        <time>2026-03-02T11:28:03Z</time>
      </trkpt>
      <trkpt lat="52.259242292493582" lon="7.811664948239923">
        <ele>85.80078125</ele>
        <time>2026-03-02T11:28:07Z</time>
      </trkpt>
      <trkpt lat="52.259294260293245" lon="7.81203861348331">
        <ele>87.16796875</ele>
        <time>2026-03-02T11:28:11Z</time>
      </trkpt>
      <trkpt lat="52.259346731007099" lon="7.81238310970366">
        <ele>86.83984375</ele>
        <time>2026-03-02T11:28:15Z</time>
      </trkpt>
      <trkpt lat="52.259397441521287" lon="7.812747722491622">
        <ele>85.73046875</ele>
        <time>2026-03-02T11:28:19Z</time>
      </trkpt>
      <trkpt lat="52.259453935548663" lon="7.813152065500617">
        <ele>85.0234375</ele>
        <time>2026-03-02T11:28:23Z</time>
      </trkpt>
      <trkpt lat="52.259521661326289" lon="7.813593288883567">
        <ele>84.38671875</ele>
        <time>2026-03-02T11:28:27Z</time>
      </trkpt>
      <trkpt lat="52.259594583883882" lon="7.814054628834128">
        <ele>83.859375</ele>
        <time>2026-03-02T11:28:31Z</time>
      </trkpt>
      <trkpt lat="52.259693322703242" lon="7.81451010145247">
        <ele>82.91015625</ele>
        <time>2026-03-02T11:28:35Z</time>
      </trkpt>
      <trkpt lat="52.259787367656827" lon="7.81492399983108">
        <ele>82.79296875</ele>
        <time>2026-03-02T11:28:39Z</time>
      </trkpt>
      <trkpt lat="52.259881496429443" lon="7.815315769985318">
        <ele>82.875</ele>
        <time>2026-03-02T11:28:43Z</time>
      </trkpt>
      <trkpt lat="52.25997076369822" lon="7.815721537917852">
        <ele>82.55078125</ele>
        <time>2026-03-02T11:28:47Z</time>
      </trkpt>
      <trkpt lat="52.260076543316245" lon="7.816138956695795">
        <ele>82.4765625</ele>
        <time>2026-03-02T11:28:51Z</time>
      </trkpt>
      <trkpt lat="52.260180981829762" lon="7.816550591960549">
        <ele>82.4921875</ele>
        <time>2026-03-02T11:28:55Z</time>
      </trkpt>
      <trkpt lat="52.260297238826752" lon="7.816980248317123">
        <ele>82.07421875</ele>
        <time>2026-03-02T11:28:59Z</time>
      </trkpt>
      <trkpt lat="52.260411567986012" lon="7.817417113110423">
        <ele>82.29296875</ele>
        <time>2026-03-02T11:29:03Z</time>
      </trkpt>
      <trkpt lat="52.260517934337258" lon="7.817847859114409">
        <ele>82.07421875</ele>
        <time>2026-03-02T11:29:07Z</time>
      </trkpt>
      <trkpt lat="52.260620445013046" lon="7.818261589854956">
        <ele>81.703125</ele>
        <time>2026-03-02T11:29:11Z</time>
      </trkpt>
      <trkpt lat="52.260732259601355" lon="7.818672554567456">
        <ele>81.89453125</ele>
        <time>2026-03-02T11:29:15Z</time>
      </trkpt>
      <trkpt lat="52.260837117210031" lon="7.819070443511009">
        <ele>82.28515625</ele>
        <time>2026-03-02T11:29:19Z</time>
      </trkpt>
      <trkpt lat="52.260939963161945" lon="7.819475876167417">
        <ele>81.83984375</ele>
        <time>2026-03-02T11:29:23Z</time>
      </trkpt>
      <trkpt lat="52.261042725294828" lon="7.81990310177207">
        <ele>81.0859375</ele>
        <time>2026-03-02T11:29:27Z</time>
      </trkpt>
      <trkpt lat="52.261134590953588" lon="7.820304427295923">
        <ele>80.8046875</ele>
        <time>2026-03-02T11:29:31Z</time>
      </trkpt>
      <trkpt lat="52.261235089972615" lon="7.820702316239476">
        <ele>81.0859375</ele>
        <time>2026-03-02T11:29:35Z</time>
      </trkpt>
      <trkpt lat="52.261330895125866" lon="7.821099115535617">
        <ele>80.640625</ele>
        <time>2026-03-02T11:29:39Z</time>
      </trkpt>
      <trkpt lat="52.261449499055743" lon="7.821497675031424">
        <ele>81.01953125</ele>
        <time>2026-03-02T11:29:43Z</time>
      </trkpt>
      <trkpt lat="52.261602049693465" lon="7.821835717186332">
        <ele>81.29296875</ele>
        <time>2026-03-02T11:29:47Z</time>
      </trkpt>
      <trkpt lat="52.261764574795961" lon="7.822136124596">
        <ele>81.91796875</ele>
        <time>2026-03-02T11:29:51Z</time>
      </trkpt>
      <trkpt lat="52.261904552578926" lon="7.822470227256417">
        <ele>82.6484375</ele>
        <time>2026-03-02T11:29:55Z</time>
      </trkpt>
      <trkpt lat="52.262015780434012" lon="7.822840455919504">
        <ele>83.203125</ele>
        <time>2026-03-02T11:29:59Z</time>
      </trkpt>
      <trkpt lat="52.262089038267732" lon="7.82324580475688">
        <ele>83.171875</ele>
        <time>2026-03-02T11:30:03Z</time>
      </trkpt>
      <trkpt lat="52.262121140956879" lon="7.823675544932485">
        <ele>82.453125</ele>
        <time>2026-03-02T11:30:07Z</time>
      </trkpt>
      <trkpt lat="52.262152656912804" lon="7.824133532121778">
        <ele>82.109375</ele>
        <time>2026-03-02T11:30:11Z</time>
      </trkpt>
      <trkpt lat="52.262215185910463" lon="7.824616581201553">
        <ele>82.10546875</ele>
        <time>2026-03-02T11:30:15Z</time>
      </trkpt>
      <trkpt lat="52.262316606938839" lon="7.825079429894686">
        <ele>82.0703125</ele>
        <time>2026-03-02T11:30:19Z</time>
      </trkpt>
      <trkpt lat="52.262429930269718" lon="7.825539512559772">
        <ele>81.76171875</ele>
        <time>2026-03-02T11:30:23Z</time>
      </trkpt>
      <trkpt lat="52.262541661038995" lon="7.825981741771102">
        <ele>81.24609375</ele>
        <time>2026-03-02T11:30:27Z</time>
      </trkpt>
      <trkpt lat="52.262668563053012" lon="7.82642531208694">
        <ele>81.81640625</ele>
        <time>2026-03-02T11:30:31Z</time>
      </trkpt>
      <trkpt lat="52.262794962152839" lon="7.826835354790092">
        <ele>82.71875</ele>
        <time>2026-03-02T11:30:35Z</time>
      </trkpt>
      <trkpt lat="52.262900909408927" lon="7.827201643958688">
        <ele>82.5703125</ele>
        <time>2026-03-02T11:30:39Z</time>
      </trkpt>
      <trkpt lat="52.262995289638638" lon="7.827572375535965">
        <ele>83.27734375</ele>
        <time>2026-03-02T11:30:43Z</time>
      </trkpt>
      <trkpt lat="52.263090508058667" lon="7.827997002750635">
        <ele>81.9453125</ele>
        <time>2026-03-02T11:30:47Z</time>
      </trkpt>
      <trkpt lat="52.263203328475356" lon="7.828465634956956">
        <ele>81.48046875</ele>
        <time>2026-03-02T11:30:51Z</time>
      </trkpt>
      <trkpt lat="52.263314975425601" lon="7.828924041241407">
        <ele>80.96875</ele>
        <time>2026-03-02T11:30:55Z</time>
      </trkpt>
      <trkpt lat="52.263419916853309" lon="7.82939275726676">
        <ele>80.515625</ele>
        <time>2026-03-02T11:30:59Z</time>
      </trkpt>
      <trkpt lat="52.26353726349771" lon="7.829861389473081">
        <ele>80.27734375</ele>
        <time>2026-03-02T11:31:03Z</time>
      </trkpt>
      <trkpt lat="52.263625022023916" lon="7.830284088850021">
        <ele>80.1328125</ele>
        <time>2026-03-02T11:31:07Z</time>
      </trkpt>
      <trkpt lat="52.263711774721742" lon="7.830696562305093">
        <ele>80.234375</ele>
        <time>2026-03-02T11:31:11Z</time>
      </trkpt>
      <trkpt lat="52.263789474964142" lon="7.831118926405907">
        <ele>80.24609375</ele>
        <time>2026-03-02T11:31:15Z</time>
      </trkpt>
      <trkpt lat="52.263858122751117" lon="7.831572974100709">
        <ele>79.64453125</ele>
        <time>2026-03-02T11:31:19Z</time>
      </trkpt>
      <trkpt lat="52.263932218775153" lon="7.832018220797181">
        <ele>79.62890625</ele>
        <time>2026-03-02T11:31:23Z</time>
      </trkpt>
      <trkpt lat="52.263997262343764" lon="7.832463635131717">
        <ele>79.64453125</ele>
        <time>2026-03-02T11:31:27Z</time>
      </trkpt>
      <trkpt lat="52.264061886817217" lon="7.83291575498879">
        <ele>79.94140625</ele>
        <time>2026-03-02T11:31:31Z</time>
      </trkpt>
      <trkpt lat="52.264117877930403" lon="7.833328563719988">
        <ele>80.5859375</ele>
        <time>2026-03-02T11:31:35Z</time>
      </trkpt>
      <trkpt lat="52.264163307845592" lon="7.833730727434158">
        <ele>80.6484375</ele>
        <time>2026-03-02T11:31:39Z</time>
      </trkpt>
      <trkpt lat="52.264218628406525" lon="7.834113696590066">
        <ele>79.98828125</ele>
        <time>2026-03-02T11:31:43Z</time>
      </trkpt>
      <trkpt lat="52.264329688623548" lon="7.834550645202398">
        <ele>80.00390625</ele>
        <time>2026-03-02T11:31:48Z</time>
      </trkpt>
      <trkpt lat="52.264410741627216" lon="7.83482875674963">
        <ele>79.65625</ele>
        <time>2026-03-02T11:31:52Z</time>
      </trkpt>
      <trkpt lat="52.264502188190818" lon="7.835155734792352">
        <ele>78.99609375</ele>
        <time>2026-03-02T11:31:58Z</time>
      </trkpt>
      <trkpt lat="52.264345278963447" lon="7.835320020094514">
        <ele>77.9375</ele>
        <time>2026-03-02T11:32:04Z</time>
      </trkpt>
      <trkpt lat="52.264113100245595" lon="7.835270734503865">
        <ele>77.0390625</ele>
        <time>2026-03-02T11:32:10Z</time>
      </trkpt>
      <trkpt lat="52.264073621481657" lon="7.83493135124445">
        <ele>77.44921875</ele>
        <time>2026-03-02T11:32:14Z</time>
      </trkpt>
      <trkpt lat="52.264063060283661" lon="7.834556261077523">
        <ele>77.68359375</ele>
        <time>2026-03-02T11:32:18Z</time>
      </trkpt>
      <trkpt lat="52.264034226536751" lon="7.83420673571527">
        <ele>78.19140625</ele>
        <time>2026-03-02T11:32:22Z</time>
      </trkpt>
      <trkpt lat="52.263886537402868" lon="7.833959804847837">
        <ele>77.671875</ele>
        <time>2026-03-02T11:32:26Z</time>
      </trkpt>
      <trkpt lat="52.263596272096038" lon="7.834012610837817">
        <ele>75.67578125</ele>
        <time>2026-03-02T11:32:30Z</time>
      </trkpt>
      <trkpt lat="52.263292595744133" lon="7.834044462069869">
        <ele>74.140625</ele>
        <time>2026-03-02T11:32:34Z</time>
      </trkpt>
      <trkpt lat="52.262999061495066" lon="7.834066171199083">
        <ele>72.953125</ele>
        <time>2026-03-02T11:32:38Z</time>
      </trkpt>
      <trkpt lat="52.262700498104095" lon="7.834100956097245">
        <ele>72.22265625</ele>
        <time>2026-03-02T11:32:42Z</time>
      </trkpt>
      <trkpt lat="52.262435210868716" lon="7.834134232252836">
        <ele>71.625</ele>
        <time>2026-03-02T11:32:46Z</time>
      </trkpt>
      <trkpt lat="52.262175539508462" lon="7.834188463166356">
        <ele>70.93359375</ele>
        <time>2026-03-02T11:32:50Z</time>
      </trkpt>
      <trkpt lat="52.261900613084435" lon="7.83423749729991">
        <ele>70.87109375</ele>
        <time>2026-03-02T11:32:54Z</time>
      </trkpt>
      <trkpt lat="52.261652676388621" lon="7.834240598604083">
        <ele>70.94921875</ele>
        <time>2026-03-02T11:32:58Z</time>
      </trkpt>
      <trkpt lat="52.261410607025027" lon="7.834189217537642">
        <ele>70.42578125</ele>
        <time>2026-03-02T11:33:02Z</time>
      </trkpt>
      <trkpt lat="52.261180439963937" lon="7.834075391292572">
        <ele>70</ele>
        <time>2026-03-02T11:33:06Z</time>
      </trkpt>
      <trkpt lat="52.260981621220708" lon="7.833899622783065">
        <ele>70</ele>
        <time>2026-03-02T11:33:10Z</time>
      </trkpt>
      <trkpt lat="52.260756399482489" lon="7.833690075203776">
        <ele>70</ele>
        <time>2026-03-02T11:33:14Z</time>
      </trkpt>
      <trkpt lat="52.260540900751948" lon="7.833519922569394">
        <ele>70.58203125</ele>
        <time>2026-03-02T11:33:18Z</time>
      </trkpt>
      <trkpt lat="52.260342417284846" lon="7.833376424387097">
        <ele>71.41015625</ele>
        <time>2026-03-02T11:33:22Z</time>
      </trkpt>
      <trkpt lat="52.260164469480515" lon="7.833207780495286">
        <ele>72.484375</ele>
        <time>2026-03-02T11:33:26Z</time>
      </trkpt>
      <trkpt lat="52.259964896366" lon="7.83313712105155">
        <ele>73.4765625</ele>
        <time>2026-03-02T11:33:30Z</time>
      </trkpt>
      <trkpt lat="52.259734813123941" lon="7.833247510716319">
        <ele>74.82421875</ele>
        <time>2026-03-02T11:33:36Z</time>
      </trkpt>
      <trkpt lat="52.259502131491899" lon="7.833392852917314">
        <ele>77.83984375</ele>
        <time>2026-03-02T11:33:42Z</time>
      </trkpt>
      <trkpt lat="52.259254697710276" lon="7.83353635109961">
        <ele>79.91796875</ele>
        <time>2026-03-02T11:33:48Z</time>
      </trkpt>
      <trkpt lat="52.25909217260778" lon="7.833685968071222">
        <ele>78.51953125</ele>
        <time>2026-03-02T11:33:52Z</time>
      </trkpt>
      <trkpt lat="52.258866028860211" lon="7.833788646385074">
        <ele>76.55859375</ele>
        <time>2026-03-02T11:33:56Z</time>
      </trkpt>
      <trkpt lat="52.258628401905298" lon="7.833835501223803">
        <ele>77.3828125</ele>
        <time>2026-03-02T11:34:02Z</time>
      </trkpt>
      <trkpt lat="52.258378621190786" lon="7.833779845386744">
        <ele>78.51953125</ele>
        <time>2026-03-02T11:34:08Z</time>
      </trkpt>
      <trkpt lat="52.258115261793137" lon="7.833743551746011">
        <ele>78.87890625</ele>
        <time>2026-03-02T11:34:14Z</time>
      </trkpt>
      <trkpt lat="52.257906971499324" lon="7.833855198696256">
        <ele>79.45703125</ele>
        <time>2026-03-02T11:34:20Z</time>
      </trkpt>
      <trkpt lat="52.257718211039901" lon="7.833998696878552">
        <ele>80.38671875</ele>
        <time>2026-03-02T11:34:26Z</time>
      </trkpt>
      <trkpt lat="52.257529618218541" lon="7.834170944988728">
        <ele>80.91796875</ele>
        <time>2026-03-02T11:34:32Z</time>
      </trkpt>
      <trkpt lat="52.257344294339418" lon="7.834325004369021">
        <ele>81.55859375</ele>
        <time>2026-03-02T11:34:38Z</time>
      </trkpt>
      <trkpt lat="52.257253518328071" lon="7.834677714854479">
        <ele>81.3671875</ele>
        <time>2026-03-02T11:34:44Z</time>
      </trkpt>
      <trkpt lat="52.257199287414551" lon="7.834987007081509">
        <ele>81.1015625</ele>
        <time>2026-03-02T11:34:48Z</time>
      </trkpt>
      <trkpt lat="52.257161820307374" lon="7.835328066721559">
        <ele>81.1171875</ele>
        <time>2026-03-02T11:34:52Z</time>
      </trkpt>
      <trkpt lat="52.257134327664971" lon="7.835683627054095">
        <ele>80.9453125</ele>
        <time>2026-03-02T11:34:56Z</time>
      </trkpt>
      <trkpt lat="52.257077917456627" lon="7.836044887080789">
        <ele>80.8125</ele>
        <time>2026-03-02T11:35:00Z</time>
      </trkpt>
      <trkpt lat="52.257048999890685" lon="7.836416708305478">
        <ele>81</ele>
        <time>2026-03-02T11:35:04Z</time>
      </trkpt>
      <trkpt lat="52.257020166143775" lon="7.83676472492516">
        <ele>81.125</ele>
        <time>2026-03-02T11:35:08Z</time>
      </trkpt>
      <trkpt lat="52.257010610774159" lon="7.837110729888082">
        <ele>80.73046875</ele>
        <time>2026-03-02T11:35:12Z</time>
      </trkpt>
      <trkpt lat="52.256999295204878" lon="7.837437372654676">
        <ele>80.3046875</ele>
        <time>2026-03-02T11:35:16Z</time>
      </trkpt>
      <trkpt lat="52.256979178637266" lon="7.837823107838631">
        <ele>80.30078125</ele>
        <time>2026-03-02T11:35:20Z</time>
      </trkpt>
      <trkpt lat="52.256967276334763" lon="7.838221499696374">
        <ele>80.19921875</ele>
        <time>2026-03-02T11:35:24Z</time>
      </trkpt>
      <trkpt lat="52.256950680166483" lon="7.838665824383497">
        <ele>79.5546875</ele>
        <time>2026-03-02T11:35:28Z</time>
      </trkpt>
      <trkpt lat="52.256930312141776" lon="7.839098582044244">
        <ele>78.546875</ele>
        <time>2026-03-02T11:35:32Z</time>
      </trkpt>
      <trkpt lat="52.25693198852241" lon="7.839622283354402">
        <ele>77.3515625</ele>
        <time>2026-03-02T11:35:36Z</time>
      </trkpt>
      <trkpt lat="52.256961576640606" lon="7.840125700458884">
        <ele>76.19921875</ele>
        <time>2026-03-02T11:35:40Z</time>
      </trkpt>
      <trkpt lat="52.257012370973825" lon="7.840666249394417">
        <ele>75.84375</ele>
        <time>2026-03-02T11:35:44Z</time>
      </trkpt>
      <trkpt lat="52.257044641301036" lon="7.841189699247479">
        <ele>75.00390625</ele>
        <time>2026-03-02T11:35:48Z</time>
      </trkpt>
      <trkpt lat="52.257022596895695" lon="7.84175556153059">
        <ele>75.05859375</ele>
        <time>2026-03-02T11:35:52Z</time>
      </trkpt>
      <trkpt lat="52.256940957158804" lon="7.842250764369965">
        <ele>75.234375</ele>
        <time>2026-03-02T11:35:56Z</time>
      </trkpt>
      <trkpt lat="52.256896700710058" lon="7.84268788062036">
        <ele>75.328125</ele>
        <time>2026-03-02T11:36:00Z</time>
      </trkpt>
      <trkpt lat="52.25688748061657" lon="7.843057187274098">
        <ele>75.46484375</ele>
        <time>2026-03-02T11:36:04Z</time>
      </trkpt>
      <trkpt lat="52.256852611899376" lon="7.8434491250664">
        <ele>75.84765625</ele>
        <time>2026-03-02T11:36:08Z</time>
      </trkpt>
      <trkpt lat="52.256768206134439" lon="7.843843828886747">
        <ele>76.21484375</ele>
        <time>2026-03-02T11:36:12Z</time>
      </trkpt>
      <trkpt lat="52.256709197536111" lon="7.844222942367196">
        <ele>76.46875</ele>
        <time>2026-03-02T11:36:16Z</time>
      </trkpt>
      <trkpt lat="52.256682459264994" lon="7.844590405002236">
        <ele>76.71875</ele>
        <time>2026-03-02T11:36:20Z</time>
      </trkpt>
      <trkpt lat="52.25667248480022" lon="7.84496976993978">
        <ele>76.8125</ele>
        <time>2026-03-02T11:36:24Z</time>
      </trkpt>
      <trkpt lat="52.256656726822257" lon="7.845340166240931">
        <ele>76.84765625</ele>
        <time>2026-03-02T11:36:28Z</time>
      </trkpt>
      <trkpt lat="52.256579278036952" lon="7.845670329406858">
        <ele>77.046875</ele>
        <time>2026-03-02T11:36:32Z</time>
      </trkpt>
      <trkpt lat="52.256421614438295" lon="7.845869483426213">
        <ele>78.0703125</ele>
        <time>2026-03-02T11:36:36Z</time>
      </trkpt>
      <trkpt lat="52.256242576986551" lon="7.845999570563436">
        <ele>79.23046875</ele>
        <time>2026-03-02T11:36:40Z</time>
      </trkpt>
      <trkpt lat="52.256013667210937" lon="7.8461326751858">
        <ele>80.71484375</ele>
        <time>2026-03-02T11:36:46Z</time>
      </trkpt>
      <trkpt lat="52.255832031369209" lon="7.845909465104342">
        <ele>81.890625</ele>
        <time>2026-03-02T11:36:52Z</time>
      </trkpt>
      <trkpt lat="52.255646036937833" lon="7.845643842592835">
        <ele>83.0703125</ele>
        <time>2026-03-02T11:36:58Z</time>
      </trkpt>
      <trkpt lat="52.255468089133501" lon="7.845467906445265">
        <ele>84.22265625</ele>
        <time>2026-03-02T11:37:04Z</time>
      </trkpt>
      <trkpt lat="52.255302630364895" lon="7.845292892307043">
        <ele>85.85546875</ele>
        <time>2026-03-02T11:37:10Z</time>
      </trkpt>
      <trkpt lat="52.255146810784936" lon="7.845129612833262">
        <ele>87.375</ele>
        <time>2026-03-02T11:37:16Z</time>
      </trkpt>
      <trkpt lat="52.254977999255061" lon="7.844982678070664">
        <ele>87.9765625</ele>
        <time>2026-03-02T11:37:22Z</time>
      </trkpt>
      <trkpt lat="52.254791501909494" lon="7.844797186553478">
        <ele>88.06640625</ele>
        <time>2026-03-02T11:37:28Z</time>
      </trkpt>
      <trkpt lat="52.254591090604663" lon="7.844595098868012">
        <ele>88.1328125</ele>
        <time>2026-03-02T11:37:34Z</time>
      </trkpt>
      <trkpt lat="52.254393864423037" lon="7.844446571543813">
        <ele>87.6796875</ele>
        <time>2026-03-02T11:37:40Z</time>
      </trkpt>
      <trkpt lat="52.254152717068791" lon="7.844397788867354">
        <ele>87.484375</ele>
        <time>2026-03-02T11:37:46Z</time>
      </trkpt>
      <trkpt lat="52.25389027968049" lon="7.844378929585218">
        <ele>88.0078125</ele>
        <time>2026-03-02T11:37:52Z</time>
      </trkpt>
      <trkpt lat="52.253646198660135" lon="7.844376498833299">
        <ele>88.88671875</ele>
        <time>2026-03-02T11:37:58Z</time>
      </trkpt>
      <trkpt lat="52.25344561971724" lon="7.844367194920778">
        <ele>89.734375</ele>
        <time>2026-03-02T11:38:04Z</time>
      </trkpt>
      <trkpt lat="52.25326188839972" lon="7.844367194920778">
        <ele>90.46875</ele>
        <time>2026-03-02T11:38:10Z</time>
      </trkpt>
      <trkpt lat="52.253044126555324" lon="7.844341797754169">
        <ele>91.28125</ele>
        <time>2026-03-02T11:38:18Z</time>
      </trkpt>
      <trkpt lat="52.252854779362679" lon="7.844329727813602">
        <ele>91.99609375</ele>
        <time>2026-03-02T11:38:24Z</time>
      </trkpt>
      <trkpt lat="52.252632910385728" lon="7.844301983714104">
        <ele>92.5390625</ele>
        <time>2026-03-02T11:38:30Z</time>
      </trkpt>
      <trkpt lat="52.252445407211781" lon="7.844263846054673">
        <ele>92.9453125</ele>
        <time>2026-03-02T11:38:36Z</time>
      </trkpt>
      <trkpt lat="52.252260418608785" lon="7.844218332320452">
        <ele>93.29296875</ele>
        <time>2026-03-02T11:38:42Z</time>
      </trkpt>
      <trkpt lat="52.252020360901952" lon="7.844171645119786">
        <ele>93.63671875</ele>
        <time>2026-03-02T11:38:48Z</time>
      </trkpt>
      <trkpt lat="52.251732610166073" lon="7.844103081151843">
        <ele>94.078125</ele>
        <time>2026-03-02T11:38:54Z</time>
      </trkpt>
      <trkpt lat="52.251484170556068" lon="7.84397684969008">
        <ele>94.38671875</ele>
        <time>2026-03-02T11:39:00Z</time>
      </trkpt>
      <trkpt lat="52.25126339122653" lon="7.843764116987586">
        <ele>95.515625</ele>
        <time>2026-03-02T11:39:06Z</time>
      </trkpt>
      <trkpt lat="52.251067506149411" lon="7.843575105071068">
        <ele>96.78515625</ele>
        <time>2026-03-02T11:39:12Z</time>
      </trkpt>
      <trkpt lat="52.250886959955096" lon="7.843373687937856">
        <ele>97.31640625</ele>
        <time>2026-03-02T11:39:18Z</time>
      </trkpt>
      <trkpt lat="52.250687470659614" lon="7.843373436480761">
        <ele>97.7421875</ele>
        <time>2026-03-02T11:39:24Z</time>
      </trkpt>
      <trkpt lat="52.250513043254614" lon="7.843636628240347">
        <ele>97.546875</ele>
        <time>2026-03-02T11:39:30Z</time>
      </trkpt>
      <trkpt lat="52.250376921147108" lon="7.843840979039669">
        <ele>97.40234375</ele>
        <time>2026-03-02T11:39:34Z</time>
      </trkpt>
      <trkpt lat="52.250236691907048" lon="7.844056561589241">
        <ele>97.01953125</ele>
        <time>2026-03-02T11:39:38Z</time>
      </trkpt>
      <trkpt lat="52.250079279765487" lon="7.844248507171869">
        <ele>96.2578125</ele>
        <time>2026-03-02T11:39:42Z</time>
      </trkpt>
      <trkpt lat="52.249925471842289" lon="7.844459898769856">
        <ele>95.8984375</ele>
        <time>2026-03-02T11:39:46Z</time>
      </trkpt>
      <trkpt lat="52.249765126034617" lon="7.844689562916756">
        <ele>95.25390625</ele>
        <time>2026-03-02T11:39:50Z</time>
      </trkpt>
      <trkpt lat="52.249591033905745" lon="7.844927944242954">
        <ele>94.26171875</ele>
        <time>2026-03-02T11:39:54Z</time>
      </trkpt>
      <trkpt lat="52.249432867392898" lon="7.845203205943108">
        <ele>93.07421875</ele>
        <time>2026-03-02T11:39:58Z</time>
      </trkpt>
      <trkpt lat="52.249420713633299" lon="7.845619199797511">
        <ele>92.13671875</ele>
        <time>2026-03-02T11:40:02Z</time>
      </trkpt>
      <trkpt lat="52.249438902363181" lon="7.846062602475286">
        <ele>90.359375</ele>
        <time>2026-03-02T11:40:06Z</time>
      </trkpt>
      <trkpt lat="52.249474441632628" lon="7.846441045403481">
        <ele>89.59765625</ele>
        <time>2026-03-02T11:40:10Z</time>
      </trkpt>
      <trkpt lat="52.249470418319106" lon="7.846846729516983">
        <ele>89.57421875</ele>
        <time>2026-03-02T11:40:14Z</time>
      </trkpt>
      <trkpt lat="52.249478045850992" lon="7.847199942916632">
        <ele>89.828125</ele>
        <time>2026-03-02T11:40:18Z</time>
      </trkpt>
      <trkpt lat="52.249528337270021" lon="7.847598753869534">
        <ele>89.7265625</ele>
        <time>2026-03-02T11:40:22Z</time>
      </trkpt>
      <trkpt lat="52.249578880146146" lon="7.84801340661943">
        <ele>89.2890625</ele>
        <time>2026-03-02T11:40:26Z</time>
      </trkpt>
      <trkpt lat="52.249601678922772" lon="7.848406853154302">
        <ele>89.19140625</ele>
        <time>2026-03-02T11:40:30Z</time>
      </trkpt>
      <trkpt lat="52.249619700014591" lon="7.8487903252244">
        <ele>89.07421875</ele>
        <time>2026-03-02T11:40:34Z</time>
      </trkpt>
      <trkpt lat="52.249630261212587" lon="7.849188968539238">
        <ele>88.4375</ele>
        <time>2026-03-02T11:40:38Z</time>
      </trkpt>
      <trkpt lat="52.249602098017931" lon="7.849582247436047">
        <ele>87.2265625</ele>
        <time>2026-03-02T11:40:42Z</time>
      </trkpt>
      <trkpt lat="52.249587848782539" lon="7.850035121664405">
        <ele>86.609375</ele>
        <time>2026-03-02T11:40:46Z</time>
      </trkpt>
      <trkpt lat="52.24957661703229" lon="7.85044482909143">
        <ele>87.82421875</ele>
        <time>2026-03-02T11:40:50Z</time>
      </trkpt>
      <trkpt lat="52.249544011428952" lon="7.85082008689642">
        <ele>89.765625</ele>
        <time>2026-03-02T11:40:54Z</time>
      </trkpt>
      <trkpt lat="52.249478297308087" lon="7.851119907572866">
        <ele>90.83984375</ele>
        <time>2026-03-02T11:40:58Z</time>
      </trkpt>
      <trkpt lat="52.249428508803248" lon="7.851432217285037">
        <ele>92.46484375</ele>
        <time>2026-03-02T11:41:04Z</time>
      </trkpt>
      <trkpt lat="52.249369667842984" lon="7.851738827303052">
        <ele>94.4453125</ele>
        <time>2026-03-02T11:41:12Z</time>
      </trkpt>
      <trkpt lat="52.249323818832636" lon="7.852029511705041">
        <ele>95.28515625</ele>
        <time>2026-03-02T11:41:20Z</time>
      </trkpt>
      <trkpt lat="52.249212004244328" lon="7.852339055389166">
        <ele>96.328125</ele>
        <time>2026-03-02T11:41:28Z</time>
      </trkpt>
      <trkpt lat="52.249053250998259" lon="7.852612305432558">
        <ele>96.578125</ele>
        <time>2026-03-02T11:41:38Z</time>
      </trkpt>
      <trkpt lat="52.24889256991446" lon="7.852854123339057">
        <ele>97.5703125</ele>
        <time>2026-03-02T11:41:44Z</time>
      </trkpt>
      <trkpt lat="52.248715711757541" lon="7.85312251187861">
        <ele>98.91015625</ele>
        <time>2026-03-02T11:41:52Z</time>
      </trkpt>
      <trkpt lat="52.248600041493773" lon="7.853357205167413">
        <ele>98.61328125</ele>
        <time>2026-03-02T11:41:56Z</time>
      </trkpt>
      <trkpt lat="52.248426368460059" lon="7.853639172390103">
        <ele>99.203125</ele>
        <time>2026-03-02T11:42:02Z</time>
      </trkpt>
      <trkpt lat="52.248261831700802" lon="7.853893395513296">
        <ele>99.9765625</ele>
        <time>2026-03-02T11:42:08Z</time>
      </trkpt>
      <trkpt lat="52.248064940795302" lon="7.854108223691583">
        <ele>100.921875</ele>
        <time>2026-03-02T11:42:14Z</time>
      </trkpt>
      <trkpt lat="52.247894117608666" lon="7.854211404919624">
        <ele>101.9140625</ele>
        <time>2026-03-02T11:42:18Z</time>
      </trkpt>
      <trkpt lat="52.247700160369277" lon="7.854285500943661">
        <ele>102.71484375</ele>
        <time>2026-03-02T11:42:22Z</time>
      </trkpt>
      <trkpt lat="52.247455408796668" lon="7.854387341067195">
        <ele>103.41015625</ele>
        <time>2026-03-02T11:42:28Z</time>
      </trkpt>
      <trkpt lat="52.247211327776313" lon="7.854500580579042">
        <ele>103.796875</ele>
        <time>2026-03-02T11:42:34Z</time>
      </trkpt>
      <trkpt lat="52.247035140171647" lon="7.854583477601409">
        <ele>103.59375</ele>
        <time>2026-03-02T11:42:38Z</time>
      </trkpt>
      <trkpt lat="52.246793992817402" lon="7.854700069874525">
        <ele>103.57421875</ele>
        <time>2026-03-02T11:42:44Z</time>
      </trkpt>
      <trkpt lat="52.246610261499882" lon="7.854816494509578">
        <ele>103.88671875</ele>
        <time>2026-03-02T11:42:50Z</time>
      </trkpt>
      <trkpt lat="52.246441449970007" lon="7.854925626888871">
        <ele>104</ele>
        <time>2026-03-02T11:43:00Z</time>
      </trkpt>
      <trkpt lat="52.246473971754313" lon="7.855185382068157">
        <ele>104.4609375</ele>
        <time>2026-03-02T11:43:32Z</time>
      </trkpt>
      <trkpt lat="52.246588887646794" lon="7.855428541079164">
        <ele>104.6328125</ele>
        <time>2026-03-02T11:43:36Z</time>
      </trkpt>
      <trkpt lat="52.24670204333961" lon="7.855658875778318">
        <ele>104.72265625</ele>
        <time>2026-03-02T11:43:38Z</time>
      </trkpt>
      <trkpt lat="52.246876722201705" lon="7.856025081127882">
        <ele>104.99609375</ele>
        <time>2026-03-02T11:43:42Z</time>
      </trkpt>
      <trkpt lat="52.247020388022065" lon="7.856332194060087">
        <ele>104.6640625</ele>
        <time>2026-03-02T11:43:46Z</time>
      </trkpt>
      <trkpt lat="52.247153073549271" lon="7.856627069413662">
        <ele>104.1328125</ele>
        <time>2026-03-02T11:43:50Z</time>
      </trkpt>
      <trkpt lat="52.247271509841084" lon="7.856944324448705">
        <ele>103.66015625</ele>
        <time>2026-03-02T11:43:54Z</time>
      </trkpt>
      <trkpt lat="52.247395813465118" lon="7.857309272512794">
        <ele>102.734375</ele>
        <time>2026-03-02T11:43:58Z</time>
      </trkpt>
      <trkpt lat="52.247528247535229" lon="7.857707496732473">
        <ele>101.58984375</ele>
        <time>2026-03-02T11:44:02Z</time>
      </trkpt>
      <trkpt lat="52.247650539502501" lon="7.858139667659998">
        <ele>100.390625</ele>
        <time>2026-03-02T11:44:06Z</time>
      </trkpt>
      <trkpt lat="52.24776822142303" lon="7.858597235754132">
        <ele>100.05859375</ele>
        <time>2026-03-02T11:44:10Z</time>
      </trkpt>
      <trkpt lat="52.247875509783626" lon="7.859048852697015">
        <ele>99.65234375</ele>
        <time>2026-03-02T11:44:14Z</time>
      </trkpt>
      <trkpt lat="52.247976008802652" lon="7.8594502620399">
        <ele>99.515625</ele>
        <time>2026-03-02T11:44:18Z</time>
      </trkpt>
      <trkpt lat="52.248072819784284" lon="7.859852006658912">
        <ele>99.40234375</ele>
        <time>2026-03-02T11:44:22Z</time>
      </trkpt>
      <trkpt lat="52.248124368488789" lon="7.860245034098625">
        <ele>99.2890625</ele>
        <time>2026-03-02T11:44:26Z</time>
      </trkpt>
      <trkpt lat="52.24817474372685" lon="7.860618866980076">
        <ele>99.23046875</ele>
        <time>2026-03-02T11:44:30Z</time>
      </trkpt>
      <trkpt lat="52.24822168238461" lon="7.861023042351008">
        <ele>99.14453125</ele>
        <time>2026-03-02T11:44:34Z</time>
      </trkpt>
      <trkpt lat="52.248270800337195" lon="7.861453033983707">
        <ele>98.97265625</ele>
        <time>2026-03-02T11:44:38Z</time>
      </trkpt>
      <trkpt lat="52.248324025422335" lon="7.861866261810064">
        <ele>98.859375</ele>
        <time>2026-03-02T11:44:42Z</time>
      </trkpt>
      <trkpt lat="52.248375238850713" lon="7.862259792163968">
        <ele>98.5390625</ele>
        <time>2026-03-02T11:44:46Z</time>
      </trkpt>
      <trkpt lat="52.248429553583264" lon="7.862646952271462">
        <ele>98.01171875</ele>
        <time>2026-03-02T11:44:50Z</time>
      </trkpt>
      <trkpt lat="52.248502895236015" lon="7.863064957782626">
        <ele>97.14453125</ele>
        <time>2026-03-02T11:44:54Z</time>
      </trkpt>
      <trkpt lat="52.248602388426661" lon="7.863512551411986">
        <ele>96.11328125</ele>
        <time>2026-03-02T11:44:58Z</time>
      </trkpt>
      <trkpt lat="52.248719651252031" lon="7.86397255025804">
        <ele>94.4765625</ele>
        <time>2026-03-02T11:45:02Z</time>
      </trkpt>
      <trkpt lat="52.24883833900094" lon="7.864463143050671">
        <ele>93.34375</ele>
        <time>2026-03-02T11:45:06Z</time>
      </trkpt>
      <trkpt lat="52.248947387561202" lon="7.864979719743133">
        <ele>91.82421875</ele>
        <time>2026-03-02T11:45:10Z</time>
      </trkpt>
      <trkpt lat="52.24907236173749" lon="7.865517167374492">
        <ele>90.71875</ele>
        <time>2026-03-02T11:45:14Z</time>
      </trkpt>
      <trkpt lat="52.249145703390241" lon="7.865789914503694">
        <ele>89.75</ele>
        <time>2026-03-02T11:45:16Z</time>
      </trkpt>
      <trkpt lat="52.249275539070368" lon="7.866316381841898">
        <ele>88.484375</ele>
        <time>2026-03-02T11:45:20Z</time>
      </trkpt>
      <trkpt lat="52.249414762482047" lon="7.866830946877599">
        <ele>86.79296875</ele>
        <time>2026-03-02T11:45:24Z</time>
      </trkpt>
      <trkpt lat="52.249548118561506" lon="7.867320450022817">
        <ele>85.4453125</ele>
        <time>2026-03-02T11:45:28Z</time>
      </trkpt>
      <trkpt lat="52.249677199870348" lon="7.867807690054178">
        <ele>84.93359375</ele>
        <time>2026-03-02T11:45:32Z</time>
      </trkpt>
      <trkpt lat="52.249808544293046" lon="7.868283782154322">
        <ele>84.6484375</ele>
        <time>2026-03-02T11:45:36Z</time>
      </trkpt>
      <trkpt lat="52.249929662793875" lon="7.86872886121273">
        <ele>84.07421875</ele>
        <time>2026-03-02T11:45:40Z</time>
      </trkpt>
      <trkpt lat="52.250037202611566" lon="7.869148794561625">
        <ele>84</ele>
        <time>2026-03-02T11:45:44Z</time>
      </trkpt>
      <trkpt lat="52.25014734081924" lon="7.86954291164875">
        <ele>83.91796875</ele>
        <time>2026-03-02T11:45:48Z</time>
      </trkpt>
      <trkpt lat="52.250272231176496" lon="7.869910122826695">
        <ele>83.6484375</ele>
        <time>2026-03-02T11:45:52Z</time>
      </trkpt>
      <trkpt lat="52.250409945845604" lon="7.870283620432019">
        <ele>83.4609375</ele>
        <time>2026-03-02T11:45:56Z</time>
      </trkpt>
      <trkpt lat="52.250550677999854" lon="7.870639599859715">
        <ele>83.94140625</ele>
        <time>2026-03-02T11:46:00Z</time>
      </trkpt>
      <trkpt lat="52.250686548650265" lon="7.870988789945841">
        <ele>84</ele>
        <time>2026-03-02T11:46:04Z</time>
      </trkpt>
      <trkpt lat="52.250816971063614" lon="7.871314594522119">
        <ele>84</ele>
        <time>2026-03-02T11:46:08Z</time>
      </trkpt>
      <trkpt lat="52.250955188646913" lon="7.871626820415258">
        <ele>84.0625</ele>
        <time>2026-03-02T11:46:12Z</time>
      </trkpt>
      <trkpt lat="52.251079911366105" lon="7.871948685497046">
        <ele>84.79296875</ele>
        <time>2026-03-02T11:46:16Z</time>
      </trkpt>
      <trkpt lat="52.25119398906827" lon="7.872265940532088">
        <ele>85</ele>
        <time>2026-03-02T11:46:20Z</time>
      </trkpt>
      <trkpt lat="52.251288536936045" lon="7.872593756765127">
        <ele>85.08984375</ele>
        <time>2026-03-02T11:46:24Z</time>
      </trkpt>
      <trkpt lat="52.251295242458582" lon="7.872937247157097">
        <ele>85.51171875</ele>
        <time>2026-03-02T11:46:28Z</time>
      </trkpt>
      <trkpt lat="52.251196419820189" lon="7.873286101967096">
        <ele>85.58203125</ele>
        <time>2026-03-02T11:46:32Z</time>
      </trkpt>
      <trkpt lat="52.251148223876953" lon="7.87361852824688">
        <ele>85.77734375</ele>
        <time>2026-03-02T11:46:36Z</time>
      </trkpt>
      <trkpt lat="52.25109969265759" lon="7.873949864879251">
        <ele>86.15625</ele>
        <time>2026-03-02T11:46:40Z</time>
      </trkpt>
      <trkpt lat="52.251039426773787" lon="7.874279273673892">
        <ele>86.01953125</ele>
        <time>2026-03-02T11:46:44Z</time>
      </trkpt>
      <trkpt lat="52.250998439267278" lon="7.874600719660521">
        <ele>85.921875</ele>
        <time>2026-03-02T11:46:48Z</time>
      </trkpt>
      <trkpt lat="52.250922415405512" lon="7.874922584742308">
        <ele>85.7578125</ele>
        <time>2026-03-02T11:46:52Z</time>
      </trkpt>
      <trkpt lat="52.250921241939068" lon="7.875229446217418">
        <ele>85.75390625</ele>
        <time>2026-03-02T11:46:56Z</time>
      </trkpt>
      <trkpt lat="52.250997181981802" lon="7.875595316290855">
        <ele>86.5703125</ele>
        <time>2026-03-02T11:47:02Z</time>
      </trkpt>
      <trkpt lat="52.251035571098328" lon="7.875981386750937">
        <ele>87.0078125</ele>
        <time>2026-03-02T11:47:08Z</time>
      </trkpt>
      <trkpt lat="52.251033978536725" lon="7.876277770847082">
        <ele>87</ele>
        <time>2026-03-02T11:47:12Z</time>
      </trkpt>
      <trkpt lat="52.251049401238561" lon="7.876576669514179">
        <ele>87.07421875</ele>
        <time>2026-03-02T11:47:16Z</time>
      </trkpt>
      <trkpt lat="52.251077983528376" lon="7.876897528767586">
        <ele>87.65625</ele>
        <time>2026-03-02T11:47:20Z</time>
      </trkpt>
      <trkpt lat="52.251102710142732" lon="7.877208413556218">
        <ele>88.296875</ele>
        <time>2026-03-02T11:47:24Z</time>
      </trkpt>
      <trkpt lat="52.25112073123455" lon="7.877547545358539">
        <ele>88.375</ele>
        <time>2026-03-02T11:47:28Z</time>
      </trkpt>
      <trkpt lat="52.251159623265266" lon="7.878026822581887">
        <ele>88.54296875</ele>
        <time>2026-03-02T11:47:32Z</time>
      </trkpt>
      <trkpt lat="52.2511578630656" lon="7.878328068181872">
        <ele>88.68359375</ele>
        <time>2026-03-02T11:47:36Z</time>
      </trkpt>
      <trkpt lat="52.251156019046903" lon="7.878638533875346">
        <ele>88.95703125</ele>
        <time>2026-03-02T11:47:40Z</time>
      </trkpt>
      <trkpt lat="52.251086784526706" lon="7.878927960991859">
        <ele>89.09765625</ele>
        <time>2026-03-02T11:47:44Z</time>
      </trkpt>
      <trkpt lat="52.250927025452256" lon="7.879366418346763">
        <ele>89.953125</ele>
        <time>2026-03-02T11:47:50Z</time>
      </trkpt>
      <trkpt lat="52.250697109848261" lon="7.879756093025208">
        <ele>89.75</ele>
        <time>2026-03-02T11:47:54Z</time>
      </trkpt>
      <trkpt lat="52.250487394630909" lon="7.88007234223187">
        <ele>90.0234375</ele>
        <time>2026-03-02T11:47:58Z</time>
      </trkpt>
      <trkpt lat="52.250307351350784" lon="7.880350118502975">
        <ele>90.31640625</ele>
        <time>2026-03-02T11:48:02Z</time>
      </trkpt>
      <trkpt lat="52.250132840126753" lon="7.880604257807136">
        <ele>91.03125</ele>
        <time>2026-03-02T11:48:06Z</time>
      </trkpt>
      <trkpt lat="52.249977774918079" lon="7.880848003551364">
        <ele>91.15625</ele>
        <time>2026-03-02T11:48:10Z</time>
      </trkpt>
      <trkpt lat="52.24984492175281" lon="7.881090492010117">
        <ele>91.34375</ele>
        <time>2026-03-02T11:48:14Z</time>
      </trkpt>
      <trkpt lat="52.249716259539127" lon="7.881367681547999">
        <ele>91.7265625</ele>
        <time>2026-03-02T11:48:18Z</time>
      </trkpt>
      <trkpt lat="52.249600673094392" lon="7.881659455597401">
        <ele>92.16796875</ele>
        <time>2026-03-02T11:48:22Z</time>
      </trkpt>
      <trkpt lat="52.249502940103412" lon="7.88194284774363">
        <ele>92.1328125</ele>
        <time>2026-03-02T11:48:26Z</time>
      </trkpt>
      <trkpt lat="52.24934846162796" lon="7.882315842434764">
        <ele>91.90234375</ele>
        <time>2026-03-02T11:48:32Z</time>
      </trkpt>
      <trkpt lat="52.249192809686065" lon="7.882576016709209">
        <ele>91.5859375</ele>
        <time>2026-03-02T11:48:36Z</time>
      </trkpt>
      <trkpt lat="52.248983681201935" lon="7.882821271196008">
        <ele>90.84375</ele>
        <time>2026-03-02T11:48:40Z</time>
      </trkpt>
      <trkpt lat="52.248723758384585" lon="7.883031908422709">
        <ele>88.7578125</ele>
        <time>2026-03-02T11:48:44Z</time>
      </trkpt>
      <trkpt lat="52.248502979055047" lon="7.883332818746567">
        <ele>87.609375</ele>
        <time>2026-03-02T11:48:48Z</time>
      </trkpt>
      <trkpt lat="52.24829938262701" lon="7.883700532838702">
        <ele>85.76953125</ele>
        <time>2026-03-02T11:48:52Z</time>
      </trkpt>
      <trkpt lat="52.248124033212662" lon="7.88403270766139">
        <ele>85.421875</ele>
        <time>2026-03-02T11:48:56Z</time>
      </trkpt>
      <trkpt lat="52.247952539473772" lon="7.884380975738168">
        <ele>84.54296875</ele>
        <time>2026-03-02T11:49:00Z</time>
      </trkpt>
      <trkpt lat="52.247861931100488" lon="7.884794706478715">
        <ele>84.5078125</ele>
        <time>2026-03-02T11:49:04Z</time>
      </trkpt>
      <trkpt lat="52.247823290526867" lon="7.885205252096057">
        <ele>84.265625</ele>
        <time>2026-03-02T11:49:08Z</time>
      </trkpt>
      <trkpt lat="52.247788589447737" lon="7.885604733601213">
        <ele>84.25</ele>
        <time>2026-03-02T11:49:12Z</time>
      </trkpt>
      <trkpt lat="52.247747099027038" lon="7.886003544554114">
        <ele>84.6875</ele>
        <time>2026-03-02T11:49:16Z</time>
      </trkpt>
      <trkpt lat="52.247691107913852" lon="7.886383915320039">
        <ele>84.32421875</ele>
        <time>2026-03-02T11:49:20Z</time>
      </trkpt>
      <trkpt lat="52.24764852784574" lon="7.886772248893976">
        <ele>84.046875</ele>
        <time>2026-03-02T11:49:24Z</time>
      </trkpt>
      <trkpt lat="52.247614162042737" lon="7.887153793126345">
        <ele>84.20703125</ele>
        <time>2026-03-02T11:49:28Z</time>
      </trkpt>
      <trkpt lat="52.247590022161603" lon="7.887525027617812">
        <ele>84.41796875</ele>
        <time>2026-03-02T11:49:32Z</time>
      </trkpt>
      <trkpt lat="52.247579293325543" lon="7.887916211038828">
        <ele>84.74609375</ele>
        <time>2026-03-02T11:49:36Z</time>
      </trkpt>
      <trkpt lat="52.247601337730885" lon="7.888296833261848">
        <ele>85.3828125</ele>
        <time>2026-03-02T11:49:40Z</time>
      </trkpt>
      <trkpt lat="52.247619777917862" lon="7.888689525425434">
        <ele>86.0703125</ele>
        <time>2026-03-02T11:49:44Z</time>
      </trkpt>
      <trkpt lat="52.247667051851749" lon="7.889030752703548">
        <ele>86.61328125</ele>
        <time>2026-03-02T11:49:48Z</time>
      </trkpt>
      <trkpt lat="52.247729832306504" lon="7.88932403549552">
        <ele>87.2890625</ele>
        <time>2026-03-02T11:49:52Z</time>
      </trkpt>
      <trkpt lat="52.247764365747571" lon="7.889691079035401">
        <ele>87.671875</ele>
        <time>2026-03-02T11:49:56Z</time>
      </trkpt>
      <trkpt lat="52.247810130938888" lon="7.89006482809782">
        <ele>88.22265625</ele>
        <time>2026-03-02T11:50:00Z</time>
      </trkpt>
      <trkpt lat="52.247854052111506" lon="7.890399266034365">
        <ele>89.453125</ele>
        <time>2026-03-02T11:50:04Z</time>
      </trkpt>
      <trkpt lat="52.247898140922189" lon="7.890691626816988">
        <ele>90.26953125</ele>
        <time>2026-03-02T11:50:08Z</time>
      </trkpt>
      <trkpt lat="52.247924460098147" lon="7.890989519655705">
        <ele>90.4140625</ele>
        <time>2026-03-02T11:50:12Z</time>
      </trkpt>
      <trkpt lat="52.247998807579279" lon="7.891419846564531">
        <ele>90.44921875</ele>
        <time>2026-03-02T11:50:18Z</time>
      </trkpt>
      <trkpt lat="52.248076759278774" lon="7.891822261735797">
        <ele>89.6640625</ele>
        <time>2026-03-02T11:50:24Z</time>
      </trkpt>
      <trkpt lat="52.248193770647049" lon="7.892183102667332">
        <ele>88.28515625</ele>
        <time>2026-03-02T11:50:28Z</time>
      </trkpt>
      <trkpt lat="52.248327378183603" lon="7.892570262774825">
        <ele>86.3203125</ele>
        <time>2026-03-02T11:50:32Z</time>
      </trkpt>
      <trkpt lat="52.248435840010643" lon="7.892988603562117">
        <ele>84.515625</ele>
        <time>2026-03-02T11:50:36Z</time>
      </trkpt>
      <trkpt lat="52.24858570843935" lon="7.893520351499319">
        <ele>82.4921875</ele>
        <time>2026-03-02T11:50:40Z</time>
      </trkpt>
      <trkpt lat="52.248675730079412" lon="7.893798463046551">
        <ele>81.91015625</ele>
        <time>2026-03-02T11:50:42Z</time>
      </trkpt>
      <trkpt lat="52.248764578253031" lon="7.894096104428172">
        <ele>81.94140625</ele>
        <time>2026-03-02T11:50:44Z</time>
      </trkpt>
      <trkpt lat="52.248831801116467" lon="7.894391063600779">
        <ele>81.76171875</ele>
        <time>2026-03-02T11:50:46Z</time>
      </trkpt>
      <trkpt lat="52.248873878270388" lon="7.894676802679896">
        <ele>81.66796875</ele>
        <time>2026-03-02T11:50:48Z</time>
      </trkpt>
      <trkpt lat="52.248929869383574" lon="7.89518122561276">
        <ele>80.56640625</ele>
        <time>2026-03-02T11:50:52Z</time>
      </trkpt>
      <trkpt lat="52.248956859111786" lon="7.895711464807391">
        <ele>80.42578125</ele>
        <time>2026-03-02T11:50:56Z</time>
      </trkpt>
      <trkpt lat="52.248961050063372" lon="7.896230639889836">
        <ele>79.83984375</ele>
        <time>2026-03-02T11:51:00Z</time>
      </trkpt>
      <trkpt lat="52.248965408653021" lon="7.896727519109845">
        <ele>79.30078125</ele>
        <time>2026-03-02T11:51:04Z</time>
      </trkpt>
      <trkpt lat="52.248971611261368" lon="7.897251723334193">
        <ele>78.70703125</ele>
        <time>2026-03-02T11:51:08Z</time>
      </trkpt>
      <trkpt lat="52.2489526681602" lon="7.897745165973902">
        <ele>77.9765625</ele>
        <time>2026-03-02T11:51:12Z</time>
      </trkpt>
      <trkpt lat="52.248914279043674" lon="7.8981873113662">
        <ele>77.3046875</ele>
        <time>2026-03-02T11:51:16Z</time>
      </trkpt>
      <trkpt lat="52.248857282102108" lon="7.898658961057663">
        <ele>76.8515625</ele>
        <time>2026-03-02T11:51:20Z</time>
      </trkpt>
      <trkpt lat="52.248820569366217" lon="7.89913471788168">
        <ele>76.37109375</ele>
        <time>2026-03-02T11:51:24Z</time>
      </trkpt>
      <trkpt lat="52.248772541061044" lon="7.899616761133075">
        <ele>75.49609375</ele>
        <time>2026-03-02T11:51:28Z</time>
      </trkpt>
      <trkpt lat="52.248729206621647" lon="7.900058403611183">
        <ele>75.0078125</ele>
        <time>2026-03-02T11:51:32Z</time>
      </trkpt>
      <trkpt lat="52.248680843040347" lon="7.900479761883616">
        <ele>75</ele>
        <time>2026-03-02T11:51:36Z</time>
      </trkpt>
      <trkpt lat="52.248637340962887" lon="7.900919895619154">
        <ele>74.61328125</ele>
        <time>2026-03-02T11:51:40Z</time>
      </trkpt>
      <trkpt lat="52.248593419790268" lon="7.9013492166996">
        <ele>74</ele>
        <time>2026-03-02T11:51:44Z</time>
      </trkpt>
      <trkpt lat="52.248556204140186" lon="7.901804856956005">
        <ele>73.703125</ele>
        <time>2026-03-02T11:51:48Z</time>
      </trkpt>
      <trkpt lat="52.248495519161224" lon="7.902315817773342">
        <ele>73</ele>
        <time>2026-03-02T11:51:52Z</time>
      </trkpt>
      <trkpt lat="52.248452519997954" lon="7.902785455808044">
        <ele>73</ele>
        <time>2026-03-02T11:51:56Z</time>
      </trkpt>
      <trkpt lat="52.248420249670744" lon="7.903246795758605">
        <ele>73</ele>
        <time>2026-03-02T11:52:00Z</time>
      </trkpt>
      <trkpt lat="52.248380938544869" lon="7.903719199821353">
        <ele>73</ele>
        <time>2026-03-02T11:52:04Z</time>
      </trkpt>
      <trkpt lat="52.248345650732517" lon="7.904182299971581">
        <ele>72.64453125</ele>
        <time>2026-03-02T11:52:08Z</time>
      </trkpt>
      <trkpt lat="52.248313380405307" lon="7.904645819216967">
        <ele>72.50390625</ele>
        <time>2026-03-02T11:52:12Z</time>
      </trkpt>
      <trkpt lat="52.248292258009315" lon="7.905111769214273">
        <ele>72.5859375</ele>
        <time>2026-03-02T11:52:16Z</time>
      </trkpt>
      <trkpt lat="52.248254790902138" lon="7.905585682019591">
        <ele>71.9921875</ele>
        <time>2026-03-02T11:52:20Z</time>
      </trkpt>
      <trkpt lat="52.248226460069418" lon="7.906033443287015">
        <ele>72.33984375</ele>
        <time>2026-03-02T11:52:24Z</time>
      </trkpt>
      <trkpt lat="52.2481894120574" lon="7.906461339443922">
        <ele>72.39453125</ele>
        <time>2026-03-02T11:52:28Z</time>
      </trkpt>
      <trkpt lat="52.248150436207652" lon="7.906884625554085">
        <ele>71.765625</ele>
        <time>2026-03-02T11:52:32Z</time>
      </trkpt>
      <trkpt lat="52.248094109818339" lon="7.907323250547051">
        <ele>71.56640625</ele>
        <time>2026-03-02T11:52:36Z</time>
      </trkpt>
      <trkpt lat="52.248028730973601" lon="7.907773610204458">
        <ele>71.59765625</ele>
        <time>2026-03-02T11:52:40Z</time>
      </trkpt>
      <trkpt lat="52.247965866699815" lon="7.908219192177057">
        <ele>74.484375</ele>
        <time>2026-03-02T11:52:44Z</time>
      </trkpt>
      <trkpt lat="52.247922029346228" lon="7.908578692004085">
        <ele>74.48046875</ele>
        <time>2026-03-02T11:52:48Z</time>
      </trkpt>
      <trkpt lat="52.247857991605997" lon="7.909000385552645">
        <ele>72.25</ele>
        <time>2026-03-02T11:52:52Z</time>
      </trkpt>
      <trkpt lat="52.247822536155581" lon="7.909434568136931">
        <ele>71.2578125</ele>
        <time>2026-03-02T11:52:56Z</time>
      </trkpt>
      <trkpt lat="52.247780878096819" lon="7.909830193966627">
        <ele>70.96875</ele>
        <time>2026-03-02T11:53:00Z</time>
      </trkpt>
      <trkpt lat="52.247728239744902" lon="7.910194639116526">
        <ele>70.85546875</ele>
        <time>2026-03-02T11:53:04Z</time>
      </trkpt>
      <trkpt lat="52.247659340500832" lon="7.910568723455071">
        <ele>70.70703125</ele>
        <time>2026-03-02T11:53:08Z</time>
      </trkpt>
      <trkpt lat="52.247596392408013" lon="7.910957643762231">
        <ele>70.60546875</ele>
        <time>2026-03-02T11:53:12Z</time>
      </trkpt>
      <trkpt lat="52.247543670237064" lon="7.911358466371894">
        <ele>70.97265625</ele>
        <time>2026-03-02T11:53:16Z</time>
      </trkpt>
      <trkpt lat="52.247497569769621" lon="7.911763899028301">
        <ele>71</ele>
        <time>2026-03-02T11:53:20Z</time>
      </trkpt>
      <trkpt lat="52.247482482343912" lon="7.912167236208916">
        <ele>71</ele>
        <time>2026-03-02T11:53:24Z</time>
      </trkpt>
      <trkpt lat="52.247446021065116" lon="7.912558000534773">
        <ele>71.1328125</ele>
        <time>2026-03-02T11:53:28Z</time>
      </trkpt>
      <trkpt lat="52.247376451268792" lon="7.912945244461298">
        <ele>71.09375</ele>
        <time>2026-03-02T11:53:32Z</time>
      </trkpt>
      <trkpt lat="52.247225241735578" lon="7.913235509768128">
        <ele>70.99609375</ele>
        <time>2026-03-02T11:53:36Z</time>
      </trkpt>
      <trkpt lat="52.247032122686505" lon="7.913417145609856">
        <ele>70.60546875</ele>
        <time>2026-03-02T11:53:40Z</time>
      </trkpt>
      <trkpt lat="52.246834058314562" lon="7.913544299080968">
        <ele>70.328125</ele>
        <time>2026-03-02T11:53:44Z</time>
      </trkpt>
      <trkpt lat="52.246656445786357" lon="7.913620406761766">
        <ele>70.1640625</ele>
        <time>2026-03-02T11:53:48Z</time>
      </trkpt>
      <trkpt lat="52.246429128572345" lon="7.913746805861592">
        <ele>69.99609375</ele>
        <time>2026-03-02T11:53:54Z</time>
      </trkpt>
      <trkpt lat="52.246266268193722" lon="7.913887202739716">
        <ele>70.3046875</ele>
        <time>2026-03-02T11:53:58Z</time>
      </trkpt>
      <trkpt lat="52.246131068095565" lon="7.914090463891625">
        <ele>70.59765625</ele>
        <time>2026-03-02T11:54:02Z</time>
      </trkpt>
      <trkpt lat="52.246024701744318" lon="7.914344100281596">
        <ele>70.49609375</ele>
        <time>2026-03-02T11:54:06Z</time>
      </trkpt>
      <trkpt lat="52.245944235473871" lon="7.914666635915637">
        <ele>70</ele>
        <time>2026-03-02T11:54:10Z</time>
      </trkpt>
      <trkpt lat="52.245845329016447" lon="7.91501616127789">
        <ele>70.03125</ele>
        <time>2026-03-02T11:54:14Z</time>
      </trkpt>
      <trkpt lat="52.245733933523297" lon="7.915313635021448">
        <ele>70</ele>
        <time>2026-03-02T11:54:18Z</time>
      </trkpt>
      <trkpt lat="52.245584987103939" lon="7.915562745183706">
        <ele>69.96875</ele>
        <time>2026-03-02T11:54:22Z</time>
      </trkpt>
      <trkpt lat="52.245415840297937" lon="7.91571294888854">
        <ele>69.640625</ele>
        <time>2026-03-02T11:54:26Z</time>
      </trkpt>
      <trkpt lat="52.245177794247866" lon="7.915874468162656">
        <ele>69.29296875</ele>
        <time>2026-03-02T11:54:32Z</time>
      </trkpt>
      <trkpt lat="52.244946034625173" lon="7.91602173820138">
        <ele>69.1640625</ele>
        <time>2026-03-02T11:54:38Z</time>
      </trkpt>
      <trkpt lat="52.244717627763748" lon="7.916152663528919">
        <ele>69.8515625</ele>
        <time>2026-03-02T11:54:44Z</time>
      </trkpt>
      <trkpt lat="52.244581840932369" lon="7.916478300467134">
        <ele>70.87890625</ele>
        <time>2026-03-02T11:54:50Z</time>
      </trkpt>
      <trkpt lat="52.244565328583121" lon="7.916775858029723">
        <ele>70.3203125</ele>
        <time>2026-03-02T11:54:54Z</time>
      </trkpt>
      <trkpt lat="52.24460044875741" lon="7.917069811373949">
        <ele>69.90625</ele>
        <time>2026-03-02T11:54:58Z</time>
      </trkpt>
      <trkpt lat="52.244623666629195" lon="7.917370973154903">
        <ele>69.85546875</ele>
        <time>2026-03-02T11:55:02Z</time>
      </trkpt>
      <trkpt lat="52.24465711042285" lon="7.917675990611315">
        <ele>70.3828125</ele>
        <time>2026-03-02T11:55:06Z</time>
      </trkpt>
      <trkpt lat="52.244695918634534" lon="7.917969776317477">
        <ele>70.69921875</ele>
        <time>2026-03-02T11:55:10Z</time>
      </trkpt>
      <trkpt lat="52.244737073779106" lon="7.918279068544507">
        <ele>70.609375</ele>
        <time>2026-03-02T11:55:14Z</time>
      </trkpt>
      <trkpt lat="52.244780408218503" lon="7.91858752258122">
        <ele>70.515625</ele>
        <time>2026-03-02T11:55:18Z</time>
      </trkpt>
      <trkpt lat="52.244839668273926" lon="7.918947106227279">
        <ele>70.38671875</ele>
        <time>2026-03-02T11:55:22Z</time>
      </trkpt>
      <trkpt lat="52.244874620810151" lon="7.919256901368499">
        <ele>70.3125</ele>
        <time>2026-03-02T11:55:26Z</time>
      </trkpt>
      <trkpt lat="52.244916865602136" lon="7.919567618519068">
        <ele>70.22265625</ele>
        <time>2026-03-02T11:55:30Z</time>
      </trkpt>
      <trkpt lat="52.244933880865574" lon="7.91989266872406">
        <ele>70.18359375</ele>
        <time>2026-03-02T11:55:34Z</time>
      </trkpt>
      <trkpt lat="52.244967743754387" lon="7.920240433886647">
        <ele>70.11328125</ele>
        <time>2026-03-02T11:55:38Z</time>
      </trkpt>
      <trkpt lat="52.244923990219831" lon="7.920588031411171">
        <ele>70.20703125</ele>
        <time>2026-03-02T11:55:42Z</time>
      </trkpt>
      <trkpt lat="52.244787868112326" lon="7.920843344181776">
        <ele>70.27734375</ele>
        <time>2026-03-02T11:55:46Z</time>
      </trkpt>
      <trkpt lat="52.244638502597809" lon="7.921053729951382">
        <ele>70.08203125</ele>
        <time>2026-03-02T11:55:50Z</time>
      </trkpt>
      <trkpt lat="52.24450615234673" lon="7.921255733817816">
        <ele>70.07421875</ele>
        <time>2026-03-02T11:55:54Z</time>
      </trkpt>
      <trkpt lat="52.244328455999494" lon="7.921560164541006">
        <ele>70.00390625</ele>
        <time>2026-03-02T11:56:00Z</time>
      </trkpt>
      <trkpt lat="52.244139444082975" lon="7.921838108450174">
        <ele>70</ele>
        <time>2026-03-02T11:56:06Z</time>
      </trkpt>
      <trkpt lat="52.243996448814869" lon="7.922025779262185">
        <ele>70.2109375</ele>
        <time>2026-03-02T11:56:10Z</time>
      </trkpt>
      <trkpt lat="52.243857141584158" lon="7.922226274386048">
        <ele>70.2890625</ele>
        <time>2026-03-02T11:56:14Z</time>
      </trkpt>
      <trkpt lat="52.243729569017887" lon="7.922439090907574">
        <ele>70.08203125</ele>
        <time>2026-03-02T11:56:18Z</time>
      </trkpt>
      <trkpt lat="52.243582382798195" lon="7.922643776983023">
        <ele>70.0703125</ele>
        <time>2026-03-02T11:56:22Z</time>
      </trkpt>
      <trkpt lat="52.243389431387186" lon="7.922936473041773">
        <ele>70.015625</ele>
        <time>2026-03-02T11:56:28Z</time>
      </trkpt>
      <trkpt lat="52.243194468319416" lon="7.923222295939922">
        <ele>70</ele>
        <time>2026-03-02T11:56:34Z</time>
      </trkpt>
      <trkpt lat="52.243058178573847" lon="7.923418181017041">
        <ele>70</ele>
        <time>2026-03-02T11:56:38Z</time>
      </trkpt>
      <trkpt lat="52.242874950170517" lon="7.923720180988312">
        <ele>70</ele>
        <time>2026-03-02T11:56:44Z</time>
      </trkpt>
      <trkpt lat="52.242674538865685" lon="7.924008267000318">
        <ele>70.046875</ele>
        <time>2026-03-02T11:56:50Z</time>
      </trkpt>
      <trkpt lat="52.242535650730133" lon="7.924215048551559">
        <ele>70.09765625</ele>
        <time>2026-03-02T11:56:54Z</time>
      </trkpt>
      <trkpt lat="52.242390811443329" lon="7.924416298046708">
        <ele>70</ele>
        <time>2026-03-02T11:56:58Z</time>
      </trkpt>
      <trkpt lat="52.242201380431652" lon="7.924710838124156">
        <ele>70.01953125</ele>
        <time>2026-03-02T11:57:04Z</time>
      </trkpt>
      <trkpt lat="52.242059893906116" lon="7.924916697666049">
        <ele>70</ele>
        <time>2026-03-02T11:57:08Z</time>
      </trkpt>
      <trkpt lat="52.241868199780583" lon="7.925203694030643">
        <ele>70</ele>
        <time>2026-03-02T11:57:14Z</time>
      </trkpt>
      <trkpt lat="52.241672147065401" lon="7.92550602927804">
        <ele>70.11328125</ele>
        <time>2026-03-02T11:57:20Z</time>
      </trkpt>
      <trkpt lat="52.241533175110817" lon="7.925704848021269">
        <ele>70.0234375</ele>
        <time>2026-03-02T11:57:24Z</time>
      </trkpt>
      <trkpt lat="52.241348437964916" lon="7.925991760566831">
        <ele>70</ele>
        <time>2026-03-02T11:57:30Z</time>
      </trkpt>
      <trkpt lat="52.241221535950899" lon="7.926217652857304">
        <ele>70.1953125</ele>
        <time>2026-03-02T11:57:34Z</time>
      </trkpt>
      <trkpt lat="52.241103937849402" lon="7.926447568461299">
        <ele>70.203125</ele>
        <time>2026-03-02T11:57:38Z</time>
      </trkpt>
      <trkpt lat="52.240978125482798" lon="7.92666943743825">
        <ele>70</ele>
        <time>2026-03-02T11:57:42Z</time>
      </trkpt>
      <trkpt lat="52.240797327831388" lon="7.926943441852927">
        <ele>70.046875</ele>
        <time>2026-03-02T11:57:48Z</time>
      </trkpt>
      <trkpt lat="52.24072172306478" lon="7.927263379096985">
        <ele>70</ele>
        <time>2026-03-02T11:57:54Z</time>
      </trkpt>
      <trkpt lat="52.240798166021705" lon="7.927673337981105">
        <ele>70</ele>
        <time>2026-03-02T11:58:00Z</time>
      </trkpt>
      <trkpt lat="52.240870669484138" lon="7.928079860284925">
        <ele>70.08203125</ele>
        <time>2026-03-02T11:58:06Z</time>
      </trkpt>
      <trkpt lat="52.240876788273454" lon="7.928498284891248">
        <ele>70.9453125</ele>
        <time>2026-03-02T11:58:12Z</time>
      </trkpt>
      <trkpt lat="52.240861281752586" lon="7.928915284574032">
        <ele>70.98828125</ele>
        <time>2026-03-02T11:58:18Z</time>
      </trkpt>
      <trkpt lat="52.240846948698163" lon="7.929238742217422">
        <ele>70.40234375</ele>
        <time>2026-03-02T11:58:22Z</time>
      </trkpt>
      <trkpt lat="52.240832867100835" lon="7.929591536521912">
        <ele>70</ele>
        <time>2026-03-02T11:58:26Z</time>
      </trkpt>
      <trkpt lat="52.240814426913857" lon="7.929911892861128">
        <ele>69.95703125</ele>
        <time>2026-03-02T11:58:30Z</time>
      </trkpt>
      <trkpt lat="52.240797830745578" lon="7.930240463465452">
        <ele>69.3359375</ele>
        <time>2026-03-02T11:58:34Z</time>
      </trkpt>
      <trkpt lat="52.240778217092156" lon="7.930555790662766">
        <ele>69.45703125</ele>
        <time>2026-03-02T11:58:38Z</time>
      </trkpt>
      <trkpt lat="52.240758100524545" lon="7.930858377367258">
        <ele>69.7890625</ele>
        <time>2026-03-02T11:58:42Z</time>
      </trkpt>
      <trkpt lat="52.240748964250088" lon="7.931185523048043">
        <ele>69.76953125</ele>
        <time>2026-03-02T11:58:46Z</time>
      </trkpt>
      <trkpt lat="52.240735301747918" lon="7.931510070338845">
        <ele>69.37109375</ele>
        <time>2026-03-02T11:58:50Z</time>
      </trkpt>
      <trkpt lat="52.240738486871123" lon="7.931802850216627">
        <ele>69</ele>
        <time>2026-03-02T11:58:54Z</time>
      </trkpt>
      <trkpt lat="52.240714095532894" lon="7.932115746662021">
        <ele>69</ele>
        <time>2026-03-02T11:58:58Z</time>
      </trkpt>
      <trkpt lat="52.240688027814031" lon="7.932441551238298">
        <ele>69.18359375</ele>
        <time>2026-03-02T11:59:02Z</time>
      </trkpt>
      <trkpt lat="52.240675119683146" lon="7.932740617543459">
        <ele>69.390625</ele>
        <time>2026-03-02T11:59:06Z</time>
      </trkpt>
      <trkpt lat="52.240655086934566" lon="7.933060638606548">
        <ele>69.43359375</ele>
        <time>2026-03-02T11:59:10Z</time>
      </trkpt>
      <trkpt lat="52.240637568756938" lon="7.933394825085998">
        <ele>69.19921875</ele>
        <time>2026-03-02T11:59:14Z</time>
      </trkpt>
      <trkpt lat="52.240639245137572" lon="7.933706045150757">
        <ele>69.11328125</ele>
        <time>2026-03-02T11:59:18Z</time>
      </trkpt>
      <trkpt lat="52.240611920133233" lon="7.934079542756081">
        <ele>69.52734375</ele>
        <time>2026-03-02T11:59:24Z</time>
      </trkpt>
      <trkpt lat="52.24060588516295" lon="7.93447089381516">
        <ele>69.5390625</ele>
        <time>2026-03-02T11:59:30Z</time>
      </trkpt>
      <trkpt lat="52.240606639534235" lon="7.93492041528225">
        <ele>69.94140625</ele>
        <time>2026-03-02T11:59:36Z</time>
      </trkpt>
      <trkpt lat="52.240592306479812" lon="7.935253763571382">
        <ele>70.58984375</ele>
        <time>2026-03-02T11:59:40Z</time>
      </trkpt>
      <trkpt lat="52.240587277337909" lon="7.93569196946919">
        <ele>70.9140625</ele>
        <time>2026-03-02T11:59:46Z</time>
      </trkpt>
      <trkpt lat="52.24057462066412" lon="7.936029676347971">
        <ele>70.94921875</ele>
        <time>2026-03-02T11:59:50Z</time>
      </trkpt>
      <trkpt lat="52.240551989525557" lon="7.936381632462144">
        <ele>71.34375</ele>
        <time>2026-03-02T11:59:54Z</time>
      </trkpt>
      <trkpt lat="52.240518545731902" lon="7.936749346554279">
        <ele>71.2734375</ele>
        <time>2026-03-02T11:59:58Z</time>
      </trkpt>
      <trkpt lat="52.240471355617046" lon="7.937094764783979">
        <ele>71.171875</ele>
        <time>2026-03-02T12:00:02Z</time>
      </trkpt>
      <trkpt lat="52.240456268191338" lon="7.937454767525196">
        <ele>71.390625</ele>
        <time>2026-03-02T12:00:06Z</time>
      </trkpt>
      <trkpt lat="52.240447467193007" lon="7.93782046996057">
        <ele>71.8828125</ele>
        <time>2026-03-02T12:00:10Z</time>
      </trkpt>
      <trkpt lat="52.24046029150486" lon="7.938174521550536">
        <ele>71.85546875</ele>
        <time>2026-03-02T12:00:14Z</time>
      </trkpt>
      <trkpt lat="52.240496585145593" lon="7.938540978357196">
        <ele>71.234375</ele>
        <time>2026-03-02T12:00:18Z</time>
      </trkpt>
      <trkpt lat="52.240586103871465" lon="7.938872147351503">
        <ele>71.48046875</ele>
        <time>2026-03-02T12:00:22Z</time>
      </trkpt>
      <trkpt lat="52.240701355040073" lon="7.939236424863339">
        <ele>71.73046875</ele>
        <time>2026-03-02T12:00:26Z</time>
      </trkpt>
      <trkpt lat="52.240820210427046" lon="7.939580250531435">
        <ele>71.22265625</ele>
        <time>2026-03-02T12:00:30Z</time>
      </trkpt>
      <trkpt lat="52.240933869034052" lon="7.939923824742436">
        <ele>70.828125</ele>
        <time>2026-03-02T12:00:34Z</time>
      </trkpt>
      <trkpt lat="52.241025734692812" lon="7.9402279201895">
        <ele>71.0625</ele>
        <time>2026-03-02T12:00:38Z</time>
      </trkpt>
      <trkpt lat="52.24116051569581" lon="7.94057434424758">
        <ele>71.11328125</ele>
        <time>2026-03-02T12:00:42Z</time>
      </trkpt>
      <trkpt lat="52.241258332505822" lon="7.94088807888329">
        <ele>71.15625</ele>
        <time>2026-03-02T12:00:46Z</time>
      </trkpt>
      <trkpt lat="52.241385485976934" lon="7.941226959228516">
        <ele>70.92578125</ele>
        <time>2026-03-02T12:00:50Z</time>
      </trkpt>
      <trkpt lat="52.241502162069082" lon="7.941524097695947">
        <ele>71.0859375</ele>
        <time>2026-03-02T12:00:54Z</time>
      </trkpt>
      <trkpt lat="52.241628309711814" lon="7.941850489005446">
        <ele>71.28125</ele>
        <time>2026-03-02T12:00:58Z</time>
      </trkpt>
      <trkpt lat="52.241765018552542" lon="7.94221568852663">
        <ele>71.0546875</ele>
        <time>2026-03-02T12:01:02Z</time>
      </trkpt>
      <trkpt lat="52.241903739050031" lon="7.942569404840469">
        <ele>71.296875</ele>
        <time>2026-03-02T12:01:06Z</time>
      </trkpt>
      <trkpt lat="52.242010943591595" lon="7.942896215245128">
        <ele>71.50390625</ele>
        <time>2026-03-02T12:01:10Z</time>
      </trkpt>
      <trkpt lat="52.242126781493425" lon="7.943231407552958">
        <ele>71.25</ele>
        <time>2026-03-02T12:01:14Z</time>
      </trkpt>
      <trkpt lat="52.242225855588913" lon="7.943564923480153">
        <ele>71.0390625</ele>
        <time>2026-03-02T12:01:18Z</time>
      </trkpt>
      <trkpt lat="52.24231168627739" lon="7.943936996161938">
        <ele>70.703125</ele>
        <time>2026-03-02T12:01:22Z</time>
      </trkpt>
      <trkpt lat="52.242374969646335" lon="7.944323318079114">
        <ele>70.6796875</ele>
        <time>2026-03-02T12:01:26Z</time>
      </trkpt>
      <trkpt lat="52.242412520572543" lon="7.944707460701466">
        <ele>71.609375</ele>
        <time>2026-03-02T12:01:30Z</time>
      </trkpt>
      <trkpt lat="52.242346638813615" lon="7.945031337440014">
        <ele>71.05078125</ele>
        <time>2026-03-02T12:01:34Z</time>
      </trkpt>
      <trkpt lat="52.242462560534477" lon="7.945272903889418">
        <ele>70.64453125</ele>
        <time>2026-03-02T12:01:40Z</time>
      </trkpt>
      <trkpt lat="52.242547553032637" lon="7.945598708465695">
        <ele>70.96875</ele>
        <time>2026-03-02T12:01:44Z</time>
      </trkpt>
      <trkpt lat="52.242609914392233" lon="7.945943456143141">
        <ele>71.6953125</ele>
        <time>2026-03-02T12:01:48Z</time>
      </trkpt>
      <trkpt lat="52.242659367620945" lon="7.94632407836616">
        <ele>71.53515625</ele>
        <time>2026-03-02T12:01:52Z</time>
      </trkpt>
      <trkpt lat="52.242677137255669" lon="7.946694223210216">
        <ele>71.0625</ele>
        <time>2026-03-02T12:01:56Z</time>
      </trkpt>
      <trkpt lat="52.242673952132463" lon="7.947073169052601">
        <ele>71.32421875</ele>
        <time>2026-03-02T12:02:00Z</time>
      </trkpt>
      <trkpt lat="52.24263564683497" lon="7.947438284754753">
        <ele>72.72265625</ele>
        <time>2026-03-02T12:02:04Z</time>
      </trkpt>
      <trkpt lat="52.242585103958845" lon="7.947764424607158">
        <ele>72.2734375</ele>
        <time>2026-03-02T12:02:08Z</time>
      </trkpt>
      <trkpt lat="52.242503128945827" lon="7.948061730712652">
        <ele>72.30859375</ele>
        <time>2026-03-02T12:02:12Z</time>
      </trkpt>
      <trkpt lat="52.242390224710107" lon="7.948330789804459">
        <ele>72.54296875</ele>
        <time>2026-03-02T12:02:16Z</time>
      </trkpt>
      <trkpt lat="52.242270698770881" lon="7.948573026806116">
        <ele>72.8515625</ele>
        <time>2026-03-02T12:02:20Z</time>
      </trkpt>
      <trkpt lat="52.242125608026981" lon="7.948924480006099">
        <ele>74.390625</ele>
        <time>2026-03-02T12:02:26Z</time>
      </trkpt>
      <trkpt lat="52.242097528651357" lon="7.94923092238605">
        <ele>75.1171875</ele>
        <time>2026-03-02T12:02:30Z</time>
      </trkpt>
      <trkpt lat="52.242090990766883" lon="7.949526216834784">
        <ele>75.625</ele>
        <time>2026-03-02T12:02:34Z</time>
      </trkpt>
      <trkpt lat="52.242066599428654" lon="7.949954783543944">
        <ele>76.2265625</ele>
        <time>2026-03-02T12:02:40Z</time>
      </trkpt>
      <trkpt lat="52.242042878642678" lon="7.950272457674146">
        <ele>76.56640625</ele>
        <time>2026-03-02T12:02:44Z</time>
      </trkpt>
      <trkpt lat="52.242027372121811" lon="7.950568674132228">
        <ele>76.53515625</ele>
        <time>2026-03-02T12:02:48Z</time>
      </trkpt>
      <trkpt lat="52.242033239454031" lon="7.950871847569943">
        <ele>76.734375</ele>
        <time>2026-03-02T12:02:52Z</time>
      </trkpt>
      <trkpt lat="52.242030808702111" lon="7.951166471466422">
        <ele>77.07421875</ele>
        <time>2026-03-02T12:02:56Z</time>
      </trkpt>
      <trkpt lat="52.242040112614632" lon="7.951476434245706">
        <ele>77.12109375</ele>
        <time>2026-03-02T12:03:00Z</time>
      </trkpt>
      <trkpt lat="52.242049500346184" lon="7.951794024556875">
        <ele>77.1640625</ele>
        <time>2026-03-02T12:03:04Z</time>
      </trkpt>
      <trkpt lat="52.242066096514463" lon="7.952113375067711">
        <ele>77.234375</ele>
        <time>2026-03-02T12:03:08Z</time>
      </trkpt>
      <trkpt lat="52.242081519216299" lon="7.952430797740817">
        <ele>77.30078125</ele>
        <time>2026-03-02T12:03:12Z</time>
      </trkpt>
      <trkpt lat="52.242081603035331" lon="7.952763559296727">
        <ele>77.30078125</ele>
        <time>2026-03-02T12:03:16Z</time>
      </trkpt>
      <trkpt lat="52.24209476262331" lon="7.953110067173839">
        <ele>77.359375</ele>
        <time>2026-03-02T12:03:20Z</time>
      </trkpt>
      <trkpt lat="52.242119070142508" lon="7.953442661091685">
        <ele>77.46484375</ele>
        <time>2026-03-02T12:03:24Z</time>
      </trkpt>
      <trkpt lat="52.242140024900436" lon="7.953763268887997">
        <ele>77.5546875</ele>
        <time>2026-03-02T12:03:28Z</time>
      </trkpt>
      <trkpt lat="52.242162069305778" lon="7.954162750393152">
        <ele>77.6484375</ele>
        <time>2026-03-02T12:03:34Z</time>
      </trkpt>
      <trkpt lat="52.24224328994751" lon="7.954526273533702">
        <ele>78</ele>
        <time>2026-03-02T12:03:40Z</time>
      </trkpt>
      <trkpt lat="52.242377819493413" lon="7.954867333173752">
        <ele>78.296875</ele>
        <time>2026-03-02T12:03:46Z</time>
      </trkpt>
      <trkpt lat="52.242526011541486" lon="7.955213338136673">
        <ele>78.328125</ele>
        <time>2026-03-02T12:03:52Z</time>
      </trkpt>
      <trkpt lat="52.242609662935138" lon="7.955479631200433">
        <ele>78.58203125</ele>
        <time>2026-03-02T12:03:56Z</time>
      </trkpt>
      <trkpt lat="52.242675460875034" lon="7.955759335309267">
        <ele>78.8671875</ele>
        <time>2026-03-02T12:04:00Z</time>
      </trkpt>
      <trkpt lat="52.242752742022276" lon="7.956151943653822">
        <ele>77.55859375</ele>
        <time>2026-03-02T12:04:06Z</time>
      </trkpt>
      <trkpt lat="52.242818288505077" lon="7.956570284441114">
        <ele>77.08203125</ele>
        <time>2026-03-02T12:04:12Z</time>
      </trkpt>
      <trkpt lat="52.242868999019265" lon="7.957013854756951">
        <ele>76.37890625</ele>
        <time>2026-03-02T12:04:18Z</time>
      </trkpt>
      <trkpt lat="52.242904203012586" lon="7.957362206652761">
        <ele>75.83984375</ele>
        <time>2026-03-02T12:04:22Z</time>
      </trkpt>
      <trkpt lat="52.243080139160156" lon="7.957525989040732">
        <ele>75.41015625</ele>
        <time>2026-03-02T12:04:28Z</time>
      </trkpt>
      <trkpt lat="52.243258086964488" lon="7.957831090316176">
        <ele>75</ele>
        <time>2026-03-02T12:04:34Z</time>
      </trkpt>
      <trkpt lat="52.24339647218585" lon="7.958060503005981">
        <ele>75</ele>
        <time>2026-03-02T12:04:38Z</time>
      </trkpt>
      <trkpt lat="52.243542987853289" lon="7.958301231265068">
        <ele>74.59375</ele>
        <time>2026-03-02T12:04:42Z</time>
      </trkpt>
      <trkpt lat="52.243682211264968" lon="7.958555454388261">
        <ele>73.9375</ele>
        <time>2026-03-02T12:04:46Z</time>
      </trkpt>
      <trkpt lat="52.243834007531404" lon="7.95881780795753">
        <ele>73.04296875</ele>
        <time>2026-03-02T12:04:50Z</time>
      </trkpt>
      <trkpt lat="52.243982199579477" lon="7.959109162911773">
        <ele>72.2421875</ele>
        <time>2026-03-02T12:04:54Z</time>
      </trkpt>
      <trkpt lat="52.244164757430553" lon="7.959386603906751">
        <ele>71.84765625</ele>
        <time>2026-03-02T12:04:58Z</time>
      </trkpt>
      <trkpt lat="52.244312362745404" lon="7.959630852565169">
        <ele>71.52734375</ele>
        <time>2026-03-02T12:05:02Z</time>
      </trkpt>
      <trkpt lat="52.244427027180791" lon="7.959883147850633">
        <ele>71.28125</ele>
        <time>2026-03-02T12:05:06Z</time>
      </trkpt>
      <trkpt lat="52.244608076289296" lon="7.960200654342771">
        <ele>70.9453125</ele>
        <time>2026-03-02T12:05:12Z</time>
      </trkpt>
      <trkpt lat="52.244751574471593" lon="7.960433419793844">
        <ele>70.578125</ele>
        <time>2026-03-02T12:05:16Z</time>
      </trkpt>
      <trkpt lat="52.244889289140701" lon="7.960680266842246">
        <ele>70.28125</ele>
        <time>2026-03-02T12:05:20Z</time>
      </trkpt>
      <trkpt lat="52.245028177276254" lon="7.96092426404357">
        <ele>69.98046875</ele>
        <time>2026-03-02T12:05:24Z</time>
      </trkpt>
      <trkpt lat="52.245163712650537" lon="7.961174799129367">
        <ele>69.6875</ele>
        <time>2026-03-02T12:05:28Z</time>
      </trkpt>
      <trkpt lat="52.245300086215138" lon="7.961431872099638">
        <ele>69.39453125</ele>
        <time>2026-03-02T12:05:32Z</time>
      </trkpt>
      <trkpt lat="52.245445260778069" lon="7.961671594530344">
        <ele>69.078125</ele>
        <time>2026-03-02T12:05:36Z</time>
      </trkpt>
      <trkpt lat="52.245587501674891" lon="7.961909975856543">
        <ele>69.15625</ele>
        <time>2026-03-02T12:05:40Z</time>
      </trkpt>
      <trkpt lat="52.245715241879225" lon="7.962141484022141">
        <ele>69.34765625</ele>
        <time>2026-03-02T12:05:44Z</time>
      </trkpt>
      <trkpt lat="52.245857398957014" lon="7.962359581142664">
        <ele>69.15625</ele>
        <time>2026-03-02T12:05:48Z</time>
      </trkpt>
      <trkpt lat="52.24598472006619" lon="7.962617995217443">
        <ele>69</ele>
        <time>2026-03-02T12:05:52Z</time>
      </trkpt>
      <trkpt lat="52.246116986498237" lon="7.962881186977029">
        <ele>68.88671875</ele>
        <time>2026-03-02T12:05:56Z</time>
      </trkpt>
      <trkpt lat="52.246242128312588" lon="7.963143708184362">
        <ele>68.44140625</ele>
        <time>2026-03-02T12:06:00Z</time>
      </trkpt>
      <trkpt lat="52.246330557391047" lon="7.963426262140274">
        <ele>68.24609375</ele>
        <time>2026-03-02T12:06:04Z</time>
      </trkpt>
      <trkpt lat="52.246382189914584" lon="7.963735051453114">
        <ele>68.109375</ele>
        <time>2026-03-02T12:06:08Z</time>
      </trkpt>
      <trkpt lat="52.246430469676852" lon="7.964045768603683">
        <ele>68</ele>
        <time>2026-03-02T12:06:12Z</time>
      </trkpt>
      <trkpt lat="52.246480258181691" lon="7.964381882920861">
        <ele>68</ele>
        <time>2026-03-02T12:06:16Z</time>
      </trkpt>
      <trkpt lat="52.246524849906564" lon="7.964680446311832">
        <ele>68</ele>
        <time>2026-03-02T12:06:20Z</time>
      </trkpt>
      <trkpt lat="52.246583439409733" lon="7.96499066054821">
        <ele>68</ele>
        <time>2026-03-02T12:06:24Z</time>
      </trkpt>
      <trkpt lat="52.246641777455807" lon="7.965316046029329">
        <ele>68</ele>
        <time>2026-03-02T12:06:28Z</time>
      </trkpt>
      <trkpt lat="52.246692487969995" lon="7.965651573613286">
        <ele>68</ele>
        <time>2026-03-02T12:06:32Z</time>
      </trkpt>
      <trkpt lat="52.246748898178339" lon="7.966005876660347">
        <ele>68.015625</ele>
        <time>2026-03-02T12:06:36Z</time>
      </trkpt>
      <trkpt lat="52.246807739138603" lon="7.966342661529779">
        <ele>68.10546875</ele>
        <time>2026-03-02T12:06:40Z</time>
      </trkpt>
      <trkpt lat="52.246912512928247" lon="7.966690510511398">
        <ele>68</ele>
        <time>2026-03-02T12:06:44Z</time>
      </trkpt>
      <trkpt lat="52.247059782966971" lon="7.96699988655746">
        <ele>68</ele>
        <time>2026-03-02T12:06:48Z</time>
      </trkpt>
      <trkpt lat="52.247238401323557" lon="7.967240530997515">
        <ele>68</ele>
        <time>2026-03-02T12:06:52Z</time>
      </trkpt>
      <trkpt lat="52.247418109327555" lon="7.967455442994833">
        <ele>68.18359375</ele>
        <time>2026-03-02T12:06:56Z</time>
      </trkpt>
      <trkpt lat="52.247587004676461" lon="7.967661889269948">
        <ele>68.55078125</ele>
        <time>2026-03-02T12:07:00Z</time>
      </trkpt>
      <trkpt lat="52.247781129553914" lon="7.967918794602156">
        <ele>68.78515625</ele>
        <time>2026-03-02T12:07:06Z</time>
      </trkpt>
      <trkpt lat="52.247936110943556" lon="7.968113087117672">
        <ele>68.26953125</ele>
        <time>2026-03-02T12:07:10Z</time>
      </trkpt>
      <trkpt lat="52.248136019334197" lon="7.968321880325675">
        <ele>68</ele>
        <time>2026-03-02T12:07:14Z</time>
      </trkpt>
      <trkpt lat="52.248339531943202" lon="7.968521788716316">
        <ele>67.9140625</ele>
        <time>2026-03-02T12:07:18Z</time>
      </trkpt>
      <trkpt lat="52.248537596315145" lon="7.968702502548695">
        <ele>67.46484375</ele>
        <time>2026-03-02T12:07:22Z</time>
      </trkpt>
      <trkpt lat="52.248718310147524" lon="7.968859327957034">
        <ele>67.00390625</ele>
        <time>2026-03-02T12:07:26Z</time>
      </trkpt>
      <trkpt lat="52.248914865776896" lon="7.969070468097925">
        <ele>67</ele>
        <time>2026-03-02T12:07:30Z</time>
      </trkpt>
      <trkpt lat="52.249070098623633" lon="7.969378251582384">
        <ele>67.0859375</ele>
        <time>2026-03-02T12:07:34Z</time>
      </trkpt>
      <trkpt lat="52.249202029779553" lon="7.96971176750958">
        <ele>67</ele>
        <time>2026-03-02T12:07:38Z</time>
      </trkpt>
      <trkpt lat="52.249332368373871" lon="7.970061460509896">
        <ele>67</ele>
        <time>2026-03-02T12:07:42Z</time>
      </trkpt>
      <trkpt lat="52.249460108578205" lon="7.970402436330915">
        <ele>67</ele>
        <time>2026-03-02T12:07:46Z</time>
      </trkpt>
      <trkpt lat="52.249585166573524" lon="7.970742909237742">
        <ele>67</ele>
        <time>2026-03-02T12:07:50Z</time>
      </trkpt>
      <trkpt lat="52.249707458540797" lon="7.971072401851416">
        <ele>67</ele>
        <time>2026-03-02T12:07:54Z</time>
      </trkpt>
      <trkpt lat="52.249830840155482" lon="7.971384460106492">
        <ele>67</ele>
        <time>2026-03-02T12:07:58Z</time>
      </trkpt>
      <trkpt lat="52.249951120465994" lon="7.97169266268611">
        <ele>66.76953125</ele>
        <time>2026-03-02T12:08:02Z</time>
      </trkpt>
      <trkpt lat="52.250077100470662" lon="7.972015449777246">
        <ele>66.109375</ele>
        <time>2026-03-02T12:08:06Z</time>
      </trkpt>
      <trkpt lat="52.250207522884011" lon="7.972332369536161">
        <ele>66.57421875</ele>
        <time>2026-03-02T12:08:10Z</time>
      </trkpt>
      <trkpt lat="52.250327719375491" lon="7.972634956240654">
        <ele>66.32421875</ele>
        <time>2026-03-02T12:08:14Z</time>
      </trkpt>
      <trkpt lat="52.25045177154243" lon="7.972921868786216">
        <ele>66</ele>
        <time>2026-03-02T12:08:18Z</time>
      </trkpt>
      <trkpt lat="52.250567777082324" lon="7.973228478804231">
        <ele>66</ele>
        <time>2026-03-02T12:08:22Z</time>
      </trkpt>
      <trkpt lat="52.250665761530399" lon="7.973523186519742">
        <ele>66</ele>
        <time>2026-03-02T12:08:26Z</time>
      </trkpt>
      <trkpt lat="52.250792160630226" lon="7.973850499838591">
        <ele>66</ele>
        <time>2026-03-02T12:08:30Z</time>
      </trkpt>
      <trkpt lat="52.250934904441237" lon="7.974193152040243">
        <ele>66</ele>
        <time>2026-03-02T12:08:34Z</time>
      </trkpt>
      <trkpt lat="52.251074211671948" lon="7.974524740129709">
        <ele>66.0859375</ele>
        <time>2026-03-02T12:08:38Z</time>
      </trkpt>
      <trkpt lat="52.251205891370773" lon="7.974839229136705">
        <ele>66.37109375</ele>
        <time>2026-03-02T12:08:42Z</time>
      </trkpt>
      <trkpt lat="52.251348970457911" lon="7.975156484171748">
        <ele>66.6796875</ele>
        <time>2026-03-02T12:08:46Z</time>
      </trkpt>
      <trkpt lat="52.251527588814497" lon="7.975404923781753">
        <ele>66.65234375</ele>
        <time>2026-03-02T12:08:50Z</time>
      </trkpt>
      <trkpt lat="52.251715175807476" lon="7.975640371441841">
        <ele>66.53515625</ele>
        <time>2026-03-02T12:08:54Z</time>
      </trkpt>
      <trkpt lat="52.251919442787766" lon="7.975879088044167">
        <ele>66.55078125</ele>
        <time>2026-03-02T12:08:58Z</time>
      </trkpt>
      <trkpt lat="52.252121698111296" lon="7.976082097738981">
        <ele>66.109375</ele>
        <time>2026-03-02T12:09:02Z</time>
      </trkpt>
      <trkpt lat="52.252313978970051" lon="7.976313857361674">
        <ele>66.2578125</ele>
        <time>2026-03-02T12:09:06Z</time>
      </trkpt>
      <trkpt lat="52.252500979229808" lon="7.976535223424435">
        <ele>66.8125</ele>
        <time>2026-03-02T12:09:10Z</time>
      </trkpt>
      <trkpt lat="52.252660654485226" lon="7.976709399372339">
        <ele>67</ele>
        <time>2026-03-02T12:09:14Z</time>
      </trkpt>
      <trkpt lat="52.252867687493563" lon="7.976943254470825">
        <ele>67</ele>
        <time>2026-03-02T12:09:18Z</time>
      </trkpt>
      <trkpt lat="52.253074385225773" lon="7.97717509791255">
        <ele>66.58984375</ele>
        <time>2026-03-02T12:09:22Z</time>
      </trkpt>
      <trkpt lat="52.253278652206063" lon="7.977432003244758">
        <ele>66.1484375</ele>
        <time>2026-03-02T12:09:26Z</time>
      </trkpt>
      <trkpt lat="52.253442937508225" lon="7.977727884426713">
        <ele>66</ele>
        <time>2026-03-02T12:09:30Z</time>
      </trkpt>
      <trkpt lat="52.253386862576008" lon="7.978103896602988">
        <ele>66</ele>
        <time>2026-03-02T12:09:34Z</time>
      </trkpt>
      <trkpt lat="52.253277059644461" lon="7.978457110002637">
        <ele>66.15234375</ele>
        <time>2026-03-02T12:09:38Z</time>
      </trkpt>
      <trkpt lat="52.253183517605066" lon="7.978790625929833">
        <ele>66.35546875</ele>
        <time>2026-03-02T12:09:42Z</time>
      </trkpt>
      <trkpt lat="52.253081258386374" lon="7.979123136028647">
        <ele>66.75</ele>
        <time>2026-03-02T12:09:46Z</time>
      </trkpt>
      <trkpt lat="52.252970281988382" lon="7.979430332779884">
        <ele>67</ele>
        <time>2026-03-02T12:09:50Z</time>
      </trkpt>
      <trkpt lat="52.252854611724615" lon="7.97974674962461">
        <ele>67</ele>
        <time>2026-03-02T12:09:54Z</time>
      </trkpt>
      <trkpt lat="52.252733157947659" lon="7.980031901970506">
        <ele>66.87890625</ele>
        <time>2026-03-02T12:09:58Z</time>
      </trkpt>
      <trkpt lat="52.252617739140987" lon="7.980342619121075">
        <ele>66.4453125</ele>
        <time>2026-03-02T12:10:02Z</time>
      </trkpt>
      <trkpt lat="52.252522269263864" lon="7.980675883591175">
        <ele>66.8125</ele>
        <time>2026-03-02T12:10:06Z</time>
      </trkpt>
      <trkpt lat="52.252443227916956" lon="7.981002861633897">
        <ele>67</ele>
        <time>2026-03-02T12:10:10Z</time>
      </trkpt>
      <trkpt lat="52.252384470775723" lon="7.981409300118685">
        <ele>67</ele>
        <time>2026-03-02T12:10:16Z</time>
      </trkpt>
      <trkpt lat="52.252366030588746" lon="7.9818678740412">
        <ele>67</ele>
        <time>2026-03-02T12:10:22Z</time>
      </trkpt>
      <trkpt lat="52.252366784960032" lon="7.982194181531668">
        <ele>67</ele>
        <time>2026-03-02T12:10:26Z</time>
      </trkpt>
      <trkpt lat="52.252348260954022" lon="7.98253046348691">
        <ele>67</ele>
        <time>2026-03-02T12:10:30Z</time>
      </trkpt>
      <trkpt lat="52.252232423052192" lon="7.982834475114942">
        <ele>67</ele>
        <time>2026-03-02T12:10:34Z</time>
      </trkpt>
      <trkpt lat="52.252081632614136" lon="7.983073946088553">
        <ele>67</ele>
        <time>2026-03-02T12:10:38Z</time>
      </trkpt>
      <trkpt lat="52.251943750306964" lon="7.983309142291546">
        <ele>67.5078125</ele>
        <time>2026-03-02T12:10:42Z</time>
      </trkpt>
      <trkpt lat="52.25180871784687" lon="7.983537130057812">
        <ele>68.2890625</ele>
        <time>2026-03-02T12:10:46Z</time>
      </trkpt>
      <trkpt lat="52.25166161544621" lon="7.983742905780673">
        <ele>68.390625</ele>
        <time>2026-03-02T12:10:50Z</time>
      </trkpt>
      <trkpt lat="52.251484841108322" lon="7.984063262119889">
        <ele>68.0234375</ele>
        <time>2026-03-02T12:10:56Z</time>
      </trkpt>
      <trkpt lat="52.251318460330367" lon="7.984318323433399">
        <ele>68.140625</ele>
        <time>2026-03-02T12:11:02Z</time>
      </trkpt>
      <trkpt lat="52.251222990453243" lon="7.984591405838728">
        <ele>67.90625</ele>
        <time>2026-03-02T12:11:08Z</time>
      </trkpt>
      <trkpt lat="52.251288117840886" lon="7.984887873753905">
        <ele>67.5234375</ele>
        <time>2026-03-02T12:11:14Z</time>
      </trkpt>
      <trkpt lat="52.251466736197472" lon="7.985039250925183">
        <ele>67.24609375</ele>
        <time>2026-03-02T12:11:18Z</time>
      </trkpt>
      <trkpt lat="52.251640660688281" lon="7.985270926728845">
        <ele>67.7890625</ele>
        <time>2026-03-02T12:11:22Z</time>
      </trkpt>
      <trkpt lat="52.251790529116988" lon="7.98553453758359">
        <ele>67.83203125</ele>
        <time>2026-03-02T12:11:26Z</time>
      </trkpt>
      <trkpt lat="52.251955987885594" lon="7.985822707414627">
        <ele>67.12109375</ele>
        <time>2026-03-02T12:11:30Z</time>
      </trkpt>
      <trkpt lat="52.252099318429828" lon="7.986080618575215">
        <ele>67</ele>
        <time>2026-03-02T12:11:34Z</time>
      </trkpt>
      <trkpt lat="52.252259664237499" lon="7.986327968537808">
        <ele>67</ele>
        <time>2026-03-02T12:11:38Z</time>
      </trkpt>
      <trkpt lat="52.252409616485238" lon="7.986565595492721">
        <ele>67</ele>
        <time>2026-03-02T12:11:42Z</time>
      </trkpt>
      <trkpt lat="52.252556132152677" lon="7.986736334860325">
        <ele>67</ele>
        <time>2026-03-02T12:11:46Z</time>
      </trkpt>
      <trkpt lat="52.252696277573705" lon="7.986928867176175">
        <ele>66.88671875</ele>
        <time>2026-03-02T12:11:50Z</time>
      </trkpt>
      <trkpt lat="52.252850169315934" lon="7.987208236008883">
        <ele>66.93359375</ele>
        <time>2026-03-02T12:11:54Z</time>
      </trkpt>
      <trkpt lat="52.253006240352988" lon="7.98747100867331">
        <ele>66.9296875</ele>
        <time>2026-03-02T12:11:58Z</time>
      </trkpt>
      <trkpt lat="52.253176560625434" lon="7.987727830186486">
        <ele>67.2578125</ele>
        <time>2026-03-02T12:12:02Z</time>
      </trkpt>
      <trkpt lat="52.253333469852805" lon="7.987967887893319">
        <ele>67.4296875</ele>
        <time>2026-03-02T12:12:06Z</time>
      </trkpt>
      <trkpt lat="52.253499180078506" lon="7.988252034410834">
        <ele>67.375</ele>
        <time>2026-03-02T12:12:10Z</time>
      </trkpt>
      <trkpt lat="52.253665728494525" lon="7.988511873409152">
        <ele>67.42578125</ele>
        <time>2026-03-02T12:12:14Z</time>
      </trkpt>
      <trkpt lat="52.253833198919892" lon="7.988732233643532">
        <ele>67.20703125</ele>
        <time>2026-03-02T12:12:18Z</time>
      </trkpt>
      <trkpt lat="52.254004441201687" lon="7.988967765122652">
        <ele>67.53125</ele>
        <time>2026-03-02T12:12:22Z</time>
      </trkpt>
      <trkpt lat="52.254189429804683" lon="7.98924470320344">
        <ele>67.30859375</ele>
        <time>2026-03-02T12:12:26Z</time>
      </trkpt>
      <trkpt lat="52.254353798925877" lon="7.989496327936649">
        <ele>67.85546875</ele>
        <time>2026-03-02T12:12:30Z</time>
      </trkpt>
      <trkpt lat="52.254510540515184" lon="7.989742923527956">
        <ele>67.46484375</ele>
        <time>2026-03-02T12:12:34Z</time>
      </trkpt>
      <trkpt lat="52.254630401730537" lon="7.989997146651149">
        <ele>66.8828125</ele>
        <time>2026-03-02T12:12:38Z</time>
      </trkpt>
      <trkpt lat="52.25472436286509" lon="7.990310797467828">
        <ele>66.9609375</ele>
        <time>2026-03-02T12:12:44Z</time>
      </trkpt>
      <trkpt lat="52.254613805562258" lon="7.990554794669151">
        <ele>66.6171875</ele>
        <time>2026-03-02T12:12:48Z</time>
      </trkpt>
      <trkpt lat="52.254478521645069" lon="7.990778088569641">
        <ele>66.81640625</ele>
        <time>2026-03-02T12:12:52Z</time>
      </trkpt>
      <trkpt lat="52.25435690023005" lon="7.991032311692834">
        <ele>67.15625</ele>
        <time>2026-03-02T12:12:56Z</time>
      </trkpt>
      <trkpt lat="52.254214910790324" lon="7.991285528987646">
        <ele>67.0859375</ele>
        <time>2026-03-02T12:13:00Z</time>
      </trkpt>
      <trkpt lat="52.254066383466125" lon="7.991522988304496">
        <ele>67.5625</ele>
        <time>2026-03-02T12:13:04Z</time>
      </trkpt>
      <trkpt lat="52.253899499773979" lon="7.991767404600978">
        <ele>67.94921875</ele>
        <time>2026-03-02T12:13:08Z</time>
      </trkpt>
      <trkpt lat="52.2537378128618" lon="7.991982400417328">
        <ele>67.90625</ele>
        <time>2026-03-02T12:13:12Z</time>
      </trkpt>
      <trkpt lat="52.253587190061808" lon="7.992289429530501">
        <ele>68.3515625</ele>
        <time>2026-03-02T12:13:18Z</time>
      </trkpt>
      <trkpt lat="52.253695819526911" lon="7.992646498605609">
        <ele>68.08984375</ele>
        <time>2026-03-02T12:13:24Z</time>
      </trkpt>
      <trkpt lat="52.253795145079494" lon="7.992911953479052">
        <ele>68.203125</ele>
        <time>2026-03-02T12:13:28Z</time>
      </trkpt>
      <trkpt lat="52.253899248316884" lon="7.993171457201242">
        <ele>68.76953125</ele>
        <time>2026-03-02T12:13:32Z</time>
      </trkpt>
      <trkpt lat="52.254003100097179" lon="7.993412939831615">
        <ele>69</ele>
        <time>2026-03-02T12:13:36Z</time>
      </trkpt>
      <trkpt lat="52.254141569137573" lon="7.993776462972164">
        <ele>69</ele>
        <time>2026-03-02T12:13:42Z</time>
      </trkpt>
      <trkpt lat="52.254283810034394" lon="7.994120959192514">
        <ele>69</ele>
        <time>2026-03-02T12:13:48Z</time>
      </trkpt>
      <trkpt lat="52.254378357902169" lon="7.994379792362452">
        <ele>69.0859375</ele>
        <time>2026-03-02T12:13:52Z</time>
      </trkpt>
      <trkpt lat="52.25449126213789" lon="7.994654634967446">
        <ele>69.4609375</ele>
        <time>2026-03-02T12:13:56Z</time>
      </trkpt>
      <trkpt lat="52.254600394517183" lon="7.994926543906331">
        <ele>69.87109375</ele>
        <time>2026-03-02T12:14:00Z</time>
      </trkpt>
      <trkpt lat="52.254701228812337" lon="7.995180264115334">
        <ele>70.1015625</ele>
        <time>2026-03-02T12:14:04Z</time>
      </trkpt>
      <trkpt lat="52.254814887419343" lon="7.995423004031181">
        <ele>70.63671875</ele>
        <time>2026-03-02T12:14:08Z</time>
      </trkpt>
      <trkpt lat="52.254960816353559" lon="7.995764231309295">
        <ele>71</ele>
        <time>2026-03-02T12:14:14Z</time>
      </trkpt>
      <trkpt lat="52.255107667297125" lon="7.996117360889912">
        <ele>71.02734375</ele>
        <time>2026-03-02T12:14:20Z</time>
      </trkpt>
      <trkpt lat="52.255299612879753" lon="7.996334787458181">
        <ele>71</ele>
        <time>2026-03-02T12:14:26Z</time>
      </trkpt>
      <trkpt lat="52.255478734150529" lon="7.996430760249496">
        <ele>71</ele>
        <time>2026-03-02T12:14:30Z</time>
      </trkpt>
      <trkpt lat="52.255668668076396" lon="7.996520027518272">
        <ele>71.0078125</ele>
        <time>2026-03-02T12:14:34Z</time>
      </trkpt>
      <trkpt lat="52.255872180685401" lon="7.996639721095562">
        <ele>71.14453125</ele>
        <time>2026-03-02T12:14:38Z</time>
      </trkpt>
      <trkpt lat="52.256072927266359" lon="7.996748518198729">
        <ele>71.0546875</ele>
        <time>2026-03-02T12:14:42Z</time>
      </trkpt>
      <trkpt lat="52.256274009123445" lon="7.996847173199058">
        <ele>70.90625</ele>
        <time>2026-03-02T12:14:46Z</time>
      </trkpt>
      <trkpt lat="52.256449526175857" lon="7.996944822371006">
        <ele>70.94921875</ele>
        <time>2026-03-02T12:14:50Z</time>
      </trkpt>
      <trkpt lat="52.25662806071341" lon="7.99701682291925">
        <ele>71.07421875</ele>
        <time>2026-03-02T12:14:54Z</time>
      </trkpt>
      <trkpt lat="52.256713220849633" lon="7.997365677729249">
        <ele>71.60546875</ele>
        <time>2026-03-02T12:15:00Z</time>
      </trkpt>
      <trkpt lat="52.256677597761154" lon="7.997655943036079">
        <ele>71.89453125</ele>
        <time>2026-03-02T12:15:04Z</time>
      </trkpt>
      <trkpt lat="52.256616828963161" lon="7.998067243024707">
        <ele>72</ele>
        <time>2026-03-02T12:15:10Z</time>
      </trkpt>
      <trkpt lat="52.256709029898047" lon="7.998439986258745">
        <ele>72.15625</ele>
        <time>2026-03-02T12:15:16Z</time>
      </trkpt>
      <trkpt lat="52.25683961994946" lon="7.998694628477097">
        <ele>72.70703125</ele>
        <time>2026-03-02T12:15:20Z</time>
      </trkpt>
      <trkpt lat="52.256975239142776" lon="7.998950025066733">
        <ele>73</ele>
        <time>2026-03-02T12:15:24Z</time>
      </trkpt>
      <trkpt lat="52.2571069188416" lon="7.999201146885753">
        <ele>73</ele>
        <time>2026-03-02T12:15:28Z</time>
      </trkpt>
      <trkpt lat="52.257235748693347" lon="7.999463081359863">
        <ele>73</ele>
        <time>2026-03-02T12:15:32Z</time>
      </trkpt>
      <trkpt lat="52.257379330694675" lon="7.999723423272371">
        <ele>73</ele>
        <time>2026-03-02T12:15:36Z</time>
      </trkpt>
      <trkpt lat="52.257513860240579" lon="7.999993655830622">
        <ele>73</ele>
        <time>2026-03-02T12:15:40Z</time>
      </trkpt>
      <trkpt lat="52.257652077823877" lon="8.000244190916419">
        <ele>73.015625</ele>
        <time>2026-03-02T12:15:44Z</time>
      </trkpt>
      <trkpt lat="52.257775710895658" lon="8.000508807599545">
        <ele>73.359375</ele>
        <time>2026-03-02T12:15:48Z</time>
      </trkpt>
      <trkpt lat="52.257893308997154" lon="8.000759845599532">
        <ele>73.96484375</ele>
        <time>2026-03-02T12:15:52Z</time>
      </trkpt>
      <trkpt lat="52.257990622892976" lon="8.001025887206197">
        <ele>74.75390625</ele>
        <time>2026-03-02T12:15:56Z</time>
      </trkpt>
      <trkpt lat="52.258094809949398" lon="8.001271896064282">
        <ele>75</ele>
        <time>2026-03-02T12:16:00Z</time>
      </trkpt>
      <trkpt lat="52.258243756368756" lon="8.001623935997486">
        <ele>75.0390625</ele>
        <time>2026-03-02T12:16:06Z</time>
      </trkpt>
      <trkpt lat="52.258343501016498" lon="8.001878662034869">
        <ele>75.58984375</ele>
        <time>2026-03-02T12:16:10Z</time>
      </trkpt>
      <trkpt lat="52.258436791598797" lon="8.002133723348379">
        <ele>76.140625</ele>
        <time>2026-03-02T12:16:14Z</time>
      </trkpt>
      <trkpt lat="52.258561598137021" lon="8.002483751624823">
        <ele>76.8984375</ele>
        <time>2026-03-02T12:16:20Z</time>
      </trkpt>
      <trkpt lat="52.258719010278583" lon="8.002638565376401">
        <ele>77.23046875</ele>
        <time>2026-03-02T12:16:26Z</time>
      </trkpt>
      <trkpt lat="52.258951272815466" lon="8.002440333366394">
        <ele>76.890625</ele>
        <time>2026-03-02T12:16:32Z</time>
      </trkpt>
      <trkpt lat="52.259164089336991" lon="8.002209579572082">
        <ele>76.4765625</ele>
        <time>2026-03-02T12:16:38Z</time>
      </trkpt>
      <trkpt lat="52.259343210607767" lon="8.002221481874585">
        <ele>76.64453125</ele>
        <time>2026-03-02T12:16:42Z</time>
      </trkpt>
      <trkpt lat="52.259513279423118" lon="8.002556338906288">
        <ele>78.10546875</ele>
        <time>2026-03-02T12:16:48Z</time>
      </trkpt>
      <trkpt lat="52.259647976607084" lon="8.002868061885238">
        <ele>79.453125</ele>
        <time>2026-03-02T12:16:54Z</time>
      </trkpt>
      <trkpt lat="52.259750822558999" lon="8.003127481788397">
        <ele>80.2890625</ele>
        <time>2026-03-02T12:17:00Z</time>
      </trkpt>
      <trkpt lat="52.259927093982697" lon="8.003193950280547">
        <ele>80.43359375</ele>
        <time>2026-03-02T12:17:10Z</time>
      </trkpt>
      <trkpt lat="52.260106969624758" lon="8.003047602251172">
        <ele>80.1171875</ele>
        <time>2026-03-02T12:17:16Z</time>
      </trkpt>
      <trkpt lat="52.260296568274498" lon="8.002895470708609">
        <ele>79.78515625</ele>
        <time>2026-03-02T12:17:22Z</time>
      </trkpt>
      <trkpt lat="52.26051852107048" lon="8.002710901200771">
        <ele>79.38671875</ele>
        <time>2026-03-02T12:17:28Z</time>
      </trkpt>
      <trkpt lat="52.260731589049101" lon="8.002541083842516">
        <ele>79.01953125</ele>
        <time>2026-03-02T12:17:33Z</time>
      </trkpt>
      <trkpt lat="52.260894700884819" lon="8.002415858209133">
        <ele>78.515625</ele>
        <time>2026-03-02T12:17:37Z</time>
      </trkpt>
      <trkpt lat="52.261054459959269" lon="8.002272443845868">
        <ele>78.15234375</ele>
        <time>2026-03-02T12:17:41Z</time>
      </trkpt>
      <trkpt lat="52.261287812143564" lon="8.002094747498632">
        <ele>77.84765625</ele>
        <time>2026-03-02T12:17:47Z</time>
      </trkpt>
      <trkpt lat="52.261468190699816" lon="8.001900538802147">
        <ele>77.44921875</ele>
        <time>2026-03-02T12:17:53Z</time>
      </trkpt>
      <trkpt lat="52.261626776307821" lon="8.001769781112671">
        <ele>77.10546875</ele>
        <time>2026-03-02T12:18:27Z</time>
      </trkpt>
      <trkpt lat="52.261782931163907" lon="8.001890731975436">
        <ele>77.3203125</ele>
        <time>2026-03-02T12:18:33Z</time>
      </trkpt>
      <trkpt lat="52.261979151517153" lon="8.002179488539696">
        <ele>77.73828125</ele>
        <time>2026-03-02T12:18:39Z</time>
      </trkpt>
      <trkpt lat="52.262125331908464" lon="8.002395574003458">
        <ele>77.9921875</ele>
        <time>2026-03-02T12:18:43Z</time>
      </trkpt>
      <trkpt lat="52.262272769585252" lon="8.002618113532662">
        <ele>78</ele>
        <time>2026-03-02T12:18:49Z</time>
      </trkpt>
      <trkpt lat="52.262395983561873" lon="8.002827661111951">
        <ele>78</ele>
        <time>2026-03-02T12:19:11Z</time>
      </trkpt>
      <trkpt lat="52.262539146468043" lon="8.003039555624127">
        <ele>78</ele>
        <time>2026-03-02T12:19:17Z</time>
      </trkpt>
      <trkpt lat="52.262684991583228" lon="8.00324197858572">
        <ele>78.0859375</ele>
        <time>2026-03-02T12:19:21Z</time>
      </trkpt>
      <trkpt lat="52.26282874122262" lon="8.003449682146311">
        <ele>78.0078125</ele>
        <time>2026-03-02T12:19:25Z</time>
      </trkpt>
      <trkpt lat="52.262992691248655" lon="8.003678759559989">
        <ele>78</ele>
        <time>2026-03-02T12:19:29Z</time>
      </trkpt>
      <trkpt lat="52.263148762285709" lon="8.003931641578674">
        <ele>78.9609375</ele>
        <time>2026-03-02T12:19:33Z</time>
      </trkpt>
      <trkpt lat="52.263301480561495" lon="8.004156611859798">
        <ele>80.26171875</ele>
        <time>2026-03-02T12:19:37Z</time>
      </trkpt>
      <trkpt lat="52.26347423158586" lon="8.004421563819051">
        <ele>79.3515625</ele>
        <time>2026-03-02T12:19:41Z</time>
      </trkpt>
      <trkpt lat="52.263647988438606" lon="8.004694059491158">
        <ele>79.1484375</ele>
        <time>2026-03-02T12:19:45Z</time>
      </trkpt>
      <trkpt lat="52.263821829110384" lon="8.004985498264432">
        <ele>78.80859375</ele>
        <time>2026-03-02T12:19:49Z</time>
      </trkpt>
      <trkpt lat="52.264003297314048" lon="8.005249192938209">
        <ele>78.83984375</ele>
        <time>2026-03-02T12:19:53Z</time>
      </trkpt>
      <trkpt lat="52.264172108843923" lon="8.005527891218662">
        <ele>78.60546875</ele>
        <time>2026-03-02T12:19:57Z</time>
      </trkpt>
      <trkpt lat="52.264343937858939" lon="8.005782281979919">
        <ele>78.234375</ele>
        <time>2026-03-02T12:20:01Z</time>
      </trkpt>
      <trkpt lat="52.264511492103338" lon="8.006041198968887">
        <ele>78.0546875</ele>
        <time>2026-03-02T12:20:05Z</time>
      </trkpt>
      <trkpt lat="52.264684410765767" lon="8.006312185898423">
        <ele>77.9140625</ele>
        <time>2026-03-02T12:20:09Z</time>
      </trkpt>
      <trkpt lat="52.264852970838547" lon="8.006547717377543">
        <ele>77.41015625</ele>
        <time>2026-03-02T12:20:13Z</time>
      </trkpt>
      <trkpt lat="52.265011388808489" lon="8.006792636588216">
        <ele>77.1640625</ele>
        <time>2026-03-02T12:20:17Z</time>
      </trkpt>
      <trkpt lat="52.265171147882938" lon="8.007053565233946">
        <ele>77.125</ele>
        <time>2026-03-02T12:20:21Z</time>
      </trkpt>
      <trkpt lat="52.265310371294618" lon="8.007300915196538">
        <ele>77</ele>
        <time>2026-03-02T12:20:25Z</time>
      </trkpt>
      <trkpt lat="52.265416150912642" lon="8.007594868540764">
        <ele>77.00390625</ele>
        <time>2026-03-02T12:20:29Z</time>
      </trkpt>
      <trkpt lat="52.265397291630507" lon="8.007944477722049">
        <ele>76.96875</ele>
        <time>2026-03-02T12:20:33Z</time>
      </trkpt>
      <trkpt lat="52.265268797054887" lon="8.008226109668613">
        <ele>76.69140625</ele>
        <time>2026-03-02T12:20:37Z</time>
      </trkpt>
      <trkpt lat="52.265121359378099" lon="8.008489469066262">
        <ele>76.12109375</ele>
        <time>2026-03-02T12:20:41Z</time>
      </trkpt>
      <trkpt lat="52.264968641102314" lon="8.008725754916668">
        <ele>76</ele>
        <time>2026-03-02T12:20:45Z</time>
      </trkpt>
      <trkpt lat="52.264851629734039" lon="8.009067317470908">
        <ele>75.73828125</ele>
        <time>2026-03-02T12:20:51Z</time>
      </trkpt>
      <trkpt lat="52.264772169291973" lon="8.009494626894593">
        <ele>74.625</ele>
        <time>2026-03-02T12:20:57Z</time>
      </trkpt>
      <trkpt lat="52.264752555638552" lon="8.009871225804091">
        <ele>73.52734375</ele>
        <time>2026-03-02T12:21:01Z</time>
      </trkpt>
      <trkpt lat="52.264779461547732" lon="8.010258469730616">
        <ele>73.29296875</ele>
        <time>2026-03-02T12:21:05Z</time>
      </trkpt>
      <trkpt lat="52.264827154576778" lon="8.010651748627424">
        <ele>72.7421875</ele>
        <time>2026-03-02T12:21:09Z</time>
      </trkpt>
      <trkpt lat="52.264876523986459" lon="8.011026000604034">
        <ele>72.13671875</ele>
        <time>2026-03-02T12:21:13Z</time>
      </trkpt>
      <trkpt lat="52.26493083871901" lon="8.011454064399004">
        <ele>71.75</ele>
        <time>2026-03-02T12:21:17Z</time>
      </trkpt>
      <trkpt lat="52.264983812347054" lon="8.01185212098062">
        <ele>71.1484375</ele>
        <time>2026-03-02T12:21:21Z</time>
      </trkpt>
      <trkpt lat="52.265042569488287" lon="8.012233413755894">
        <ele>71.27734375</ele>
        <time>2026-03-02T12:21:25Z</time>
      </trkpt>
      <trkpt lat="52.265039971098304" lon="8.012548657134175">
        <ele>70.62109375</ele>
        <time>2026-03-02T12:21:31Z</time>
      </trkpt>
      <trkpt lat="52.26486973464489" lon="8.012889632955194">
        <ele>70.05859375</ele>
        <time>2026-03-02T12:21:37Z</time>
      </trkpt>
      <trkpt lat="52.264730511233211" lon="8.013136982917786">
        <ele>70.03125</ele>
        <time>2026-03-02T12:21:41Z</time>
      </trkpt>
      <trkpt lat="52.264591287821531" lon="8.013409981504083">
        <ele>69.48828125</ele>
        <time>2026-03-02T12:21:45Z</time>
      </trkpt>
      <trkpt lat="52.264427170157433" lon="8.013662695884705">
        <ele>68.99609375</ele>
        <time>2026-03-02T12:21:49Z</time>
      </trkpt>
      <trkpt lat="52.264274032786489" lon="8.013937119394541">
        <ele>68.734375</ele>
        <time>2026-03-02T12:21:53Z</time>
      </trkpt>
      <trkpt lat="52.264123661443591" lon="8.014203077182174">
        <ele>68.55078125</ele>
        <time>2026-03-02T12:21:57Z</time>
      </trkpt>
      <trkpt lat="52.263973793014884" lon="8.014455791562796">
        <ele>68.234375</ele>
        <time>2026-03-02T12:22:01Z</time>
      </trkpt>
      <trkpt lat="52.26383239030838" lon="8.014705572277308">
        <ele>68</ele>
        <time>2026-03-02T12:22:05Z</time>
      </trkpt>
      <trkpt lat="52.263684533536434" lon="8.014996256679297">
        <ele>68</ele>
        <time>2026-03-02T12:22:11Z</time>
      </trkpt>
      <trkpt lat="52.263850327581167" lon="8.015226256102324">
        <ele>67.5625</ele>
        <time>2026-03-02T12:22:17Z</time>
      </trkpt>
      <trkpt lat="52.264052582904696" lon="8.015436977148056">
        <ele>67.23046875</ele>
        <time>2026-03-02T12:22:23Z</time>
      </trkpt>
      <trkpt lat="52.264165906235576" lon="8.015767056494951">
        <ele>67.1484375</ele>
        <time>2026-03-02T12:22:29Z</time>
      </trkpt>
      <trkpt lat="52.264040680602193" lon="8.016001749783754">
        <ele>67.1015625</ele>
        <time>2026-03-02T12:22:33Z</time>
      </trkpt>
      <trkpt lat="52.263905899599195" lon="8.016229653730989">
        <ele>67.49609375</ele>
        <time>2026-03-02T12:22:37Z</time>
      </trkpt>
      <trkpt lat="52.263774890452623" lon="8.016464095562697">
        <ele>67.4765625</ele>
        <time>2026-03-02T12:22:41Z</time>
      </trkpt>
      <trkpt lat="52.263628374785185" lon="8.016713205724955">
        <ele>67.078125</ele>
        <time>2026-03-02T12:22:45Z</time>
      </trkpt>
      <trkpt lat="52.26349376142025" lon="8.016927195712924">
        <ele>67</ele>
        <time>2026-03-02T12:22:49Z</time>
      </trkpt>
      <trkpt lat="52.263372978195548" lon="8.017167253419757">
        <ele>67</ele>
        <time>2026-03-02T12:22:53Z</time>
      </trkpt>
      <trkpt lat="52.263229731470346" lon="8.01740488037467">
        <ele>67</ele>
        <time>2026-03-02T12:22:57Z</time>
      </trkpt>
      <trkpt lat="52.263093190267682" lon="8.017638986930251">
        <ele>67</ele>
        <time>2026-03-02T12:23:01Z</time>
      </trkpt>
      <trkpt lat="52.262949021533132" lon="8.017881894484162">
        <ele>67.203125</ele>
        <time>2026-03-02T12:23:05Z</time>
      </trkpt>
      <trkpt lat="52.262820778414607" lon="8.018111390992999">
        <ele>67.171875</ele>
        <time>2026-03-02T12:23:09Z</time>
      </trkpt>
      <trkpt lat="52.262704102322459" lon="8.018362512812018">
        <ele>67</ele>
        <time>2026-03-02T12:23:13Z</time>
      </trkpt>
      <trkpt lat="52.262556748464704" lon="8.018580861389637">
        <ele>66.93359375</ele>
        <time>2026-03-02T12:23:17Z</time>
      </trkpt>
      <trkpt lat="52.262423560023308" lon="8.018807843327522">
        <ele>66.5078125</ele>
        <time>2026-03-02T12:23:21Z</time>
      </trkpt>
      <trkpt lat="52.262247120961547" lon="8.019106071442366">
        <ele>66.04296875</ele>
        <time>2026-03-02T12:23:27Z</time>
      </trkpt>
      <trkpt lat="52.262123236432672" lon="8.019342022016645">
        <ele>66</ele>
        <time>2026-03-02T12:23:31Z</time>
      </trkpt>
      <trkpt lat="52.2619887907058" lon="8.019573697820306">
        <ele>66</ele>
        <time>2026-03-02T12:23:35Z</time>
      </trkpt>
      <trkpt lat="52.26183976046741" lon="8.019803529605269">
        <ele>65.8828125</ele>
        <time>2026-03-02T12:23:39Z</time>
      </trkpt>
      <trkpt lat="52.26169022731483" lon="8.020025063306093">
        <ele>65.9765625</ele>
        <time>2026-03-02T12:23:43Z</time>
      </trkpt>
      <trkpt lat="52.261554021388292" lon="8.020264869555831">
        <ele>65.9140625</ele>
        <time>2026-03-02T12:23:47Z</time>
      </trkpt>
      <trkpt lat="52.26142343133688" lon="8.020490510389209">
        <ele>65.5546875</ele>
        <time>2026-03-02T12:23:51Z</time>
      </trkpt>
      <trkpt lat="52.261283285915852" lon="8.020714977756143">
        <ele>65.359375</ele>
        <time>2026-03-02T12:23:55Z</time>
      </trkpt>
      <trkpt lat="52.261143056675792" lon="8.020944474264979">
        <ele>65.828125</ele>
        <time>2026-03-02T12:23:59Z</time>
      </trkpt>
      <trkpt lat="52.261010957881808" lon="8.021184112876654">
        <ele>66</ele>
        <time>2026-03-02T12:24:03Z</time>
      </trkpt>
      <trkpt lat="52.260873997583985" lon="8.021456943824887">
        <ele>66</ele>
        <time>2026-03-02T12:24:07Z</time>
      </trkpt>
      <trkpt lat="52.260712562128901" lon="8.021702533587813">
        <ele>66</ele>
        <time>2026-03-02T12:24:11Z</time>
      </trkpt>
      <trkpt lat="52.260564118623734" lon="8.021933203563094">
        <ele>66</ele>
        <time>2026-03-02T12:24:15Z</time>
      </trkpt>
      <trkpt lat="52.260413663461804" lon="8.022161610424519">
        <ele>66</ele>
        <time>2026-03-02T12:24:19Z</time>
      </trkpt>
      <trkpt lat="52.260269913822412" lon="8.022404182702303">
        <ele>66.0390625</ele>
        <time>2026-03-02T12:24:23Z</time>
      </trkpt>
      <trkpt lat="52.260094480589032" lon="8.022715402767062">
        <ele>66.78125</ele>
        <time>2026-03-02T12:24:29Z</time>
      </trkpt>
      <trkpt lat="52.259928015992045" lon="8.023000387474895">
        <ele>66.9453125</ele>
        <time>2026-03-02T12:24:35Z</time>
      </trkpt>
      <trkpt lat="52.259825170040131" lon="8.023324264213443">
        <ele>67</ele>
        <time>2026-03-02T12:24:41Z</time>
      </trkpt>
      <trkpt lat="52.259817458689213" lon="8.023633807897568">
        <ele>67.015625</ele>
        <time>2026-03-02T12:24:45Z</time>
      </trkpt>
      <trkpt lat="52.259843358770013" lon="8.023943603038788">
        <ele>67.265625</ele>
        <time>2026-03-02T12:24:49Z</time>
      </trkpt>
      <trkpt lat="52.259880322962999" lon="8.024264127016068">
        <ele>67.85546875</ele>
        <time>2026-03-02T12:24:53Z</time>
      </trkpt>
      <trkpt lat="52.259909911081195" lon="8.024599235504866">
        <ele>67.69140625</ele>
        <time>2026-03-02T12:24:57Z</time>
      </trkpt>
      <trkpt lat="52.259911000728607" lon="8.024935266003013">
        <ele>67.62890625</ele>
        <time>2026-03-02T12:25:01Z</time>
      </trkpt>
      <trkpt lat="52.259886441752315" lon="8.025256292894483">
        <ele>67.734375</ele>
        <time>2026-03-02T12:25:05Z</time>
      </trkpt>
      <trkpt lat="52.259864984080195" lon="8.025550497695804">
        <ele>67.828125</ele>
        <time>2026-03-02T12:25:09Z</time>
      </trkpt>
      <trkpt lat="52.259837742894888" lon="8.025975963100791">
        <ele>67.29296875</ele>
        <time>2026-03-02T12:25:15Z</time>
      </trkpt>
      <trkpt lat="52.259788373485208" lon="8.026369158178568">
        <ele>68.35546875</ele>
        <time>2026-03-02T12:25:21Z</time>
      </trkpt>
      <trkpt lat="52.259885519742966" lon="8.026767382398248">
        <ele>68.94140625</ele>
        <time>2026-03-02T12:25:27Z</time>
      </trkpt>
      <trkpt lat="52.259988198056817" lon="8.027141718193889">
        <ele>68.71484375</ele>
        <time>2026-03-02T12:25:33Z</time>
      </trkpt>
      <trkpt lat="52.260096408426762" lon="8.027517898008227">
        <ele>68.06640625</ele>
        <time>2026-03-02T12:25:39Z</time>
      </trkpt>
      <trkpt lat="52.260102778673172" lon="8.027844876050949">
        <ele>67.859375</ele>
        <time>2026-03-02T12:25:45Z</time>
      </trkpt>
      <trkpt lat="52.259893901646137" lon="8.02790648303926">
        <ele>70.8515625</ele>
        <time>2026-03-02T12:25:53Z</time>
      </trkpt>
      <trkpt lat="52.259697010740638" lon="8.028010251000524">
        <ele>71.9453125</ele>
        <time>2026-03-02T12:25:59Z</time>
      </trkpt>
      <trkpt lat="52.259451588615775" lon="8.028244944289327">
        <ele>70.609375</ele>
        <time>2026-03-02T12:26:03Z</time>
      </trkpt>
      <trkpt lat="52.25927053950727" lon="8.028455832973123">
        <ele>68.62890625</ele>
        <time>2026-03-02T12:26:07Z</time>
      </trkpt>
      <trkpt lat="52.259207759052515" lon="8.028754983097315">
        <ele>68.78125</ele>
        <time>2026-03-02T12:26:13Z</time>
      </trkpt>
      <trkpt lat="52.259313706308603" lon="8.029172820970416">
        <ele>68.125</ele>
        <time>2026-03-02T12:26:19Z</time>
      </trkpt>
      <trkpt lat="52.259422587230802" lon="8.029497200623155">
        <ele>67.61328125</ele>
        <time>2026-03-02T12:26:23Z</time>
      </trkpt>
      <trkpt lat="52.259515542536974" lon="8.029781179502606">
        <ele>68.359375</ele>
        <time>2026-03-02T12:26:27Z</time>
      </trkpt>
      <trkpt lat="52.259595338255167" lon="8.030073707923293">
        <ele>68.48046875</ele>
        <time>2026-03-02T12:26:31Z</time>
      </trkpt>
      <trkpt lat="52.259674379602075" lon="8.030340084806085">
        <ele>68.27734375</ele>
        <time>2026-03-02T12:26:35Z</time>
      </trkpt>
      <trkpt lat="52.259753672406077" lon="8.030606880784035">
        <ele>68.1171875</ele>
        <time>2026-03-02T12:26:39Z</time>
      </trkpt>
      <trkpt lat="52.259838581085205" lon="8.030895469710231">
        <ele>67.8203125</ele>
        <time>2026-03-02T12:26:43Z</time>
      </trkpt>
      <trkpt lat="52.259916197508574" lon="8.031191099435091">
        <ele>68.03125</ele>
        <time>2026-03-02T12:26:47Z</time>
      </trkpt>
      <trkpt lat="52.260003620758653" lon="8.031502570956945">
        <ele>69.0703125</ele>
        <time>2026-03-02T12:26:51Z</time>
      </trkpt>
      <trkpt lat="52.26009582169354" lon="8.031805912032723">
        <ele>69.4375</ele>
        <time>2026-03-02T12:26:55Z</time>
      </trkpt>
      <trkpt lat="52.260178551077843" lon="8.032114785164595">
        <ele>68.85546875</ele>
        <time>2026-03-02T12:26:59Z</time>
      </trkpt>
      <trkpt lat="52.260262118652463" lon="8.032400691881776">
        <ele>68.44921875</ele>
        <time>2026-03-02T12:27:03Z</time>
      </trkpt>
      <trkpt lat="52.260345770046115" lon="8.032701602205634">
        <ele>68.375</ele>
        <time>2026-03-02T12:27:07Z</time>
      </trkpt>
      <trkpt lat="52.260435875505209" lon="8.033008966594935">
        <ele>68.9609375</ele>
        <time>2026-03-02T12:27:11Z</time>
      </trkpt>
      <trkpt lat="52.260509049519897" lon="8.033304680138826">
        <ele>69.69921875</ele>
        <time>2026-03-02T12:27:15Z</time>
      </trkpt>
      <trkpt lat="52.260591611266136" lon="8.03362051025033">
        <ele>70.1875</ele>
        <time>2026-03-02T12:27:19Z</time>
      </trkpt>
      <trkpt lat="52.260657241567969" lon="8.03390390239656">
        <ele>69.953125</ele>
        <time>2026-03-02T12:27:23Z</time>
      </trkpt>
      <trkpt lat="52.260734438896179" lon="8.034186707809568">
        <ele>69.578125</ele>
        <time>2026-03-02T12:27:27Z</time>
      </trkpt>
      <trkpt lat="52.26081364788115" lon="8.034475212916732">
        <ele>69.171875</ele>
        <time>2026-03-02T12:27:31Z</time>
      </trkpt>
      <trkpt lat="52.260890509933233" lon="8.034771261736751">
        <ele>69.77734375</ele>
        <time>2026-03-02T12:27:35Z</time>
      </trkpt>
      <trkpt lat="52.260956224054098" lon="8.035099916160107">
        <ele>70</ele>
        <time>2026-03-02T12:27:39Z</time>
      </trkpt>
      <trkpt lat="52.261024368926883" lon="8.035423625260592">
        <ele>70.03515625</ele>
        <time>2026-03-02T12:27:43Z</time>
      </trkpt>
      <trkpt lat="52.26108337752521" lon="8.035753034055233">
        <ele>70.2265625</ele>
        <time>2026-03-02T12:27:47Z</time>
      </trkpt>
      <trkpt lat="52.261136351153255" lon="8.036051848903298">
        <ele>70.76171875</ele>
        <time>2026-03-02T12:27:51Z</time>
      </trkpt>
      <trkpt lat="52.261180607602" lon="8.036344964057207">
        <ele>71.38671875</ele>
        <time>2026-03-02T12:27:55Z</time>
      </trkpt>
      <trkpt lat="52.2612289711833" lon="8.036635061725974">
        <ele>72.30078125</ele>
        <time>2026-03-02T12:27:59Z</time>
      </trkpt>
      <trkpt lat="52.261275490745902" lon="8.036928260698915">
        <ele>72.8515625</ele>
        <time>2026-03-02T12:28:03Z</time>
      </trkpt>
      <trkpt lat="52.261315975338221" lon="8.037239983677864">
        <ele>73.33203125</ele>
        <time>2026-03-02T12:28:07Z</time>
      </trkpt>
      <trkpt lat="52.261365260928869" lon="8.037556149065495">
        <ele>73.015625</ele>
        <time>2026-03-02T12:28:11Z</time>
      </trkpt>
      <trkpt lat="52.261413456872106" lon="8.037874661386013">
        <ele>73.58203125</ele>
        <time>2026-03-02T12:28:15Z</time>
      </trkpt>
      <trkpt lat="52.261442877352238" lon="8.038196861743927">
        <ele>74.56640625</ele>
        <time>2026-03-02T12:28:19Z</time>
      </trkpt>
      <trkpt lat="52.26147523149848" lon="8.038515793159604">
        <ele>74.47265625</ele>
        <time>2026-03-02T12:28:23Z</time>
      </trkpt>
      <trkpt lat="52.261483781039715" lon="8.038850482553244">
        <ele>73.7890625</ele>
        <time>2026-03-02T12:28:27Z</time>
      </trkpt>
      <trkpt lat="52.261485792696476" lon="8.03919087164104">
        <ele>72.875</ele>
        <time>2026-03-02T12:28:31Z</time>
      </trkpt>
      <trkpt lat="52.261535581201315" lon="8.0395089648664">
        <ele>71.51171875</ele>
        <time>2026-03-02T12:28:35Z</time>
      </trkpt>
      <trkpt lat="52.261710008606315" lon="8.039663778617978">
        <ele>69.1796875</ele>
        <time>2026-03-02T12:28:39Z</time>
      </trkpt>
      <trkpt lat="52.261929949745536" lon="8.039577193558216">
        <ele>68.51953125</ele>
        <time>2026-03-02T12:28:43Z</time>
      </trkpt>
      <trkpt lat="52.262144023552537" lon="8.039533523842692">
        <ele>68.02734375</ele>
        <time>2026-03-02T12:28:47Z</time>
      </trkpt>
      <trkpt lat="52.262345273047686" lon="8.039474347606301">
        <ele>68.0859375</ele>
        <time>2026-03-02T12:28:51Z</time>
      </trkpt>
      <trkpt lat="52.262584660202265" lon="8.039400083944202">
        <ele>68.01171875</ele>
        <time>2026-03-02T12:28:57Z</time>
      </trkpt>
      <trkpt lat="52.262689517810941" lon="8.039780538529158">
        <ele>67.7109375</ele>
        <time>2026-03-02T12:29:03Z</time>
      </trkpt>
    </trkseg>
  </trk>

</gpx>